<?xml version="1.0" encoding="utf-8"?>
<gpx xmlns:xsi="http://www.w3.org/2001/XMLSchema-instance" xmlns:xsd="http://www.w3.org/2001/XMLSchema" version="1.1" creator="Shapelink.com" xmlns="http://www.topografix.com/GPX/1/1" xmlns:gpxtpx="http://www.garmin.com/xmlschemas/TrackPointExtension/v1">
  <metadata>
    <name>Cykling - CX 4.47 km, 2019-10-16</name>
    <desc></desc>
    <author><name>Alexander Engvall</name></author> 
    <time>2019-10-16T17:54:25Z</time>
  </metadata>
  <trk>
    <name>Cykling - CX 4.47 km, 2019-10-16</name>
    <trkseg>
      <trkpt lat="59.193499740913" lon="17.902583206542">
        <ele>73.4</ele>
        <time>2019-10-16T17:54:25Z</time>
      </trkpt>
      <trkpt lat="59.193245098791" lon="17.902327474773">
        <ele>73.4</ele>
        <time>2019-10-16T17:54:35Z</time>
      </trkpt>
      <trkpt lat="59.193249289741" lon="17.902291013508">
        <ele>73.4</ele>
        <time>2019-10-16T17:54:36Z</time>
      </trkpt>
      <trkpt lat="59.193256162899" lon="17.902249355465">
        <ele>73.4</ele>
        <time>2019-10-16T17:54:37Z</time>
      </trkpt>
      <trkpt lat="59.193257839279" lon="17.902195711305">
        <ele>73.4</ele>
        <time>2019-10-16T17:54:38Z</time>
      </trkpt>
      <trkpt lat="59.193258006917" lon="17.902139887851">
        <ele>73.4</ele>
        <time>2019-10-16T17:54:39Z</time>
      </trkpt>
      <trkpt lat="59.19325775546" lon="17.902092697754">
        <ele>73.6</ele>
        <time>2019-10-16T17:54:40Z</time>
      </trkpt>
      <trkpt lat="59.19324937356" lon="17.90205699086">
        <ele>73.6</ele>
        <time>2019-10-16T17:54:41Z</time>
      </trkpt>
      <trkpt lat="59.193232693579" lon="17.902031761341">
        <ele>73.6</ele>
        <time>2019-10-16T17:54:42Z</time>
      </trkpt>
      <trkpt lat="59.193219869272" lon="17.902003179062">
        <ele>73.6</ele>
        <time>2019-10-16T17:54:43Z</time>
      </trkpt>
      <trkpt lat="59.193210146268" lon="17.901976356982">
        <ele>73.6</ele>
        <time>2019-10-16T17:54:44Z</time>
      </trkpt>
      <trkpt lat="59.193201345273" lon="17.901953642033">
        <ele>73.6</ele>
        <time>2019-10-16T17:54:45Z</time>
      </trkpt>
      <trkpt lat="59.193188940061" lon="17.901929250704">
        <ele>73.6</ele>
        <time>2019-10-16T17:54:46Z</time>
      </trkpt>
      <trkpt lat="59.193175109926" lon="17.90190946942">
        <ele>73.6</ele>
        <time>2019-10-16T17:54:47Z</time>
      </trkpt>
      <trkpt lat="59.193162788533" lon="17.901894046724">
        <ele>73.8</ele>
        <time>2019-10-16T17:54:48Z</time>
      </trkpt>
      <trkpt lat="59.193160106325" lon="17.901885245729">
        <ele>74</ele>
        <time>2019-10-16T17:54:49Z</time>
      </trkpt>
      <trkpt lat="59.193156753565" lon="17.901875522725">
        <ele>74.4</ele>
        <time>2019-10-16T17:54:50Z</time>
      </trkpt>
      <trkpt lat="59.193155412461" lon="17.901870493585">
        <ele>74.6</ele>
        <time>2019-10-16T17:54:51Z</time>
      </trkpt>
      <trkpt lat="59.193036892395" lon="17.901725235258">
        <ele>75.6</ele>
        <time>2019-10-16T18:01:47Z</time>
      </trkpt>
      <trkpt lat="59.193021721156" lon="17.90170662744">
        <ele>75.6</ele>
        <time>2019-10-16T18:01:48Z</time>
      </trkpt>
      <trkpt lat="59.193005795546" lon="17.901687013794">
        <ele>75.6</ele>
        <time>2019-10-16T18:01:49Z</time>
      </trkpt>
      <trkpt lat="59.192988445013" lon="17.901662119551">
        <ele>75.6</ele>
        <time>2019-10-16T18:01:50Z</time>
      </trkpt>
      <trkpt lat="59.192968831367" lon="17.901631022702">
        <ele>75.6</ele>
        <time>2019-10-16T18:01:51Z</time>
      </trkpt>
      <trkpt lat="59.192947206065" lon="17.901601937509">
        <ele>75.6</ele>
        <time>2019-10-16T18:01:52Z</time>
      </trkpt>
      <trkpt lat="59.192923569107" lon="17.901577965275">
        <ele>75.6</ele>
        <time>2019-10-16T18:01:53Z</time>
      </trkpt>
      <trkpt lat="59.192900015968" lon="17.901557345801">
        <ele>75.6</ele>
        <time>2019-10-16T18:01:54Z</time>
      </trkpt>
      <trkpt lat="59.192880737598" lon="17.901539240897">
        <ele>75.6</ele>
        <time>2019-10-16T18:01:55Z</time>
      </trkpt>
      <trkpt lat="59.192863303246" lon="17.901521974183">
        <ele>75.6</ele>
        <time>2019-10-16T18:01:56Z</time>
      </trkpt>
      <trkpt lat="59.192851149491" lon="17.90150546184">
        <ele>75.6</ele>
        <time>2019-10-16T18:01:57Z</time>
      </trkpt>
      <trkpt lat="59.192844863066" lon="17.90148785985">
        <ele>75.6</ele>
        <time>2019-10-16T18:01:58Z</time>
      </trkpt>
      <trkpt lat="59.192833715139" lon="17.901472856249">
        <ele>75.6</ele>
        <time>2019-10-16T18:01:59Z</time>
      </trkpt>
      <trkpt lat="59.192819801185" lon="17.901456343906">
        <ele>75.8</ele>
        <time>2019-10-16T18:02:00Z</time>
      </trkpt>
      <trkpt lat="59.19280429467" lon="17.901441088848">
        <ele>75.8</ele>
        <time>2019-10-16T18:02:01Z</time>
      </trkpt>
      <trkpt lat="59.192792979105" lon="17.901432371672">
        <ele>76</ele>
        <time>2019-10-16T18:02:02Z</time>
      </trkpt>
      <trkpt lat="59.192781328264" lon="17.901416362243">
        <ele>76</ele>
        <time>2019-10-16T18:02:03Z</time>
      </trkpt>
      <trkpt lat="59.192765151197" lon="17.901398508796">
        <ele>76</ele>
        <time>2019-10-16T18:02:04Z</time>
      </trkpt>
      <trkpt lat="59.192749477044" lon="17.9013830861">
        <ele>76</ele>
        <time>2019-10-16T18:02:05Z</time>
      </trkpt>
      <trkpt lat="59.192735227814" lon="17.901364981196">
        <ele>76.2</ele>
        <time>2019-10-16T18:02:06Z</time>
      </trkpt>
      <trkpt lat="59.192722906421" lon="17.901349893776">
        <ele>76.2</ele>
        <time>2019-10-16T18:02:07Z</time>
      </trkpt>
      <trkpt lat="59.192706561716" lon="17.901336315098">
        <ele>76.2</ele>
        <time>2019-10-16T18:02:08Z</time>
      </trkpt>
      <trkpt lat="59.19269113902" lon="17.901322233506">
        <ele>76.2</ele>
        <time>2019-10-16T18:02:09Z</time>
      </trkpt>
      <trkpt lat="59.192670351908" lon="17.90131016357">
        <ele>76.2</ele>
        <time>2019-10-16T18:02:10Z</time>
      </trkpt>
      <trkpt lat="59.19265342047" lon="17.901295998159">
        <ele>76.2</ele>
        <time>2019-10-16T18:02:11Z</time>
      </trkpt>
      <trkpt lat="59.192642775457" lon="17.90128082692">
        <ele>76.2</ele>
        <time>2019-10-16T18:02:12Z</time>
      </trkpt>
      <trkpt lat="59.192640093249" lon="17.901266493871">
        <ele>76.4</ele>
        <time>2019-10-16T18:02:13Z</time>
      </trkpt>
      <trkpt lat="59.192644116561" lon="17.901249730071">
        <ele>76.4</ele>
        <time>2019-10-16T18:02:14Z</time>
      </trkpt>
      <trkpt lat="59.192644535656" lon="17.901232463357">
        <ele>76.4</ele>
        <time>2019-10-16T18:02:15Z</time>
      </trkpt>
      <trkpt lat="59.192641015258" lon="17.901217543575">
        <ele>76.4</ele>
        <time>2019-10-16T18:02:16Z</time>
      </trkpt>
      <trkpt lat="59.192641601991" lon="17.901203210526">
        <ele>76.4</ele>
        <time>2019-10-16T18:02:17Z</time>
      </trkpt>
      <trkpt lat="59.192643948923" lon="17.901185692355">
        <ele>76.4</ele>
        <time>2019-10-16T18:02:18Z</time>
      </trkpt>
      <trkpt lat="59.192651911728" lon="17.901169682926">
        <ele>76.4</ele>
        <time>2019-10-16T18:02:19Z</time>
      </trkpt>
      <trkpt lat="59.192668591709" lon="17.901153924954">
        <ele>76.4</ele>
        <time>2019-10-16T18:02:20Z</time>
      </trkpt>
      <trkpt lat="59.192692144848" lon="17.901133389299">
        <ele>76.4</ele>
        <time>2019-10-16T18:02:21Z</time>
      </trkpt>
      <trkpt lat="59.192713015779" lon="17.901115954947">
        <ele>76.4</ele>
        <time>2019-10-16T18:02:22Z</time>
      </trkpt>
      <trkpt lat="59.192728187018" lon="17.901099526423">
        <ele>76.4</ele>
        <time>2019-10-16T18:02:23Z</time>
      </trkpt>
      <trkpt lat="59.192741178963" lon="17.901082511166">
        <ele>76.6</ele>
        <time>2019-10-16T18:02:24Z</time>
      </trkpt>
      <trkpt lat="59.192752410709" lon="17.901070860325">
        <ele>76.6</ele>
        <time>2019-10-16T18:02:25Z</time>
      </trkpt>
      <trkpt lat="59.192760373514" lon="17.90106205933">
        <ele>76.6</ele>
        <time>2019-10-16T18:02:26Z</time>
      </trkpt>
      <trkpt lat="59.192771269984" lon="17.901053593611">
        <ele>76.6</ele>
        <time>2019-10-16T18:02:27Z</time>
      </trkpt>
      <trkpt lat="59.192781076807" lon="17.901039344381">
        <ele>76.6</ele>
        <time>2019-10-16T18:02:28Z</time>
      </trkpt>
      <trkpt lat="59.192787949965" lon="17.901023418771">
        <ele>76.8</ele>
        <time>2019-10-16T18:02:29Z</time>
      </trkpt>
      <trkpt lat="59.192786357404" lon="17.901012773758">
        <ele>76.6</ele>
        <time>2019-10-16T18:02:30Z</time>
      </trkpt>
      <trkpt lat="59.192787111775" lon="17.901004475677">
        <ele>76.6</ele>
        <time>2019-10-16T18:02:31Z</time>
      </trkpt>
      <trkpt lat="59.192728689932" lon="17.901046049901">
        <ele>77</ele>
        <time>2019-10-16T18:03:21Z</time>
      </trkpt>
      <trkpt lat="59.192715530349" lon="17.901068848669">
        <ele>77</ele>
        <time>2019-10-16T18:03:22Z</time>
      </trkpt>
      <trkpt lat="59.192708154277" lon="17.901101621898">
        <ele>77</ele>
        <time>2019-10-16T18:03:23Z</time>
      </trkpt>
      <trkpt lat="59.192710165933" lon="17.901135987688">
        <ele>76.8</ele>
        <time>2019-10-16T18:03:24Z</time>
      </trkpt>
      <trkpt lat="59.192717039091" lon="17.901164905243">
        <ele>76.8</ele>
        <time>2019-10-16T18:03:25Z</time>
      </trkpt>
      <trkpt lat="59.192727767923" lon="17.901191224409">
        <ele>76.8</ele>
        <time>2019-10-16T18:03:26Z</time>
      </trkpt>
      <trkpt lat="59.192739083488" lon="17.901221063973">
        <ele>76.8</ele>
        <time>2019-10-16T18:03:27Z</time>
      </trkpt>
      <trkpt lat="59.192754506184" lon="17.901251406451">
        <ele>76.8</ele>
        <time>2019-10-16T18:03:28Z</time>
      </trkpt>
      <trkpt lat="59.192768336319" lon="17.901280994558">
        <ele>76.6</ele>
        <time>2019-10-16T18:03:29Z</time>
      </trkpt>
      <trkpt lat="59.192780322436" lon="17.901306475534">
        <ele>76.6</ele>
        <time>2019-10-16T18:03:30Z</time>
      </trkpt>
      <trkpt lat="59.192792476191" lon="17.901328268474">
        <ele>76.4</ele>
        <time>2019-10-16T18:03:31Z</time>
      </trkpt>
      <trkpt lat="59.192804043213" lon="17.901352240708">
        <ele>76.4</ele>
        <time>2019-10-16T18:03:32Z</time>
      </trkpt>
      <trkpt lat="59.192816616063" lon="17.901376883494">
        <ele>76.2</ele>
        <time>2019-10-16T18:03:33Z</time>
      </trkpt>
      <trkpt lat="59.192829775646" lon="17.9013998499">
        <ele>76.2</ele>
        <time>2019-10-16T18:03:34Z</time>
      </trkpt>
      <trkpt lat="59.192841677944" lon="17.901428683636">
        <ele>76.2</ele>
        <time>2019-10-16T18:03:35Z</time>
      </trkpt>
      <trkpt lat="59.192853412604" lon="17.901451482404">
        <ele>76.2</ele>
        <time>2019-10-16T18:03:36Z</time>
      </trkpt>
      <trkpt lat="59.192870092585" lon="17.901472269516">
        <ele>76</ele>
        <time>2019-10-16T18:03:37Z</time>
      </trkpt>
      <trkpt lat="59.192891047335" lon="17.901498672501">
        <ele>76</ele>
        <time>2019-10-16T18:03:38Z</time>
      </trkpt>
      <trkpt lat="59.192916444492" lon="17.901530691359">
        <ele>76</ele>
        <time>2019-10-16T18:03:39Z</time>
      </trkpt>
      <trkpt lat="59.192945864961" lon="17.901571427393">
        <ele>76</ele>
        <time>2019-10-16T18:03:40Z</time>
      </trkpt>
      <trkpt lat="59.192978554371" lon="17.901622892259">
        <ele>75.8</ele>
        <time>2019-10-16T18:03:41Z</time>
      </trkpt>
      <trkpt lat="59.19301300398" lon="17.901669663261">
        <ele>75.8</ele>
        <time>2019-10-16T18:03:42Z</time>
      </trkpt>
      <trkpt lat="59.193047118313" lon="17.90171417115">
        <ele>75.6</ele>
        <time>2019-10-16T18:03:43Z</time>
      </trkpt>
      <trkpt lat="59.193077879886" lon="17.901758511401">
        <ele>75.6</ele>
        <time>2019-10-16T18:03:44Z</time>
      </trkpt>
      <trkpt lat="59.193101935939" lon="17.901787428956">
        <ele>75.4</ele>
        <time>2019-10-16T18:03:45Z</time>
      </trkpt>
      <trkpt lat="59.193120711395" lon="17.901815927416">
        <ele>75.4</ele>
        <time>2019-10-16T18:03:46Z</time>
      </trkpt>
      <trkpt lat="59.193135044444" lon="17.901853729785">
        <ele>75.4</ele>
        <time>2019-10-16T18:03:47Z</time>
      </trkpt>
      <trkpt lat="59.193141582326" lon="17.901912319266">
        <ele>75.4</ele>
        <time>2019-10-16T18:03:48Z</time>
      </trkpt>
      <trkpt lat="59.193141749964" lon="17.901991192945">
        <ele>75.4</ele>
        <time>2019-10-16T18:03:49Z</time>
      </trkpt>
      <trkpt lat="59.193138313385" lon="17.902083729121">
        <ele>75</ele>
        <time>2019-10-16T18:03:50Z</time>
      </trkpt>
      <trkpt lat="59.193134792987" lon="17.902181210618">
        <ele>74.8</ele>
        <time>2019-10-16T18:03:51Z</time>
      </trkpt>
      <trkpt lat="59.193126914001" lon="17.902252875863">
        <ele>74.8</ele>
        <time>2019-10-16T18:03:52Z</time>
      </trkpt>
      <trkpt lat="59.193123393603" lon="17.902304173091">
        <ele>74.6</ele>
        <time>2019-10-16T18:03:53Z</time>
      </trkpt>
      <trkpt lat="59.193122136318" lon="17.902327390954">
        <ele>74.4</ele>
        <time>2019-10-16T18:03:54Z</time>
      </trkpt>
      <trkpt lat="59.193124567069" lon="17.902334850845">
        <ele>74.4</ele>
        <time>2019-10-16T18:03:55Z</time>
      </trkpt>
      <trkpt lat="59.193180390523" lon="17.90239226686">
        <ele>74</ele>
        <time>2019-10-16T18:05:45Z</time>
      </trkpt>
      <trkpt lat="59.193191370812" lon="17.902356811423">
        <ele>74</ele>
        <time>2019-10-16T18:05:46Z</time>
      </trkpt>
      <trkpt lat="59.193200590902" lon="17.902321188348">
        <ele>74</ele>
        <time>2019-10-16T18:05:47Z</time>
      </trkpt>
      <trkpt lat="59.193206206775" lon="17.902275590812">
        <ele>74</ele>
        <time>2019-10-16T18:05:48Z</time>
      </trkpt>
      <trkpt lat="59.193207966974" lon="17.902218090978">
        <ele>74</ele>
        <time>2019-10-16T18:05:49Z</time>
      </trkpt>
      <trkpt lat="59.193209727173" lon="17.9021626028">
        <ele>73.8</ele>
        <time>2019-10-16T18:05:50Z</time>
      </trkpt>
      <trkpt lat="59.193209810992" lon="17.902111640848">
        <ele>73.8</ele>
        <time>2019-10-16T18:05:51Z</time>
      </trkpt>
      <trkpt lat="59.193208050793" lon="17.902064199294">
        <ele>73.8</ele>
        <time>2019-10-16T18:05:52Z</time>
      </trkpt>
      <trkpt lat="59.193206290594" lon="17.902022708889">
        <ele>73.6</ele>
        <time>2019-10-16T18:05:53Z</time>
      </trkpt>
      <trkpt lat="59.19320494949" lon="17.901984152149">
        <ele>73.6</ele>
        <time>2019-10-16T18:05:54Z</time>
      </trkpt>
      <trkpt lat="59.193203021653" lon="17.901944421943">
        <ele>73.6</ele>
        <time>2019-10-16T18:05:55Z</time>
      </trkpt>
      <trkpt lat="59.193198830703" lon="17.901898153855">
        <ele>73.6</ele>
        <time>2019-10-16T18:05:56Z</time>
      </trkpt>
      <trkpt lat="59.193193047192" lon="17.90185079612">
        <ele>73.6</ele>
        <time>2019-10-16T18:05:57Z</time>
      </trkpt>
      <trkpt lat="59.193175696659" lon="17.901801426729">
        <ele>73.6</ele>
        <time>2019-10-16T18:05:58Z</time>
      </trkpt>
      <trkpt lat="59.19315298171" lon="17.901755996831">
        <ele>73.6</ele>
        <time>2019-10-16T18:05:59Z</time>
      </trkpt>
      <trkpt lat="59.193128506562" lon="17.901727414552">
        <ele>73.6</ele>
        <time>2019-10-16T18:06:00Z</time>
      </trkpt>
      <trkpt lat="59.193108054726" lon="17.901709896381">
        <ele>74</ele>
        <time>2019-10-16T18:06:01Z</time>
      </trkpt>
      <trkpt lat="59.193082825207" lon="17.901692629667">
        <ele>74.4</ele>
        <time>2019-10-16T18:06:02Z</time>
      </trkpt>
      <trkpt lat="59.193052985643" lon="17.90168064355">
        <ele>74.8</ele>
        <time>2019-10-16T18:06:03Z</time>
      </trkpt>
      <trkpt lat="59.19302641502" lon="17.901668657433">
        <ele>75</ele>
        <time>2019-10-16T18:06:04Z</time>
      </trkpt>
      <trkpt lat="59.193002526605" lon="17.90165465966">
        <ele>75</ele>
        <time>2019-10-16T18:06:05Z</time>
      </trkpt>
      <trkpt lat="59.192976291258" lon="17.901632196168">
        <ele>75.2</ele>
        <time>2019-10-16T18:06:06Z</time>
      </trkpt>
      <trkpt lat="59.192946954608" lon="17.901605122631">
        <ele>75.2</ele>
        <time>2019-10-16T18:06:07Z</time>
      </trkpt>
      <trkpt lat="59.192921808908" lon="17.901579138741">
        <ele>75.2</ele>
        <time>2019-10-16T18:06:08Z</time>
      </trkpt>
      <trkpt lat="59.192896244113" lon="17.901558519267">
        <ele>75.2</ele>
        <time>2019-10-16T18:06:09Z</time>
      </trkpt>
      <trkpt lat="59.192870008766" lon="17.901545275865">
        <ele>75.4</ele>
        <time>2019-10-16T18:06:10Z</time>
      </trkpt>
      <trkpt lat="59.19284452779" lon="17.901534211757">
        <ele>75.4</ele>
        <time>2019-10-16T18:06:11Z</time>
      </trkpt>
      <trkpt lat="59.192817454253" lon="17.901519124337">
        <ele>75.4</ele>
        <time>2019-10-16T18:06:12Z</time>
      </trkpt>
      <trkpt lat="59.192793230562" lon="17.901499091596">
        <ele>75.6</ele>
        <time>2019-10-16T18:06:13Z</time>
      </trkpt>
      <trkpt lat="59.192762971903" lon="17.901470090222">
        <ele>75.6</ele>
        <time>2019-10-16T18:06:14Z</time>
      </trkpt>
      <trkpt lat="59.192730785407" lon="17.901434299509">
        <ele>75.6</ele>
        <time>2019-10-16T18:06:15Z</time>
      </trkpt>
      <trkpt lat="59.192696587255" lon="17.901394401665">
        <ele>75.6</ele>
        <time>2019-10-16T18:06:16Z</time>
      </trkpt>
      <trkpt lat="59.192660628904" lon="17.901359868237">
        <ele>75.8</ele>
        <time>2019-10-16T18:06:17Z</time>
      </trkpt>
      <trkpt lat="59.192621736888" lon="17.901329609578">
        <ele>75.8</ele>
        <time>2019-10-16T18:06:18Z</time>
      </trkpt>
      <trkpt lat="59.192590807677" lon="17.901312510502">
        <ele>75.8</ele>
        <time>2019-10-16T18:06:19Z</time>
      </trkpt>
      <trkpt lat="59.192557280077" lon="17.901312342864">
        <ele>75.8</ele>
        <time>2019-10-16T18:06:20Z</time>
      </trkpt>
      <trkpt lat="59.192523752477" lon="17.901325837723">
        <ele>75.8</ele>
        <time>2019-10-16T18:06:21Z</time>
      </trkpt>
      <trkpt lat="59.19248913523" lon="17.90135123488">
        <ele>76</ele>
        <time>2019-10-16T18:06:22Z</time>
      </trkpt>
      <trkpt lat="59.192455942906" lon="17.901376799675">
        <ele>76</ele>
        <time>2019-10-16T18:06:23Z</time>
      </trkpt>
      <trkpt lat="59.192419649279" lon="17.901407645067">
        <ele>76</ele>
        <time>2019-10-16T18:06:24Z</time>
      </trkpt>
      <trkpt lat="59.192386959869" lon="17.901435556794">
        <ele>76</ele>
        <time>2019-10-16T18:06:25Z</time>
      </trkpt>
      <trkpt lat="59.192356198296" lon="17.901460367218">
        <ele>76</ele>
        <time>2019-10-16T18:06:26Z</time>
      </trkpt>
      <trkpt lat="59.192319317936" lon="17.901493308085">
        <ele>76</ele>
        <time>2019-10-16T18:06:27Z</time>
      </trkpt>
      <trkpt lat="59.192282269938" lon="17.901525829857">
        <ele>76</ele>
        <time>2019-10-16T18:06:28Z</time>
      </trkpt>
      <trkpt lat="59.192239941343" lon="17.901560363285">
        <ele>76</ele>
        <time>2019-10-16T18:06:29Z</time>
      </trkpt>
      <trkpt lat="59.192202558069" lon="17.901588526469">
        <ele>75.8</ele>
        <time>2019-10-16T18:06:30Z</time>
      </trkpt>
      <trkpt lat="59.192170790668" lon="17.901615767644">
        <ele>75.8</ele>
        <time>2019-10-16T18:06:31Z</time>
      </trkpt>
      <trkpt lat="59.192131814833" lon="17.90164879233">
        <ele>75.8</ele>
        <time>2019-10-16T18:06:32Z</time>
      </trkpt>
      <trkpt lat="59.192094096283" lon="17.901680978826">
        <ele>75.8</ele>
        <time>2019-10-16T18:06:33Z</time>
      </trkpt>
      <trkpt lat="59.192052354421" lon="17.901713416779">
        <ele>75.8</ele>
        <time>2019-10-16T18:06:34Z</time>
      </trkpt>
      <trkpt lat="59.192012875672" lon="17.901744429809">
        <ele>75.6</ele>
        <time>2019-10-16T18:06:35Z</time>
      </trkpt>
      <trkpt lat="59.191972307276" lon="17.901786171671">
        <ele>75.6</ele>
        <time>2019-10-16T18:06:36Z</time>
      </trkpt>
      <trkpt lat="59.191926123007" lon="17.901829506094">
        <ele>75.4</ele>
        <time>2019-10-16T18:06:37Z</time>
      </trkpt>
      <trkpt lat="59.191881782756" lon="17.90186755992">
        <ele>75.4</ele>
        <time>2019-10-16T18:06:38Z</time>
      </trkpt>
      <trkpt lat="59.19184037617" lon="17.901900416968">
        <ele>75.4</ele>
        <time>2019-10-16T18:06:39Z</time>
      </trkpt>
      <trkpt lat="59.191799807774" lon="17.901936962052">
        <ele>75.2</ele>
        <time>2019-10-16T18:06:40Z</time>
      </trkpt>
      <trkpt lat="59.191758401188" lon="17.901972417489">
        <ele>75.2</ele>
        <time>2019-10-16T18:06:41Z</time>
      </trkpt>
      <trkpt lat="59.191708025969" lon="17.902018182663">
        <ele>75.2</ele>
        <time>2019-10-16T18:06:42Z</time>
      </trkpt>
      <trkpt lat="59.191694782567" lon="17.902032096617">
        <ele>75.2</ele>
        <time>2019-10-16T18:06:43Z</time>
      </trkpt>
      <trkpt lat="59.191649939402" lon="17.902076436868">
        <ele>75</ele>
        <time>2019-10-16T18:06:44Z</time>
      </trkpt>
      <trkpt lat="59.191609706282" lon="17.902108455726">
        <ele>75</ele>
        <time>2019-10-16T18:06:45Z</time>
      </trkpt>
      <trkpt lat="59.19156544985" lon="17.902147180104">
        <ele>75</ele>
        <time>2019-10-16T18:06:46Z</time>
      </trkpt>
      <trkpt lat="59.191528150395" lon="17.902177522582">
        <ele>75</ele>
        <time>2019-10-16T18:06:47Z</time>
      </trkpt>
      <trkpt lat="59.191491605311" lon="17.902205099033">
        <ele>75</ele>
        <time>2019-10-16T18:06:48Z</time>
      </trkpt>
      <trkpt lat="59.191449444354" lon="17.902236028244">
        <ele>75</ele>
        <time>2019-10-16T18:06:49Z</time>
      </trkpt>
      <trkpt lat="59.191417006401" lon="17.902268466197">
        <ele>75</ele>
        <time>2019-10-16T18:06:50Z</time>
      </trkpt>
      <trkpt lat="59.191383730258" lon="17.902301239426">
        <ele>75</ele>
        <time>2019-10-16T18:06:51Z</time>
      </trkpt>
      <trkpt lat="59.191349699744" lon="17.902329989343">
        <ele>75</ele>
        <time>2019-10-16T18:06:52Z</time>
      </trkpt>
      <trkpt lat="59.191314160488" lon="17.90235706288">
        <ele>75</ele>
        <time>2019-10-16T18:06:53Z</time>
      </trkpt>
      <trkpt lat="59.191277866861" lon="17.902391344851">
        <ele>75</ele>
        <time>2019-10-16T18:06:54Z</time>
      </trkpt>
      <trkpt lat="59.191235370628" lon="17.902434846912">
        <ele>75</ele>
        <time>2019-10-16T18:06:55Z</time>
      </trkpt>
      <trkpt lat="59.191197652078" lon="17.902471559634">
        <ele>75</ele>
        <time>2019-10-16T18:06:56Z</time>
      </trkpt>
      <trkpt lat="59.191160268804" lon="17.902508356175">
        <ele>75</ele>
        <time>2019-10-16T18:06:57Z</time>
      </trkpt>
      <trkpt lat="59.191115509458" lon="17.902550098037">
        <ele>75</ele>
        <time>2019-10-16T18:06:58Z</time>
      </trkpt>
      <trkpt lat="59.19108516698" lon="17.902580189058">
        <ele>75</ele>
        <time>2019-10-16T18:06:59Z</time>
      </trkpt>
      <trkpt lat="59.191048789534" lon="17.902615476857">
        <ele>75</ele>
        <time>2019-10-16T18:07:00Z</time>
      </trkpt>
      <trkpt lat="59.191009394604" lon="17.902653530683">
        <ele>75</ele>
        <time>2019-10-16T18:07:01Z</time>
      </trkpt>
      <trkpt lat="59.19096530581" lon="17.902698960581">
        <ele>75</ele>
        <time>2019-10-16T18:07:02Z</time>
      </trkpt>
      <trkpt lat="59.190920378826" lon="17.902743300832">
        <ele>75</ele>
        <time>2019-10-16T18:07:03Z</time>
      </trkpt>
      <trkpt lat="59.190881654448" lon="17.902778169536">
        <ele>75</ele>
        <time>2019-10-16T18:07:04Z</time>
      </trkpt>
      <trkpt lat="59.190840247862" lon="17.902809517842">
        <ele>75</ele>
        <time>2019-10-16T18:07:05Z</time>
      </trkpt>
      <trkpt lat="59.190793141584" lon="17.902833657714">
        <ele>75</ele>
        <time>2019-10-16T18:07:06Z</time>
      </trkpt>
      <trkpt lat="59.190722901262" lon="17.902858216681">
        <ele>75.2</ele>
        <time>2019-10-16T18:07:07Z</time>
      </trkpt>
      <trkpt lat="59.190670598206" lon="17.9028583005">
        <ele>75.2</ele>
        <time>2019-10-16T18:07:08Z</time>
      </trkpt>
      <trkpt lat="59.190621480272" lon="17.902839441225">
        <ele>75.2</ele>
        <time>2019-10-16T18:07:09Z</time>
      </trkpt>
      <trkpt lat="59.190574793089" lon="17.902807003272">
        <ele>75.4</ele>
        <time>2019-10-16T18:07:10Z</time>
      </trkpt>
      <trkpt lat="59.190540427299" lon="17.902763249754">
        <ele>75.4</ele>
        <time>2019-10-16T18:07:11Z</time>
      </trkpt>
      <trkpt lat="59.190501283826" lon="17.902732655819">
        <ele>75.4</ele>
        <time>2019-10-16T18:07:12Z</time>
      </trkpt>
      <trkpt lat="59.190469516425" lon="17.902694099079">
        <ele>75.6</ele>
        <time>2019-10-16T18:07:13Z</time>
      </trkpt>
      <trkpt lat="59.190435318273" lon="17.902657805452">
        <ele>75.8</ele>
        <time>2019-10-16T18:07:14Z</time>
      </trkpt>
      <trkpt lat="59.190403467053" lon="17.90261354902">
        <ele>75.8</ele>
        <time>2019-10-16T18:07:15Z</time>
      </trkpt>
      <trkpt lat="59.190366167598" lon="17.902578177402">
        <ele>76</ele>
        <time>2019-10-16T18:07:16Z</time>
      </trkpt>
      <trkpt lat="59.19034253064" lon="17.902530652029">
        <ele>76.2</ele>
        <time>2019-10-16T18:07:17Z</time>
      </trkpt>
      <trkpt lat="59.190315205646" lon="17.902490083633">
        <ele>76.2</ele>
        <time>2019-10-16T18:07:18Z</time>
      </trkpt>
      <trkpt lat="59.190298693303" lon="17.902444486097">
        <ele>76.4</ele>
        <time>2019-10-16T18:07:19Z</time>
      </trkpt>
      <trkpt lat="59.190275391621" lon="17.902405761719">
        <ele>76.4</ele>
        <time>2019-10-16T18:07:20Z</time>
      </trkpt>
      <trkpt lat="59.190253347224" lon="17.902364438952">
        <ele>76.4</ele>
        <time>2019-10-16T18:07:21Z</time>
      </trkpt>
      <trkpt lat="59.19023775689" lon="17.90231515338">
        <ele>76.6</ele>
        <time>2019-10-16T18:07:22Z</time>
      </trkpt>
      <trkpt lat="59.190220825452" lon="17.902271148405">
        <ele>76.6</ele>
        <time>2019-10-16T18:07:23Z</time>
      </trkpt>
      <trkpt lat="59.190203474919" lon="17.902218090978">
        <ele>76.6</ele>
        <time>2019-10-16T18:07:24Z</time>
      </trkpt>
      <trkpt lat="59.190180089418" lon="17.902164865913">
        <ele>76.6</ele>
        <time>2019-10-16T18:07:25Z</time>
      </trkpt>
      <trkpt lat="59.190159302306" lon="17.902109964468">
        <ele>76.6</ele>
        <time>2019-10-16T18:07:26Z</time>
      </trkpt>
      <trkpt lat="59.190134910977" lon="17.902049363331">
        <ele>76.8</ele>
        <time>2019-10-16T18:07:27Z</time>
      </trkpt>
      <trkpt lat="59.190111441657" lon="17.901994713343">
        <ele>76.8</ele>
        <time>2019-10-16T18:07:28Z</time>
      </trkpt>
      <trkpt lat="59.190090403088" lon="17.901944841038">
        <ele>76.8</ele>
        <time>2019-10-16T18:07:29Z</time>
      </trkpt>
      <trkpt lat="59.190070454166" lon="17.901891699792">
        <ele>76.8</ele>
        <time>2019-10-16T18:07:30Z</time>
      </trkpt>
      <trkpt lat="59.190052349262" lon="17.901840318745">
        <ele>76.8</ele>
        <time>2019-10-16T18:07:31Z</time>
      </trkpt>
      <trkpt lat="59.190027455019" lon="17.90179966653">
        <ele>76.8</ele>
        <time>2019-10-16T18:07:32Z</time>
      </trkpt>
      <trkpt lat="59.189999208016" lon="17.90175775703">
        <ele>76.8</ele>
        <time>2019-10-16T18:07:33Z</time>
      </trkpt>
      <trkpt lat="59.189975235782" lon="17.901699838101">
        <ele>76.8</ele>
        <time>2019-10-16T18:07:34Z</time>
      </trkpt>
      <trkpt lat="59.189952353195" lon="17.901643427914">
        <ele>76.8</ele>
        <time>2019-10-16T18:07:35Z</time>
      </trkpt>
      <trkpt lat="59.189926369305" lon="17.901594812894">
        <ele>76.8</ele>
        <time>2019-10-16T18:07:36Z</time>
      </trkpt>
      <trkpt lat="59.189896697379" lon="17.901544353856">
        <ele>76.8</ele>
        <time>2019-10-16T18:07:37Z</time>
      </trkpt>
      <trkpt lat="59.189868198919" lon="17.901502276718">
        <ele>76.8</ele>
        <time>2019-10-16T18:07:38Z</time>
      </trkpt>
      <trkpt lat="59.189841544477" lon="17.90146522872">
        <ele>76.8</ele>
        <time>2019-10-16T18:07:39Z</time>
      </trkpt>
      <trkpt lat="59.189812291646" lon="17.901419463546">
        <ele>76.8</ele>
        <time>2019-10-16T18:07:40Z</time>
      </trkpt>
      <trkpt lat="59.189785385747" lon="17.901374452743">
        <ele>76.8</ele>
        <time>2019-10-16T18:07:41Z</time>
      </trkpt>
      <trkpt lat="59.189760240047" lon="17.901331369777">
        <ele>76.8</ele>
        <time>2019-10-16T18:07:42Z</time>
      </trkpt>
      <trkpt lat="59.189742135143" lon="17.901281329834">
        <ele>76.8</ele>
        <time>2019-10-16T18:07:43Z</time>
      </trkpt>
      <trkpt lat="59.189730065207" lon="17.901229445873">
        <ele>76.8</ele>
        <time>2019-10-16T18:07:44Z</time>
      </trkpt>
      <trkpt lat="59.189724281696" lon="17.901185189441">
        <ele>76.8</ele>
        <time>2019-10-16T18:07:45Z</time>
      </trkpt>
      <trkpt lat="59.189724952248" lon="17.901157193895">
        <ele>76.8</ele>
        <time>2019-10-16T18:07:46Z</time>
      </trkpt>
      <trkpt lat="59.189718582004" lon="17.901119642983">
        <ele>76.8</ele>
        <time>2019-10-16T18:07:48Z</time>
      </trkpt>
      <trkpt lat="59.189709278095" lon="17.901097850043">
        <ele>76.8</ele>
        <time>2019-10-16T18:07:49Z</time>
      </trkpt>
      <trkpt lat="59.189723778782" lon="17.900993076293">
        <ele>77.4</ele>
        <time>2019-10-16T18:08:02Z</time>
      </trkpt>
      <trkpt lat="59.189738698564" lon="17.900973965561">
        <ele>77.4</ele>
        <time>2019-10-16T18:08:03Z</time>
      </trkpt>
      <trkpt lat="59.189754372717" lon="17.900950747698">
        <ele>77.4</ele>
        <time>2019-10-16T18:08:04Z</time>
      </trkpt>
      <trkpt lat="59.189769543956" lon="17.900913532062">
        <ele>77.4</ele>
        <time>2019-10-16T18:08:05Z</time>
      </trkpt>
      <trkpt lat="59.189785804842" lon="17.900875394417">
        <ele>77.4</ele>
        <time>2019-10-16T18:08:06Z</time>
      </trkpt>
      <trkpt lat="59.189803323013" lon="17.90084580631">
        <ele>77.4</ele>
        <time>2019-10-16T18:08:07Z</time>
      </trkpt>
      <trkpt lat="59.189820673546" lon="17.900815966746">
        <ele>77.4</ele>
        <time>2019-10-16T18:08:08Z</time>
      </trkpt>
      <trkpt lat="59.189840538649" lon="17.900792245969">
        <ele>77.4</ele>
        <time>2019-10-16T18:08:09Z</time>
      </trkpt>
      <trkpt lat="59.189855709888" lon="17.900773470513">
        <ele>77.4</ele>
        <time>2019-10-16T18:08:10Z</time>
      </trkpt>
      <trkpt lat="59.189867109272" lon="17.90074857627">
        <ele>77.4</ele>
        <time>2019-10-16T18:08:11Z</time>
      </trkpt>
      <trkpt lat="59.189878927751" lon="17.900718233792">
        <ele>77.4</ele>
        <time>2019-10-16T18:08:12Z</time>
      </trkpt>
      <trkpt lat="59.189890494773" lon="17.900688394228">
        <ele>77.4</ele>
        <time>2019-10-16T18:08:13Z</time>
      </trkpt>
      <trkpt lat="59.189899463406" lon="17.900657381198">
        <ele>77.4</ele>
        <time>2019-10-16T18:08:14Z</time>
      </trkpt>
      <trkpt lat="59.189909856962" lon="17.900618405363">
        <ele>77.4</ele>
        <time>2019-10-16T18:08:15Z</time>
      </trkpt>
      <trkpt lat="59.189926369305" lon="17.900582195555">
        <ele>77.4</ele>
        <time>2019-10-16T18:08:16Z</time>
      </trkpt>
      <trkpt lat="59.189944725666" lon="17.900548416498">
        <ele>77.4</ele>
        <time>2019-10-16T18:08:17Z</time>
      </trkpt>
      <trkpt lat="59.189962160018" lon="17.900506926093">
        <ele>77.4</ele>
        <time>2019-10-16T18:08:18Z</time>
      </trkpt>
      <trkpt lat="59.189978337085" lon="17.900460658005">
        <ele>77.4</ele>
        <time>2019-10-16T18:08:19Z</time>
      </trkpt>
      <trkpt lat="59.189996441989" lon="17.900429393518">
        <ele>77.4</ele>
        <time>2019-10-16T18:08:20Z</time>
      </trkpt>
      <trkpt lat="59.190014965988" lon="17.900392680796">
        <ele>77.4</ele>
        <time>2019-10-16T18:08:21Z</time>
      </trkpt>
      <trkpt lat="59.190044386457" lon="17.900355884255">
        <ele>77.4</ele>
        <time>2019-10-16T18:08:22Z</time>
      </trkpt>
      <trkpt lat="59.190065676483" lon="17.900322608112">
        <ele>77.4</ele>
        <time>2019-10-16T18:08:23Z</time>
      </trkpt>
      <trkpt lat="59.190086715052" lon="17.900289415788">
        <ele>77.4</ele>
        <time>2019-10-16T18:08:24Z</time>
      </trkpt>
      <trkpt lat="59.190115045874" lon="17.900252032514">
        <ele>77.4</ele>
        <time>2019-10-16T18:08:25Z</time>
      </trkpt>
      <trkpt lat="59.190139353384" lon="17.900221606217">
        <ele>77.4</ele>
        <time>2019-10-16T18:08:26Z</time>
      </trkpt>
      <trkpt lat="59.190163493256" lon="17.900192521024">
        <ele>77.6</ele>
        <time>2019-10-16T18:08:27Z</time>
      </trkpt>
      <trkpt lat="59.19019081825" lon="17.900160921261">
        <ele>77.6</ele>
        <time>2019-10-16T18:08:28Z</time>
      </trkpt>
      <trkpt lat="59.190217137416" lon="17.900128483308">
        <ele>77.6</ele>
        <time>2019-10-16T18:08:29Z</time>
      </trkpt>
      <trkpt lat="59.190241025831" lon="17.900110881318">
        <ele>77.6</ele>
        <time>2019-10-16T18:08:30Z</time>
      </trkpt>
      <trkpt lat="59.190259633649" lon="17.900084226876">
        <ele>77.6</ele>
        <time>2019-10-16T18:08:31Z</time>
      </trkpt>
      <trkpt lat="59.190278157648" lon="17.900052375656">
        <ele>77.6</ele>
        <time>2019-10-16T18:08:32Z</time>
      </trkpt>
      <trkpt lat="59.190301710787" lon="17.900017339314">
        <ele>77.6</ele>
        <time>2019-10-16T18:08:33Z</time>
      </trkpt>
      <trkpt lat="59.190320234786" lon="17.899986242465">
        <ele>77.6</ele>
        <time>2019-10-16T18:08:34Z</time>
      </trkpt>
      <trkpt lat="59.190332137084" lon="17.899960510032">
        <ele>77.8</ele>
        <time>2019-10-16T18:08:35Z</time>
      </trkpt>
      <trkpt lat="59.190348649427" lon="17.899935699608">
        <ele>77.8</ele>
        <time>2019-10-16T18:08:36Z</time>
      </trkpt>
      <trkpt lat="59.19036851453" lon="17.899906865872">
        <ele>78</ele>
        <time>2019-10-16T18:08:37Z</time>
      </trkpt>
      <trkpt lat="59.19039114566" lon="17.899881552534">
        <ele>78</ele>
        <time>2019-10-16T18:08:38Z</time>
      </trkpt>
      <trkpt lat="59.190403969967" lon="17.89985674211">
        <ele>78</ele>
        <time>2019-10-16T18:08:39Z</time>
      </trkpt>
      <trkpt lat="59.190423499794" lon="17.899837379921">
        <ele>78.2</ele>
        <time>2019-10-16T18:08:40Z</time>
      </trkpt>
      <trkpt lat="59.19044730439" lon="17.899819107379">
        <ele>78.2</ele>
        <time>2019-10-16T18:08:41Z</time>
      </trkpt>
      <trkpt lat="59.190473707375" lon="17.899791447109">
        <ele>78.2</ele>
        <time>2019-10-16T18:08:42Z</time>
      </trkpt>
      <trkpt lat="59.19050346312" lon="17.899754902025">
        <ele>78.2</ele>
        <time>2019-10-16T18:08:43Z</time>
      </trkpt>
      <trkpt lat="59.190532715951" lon="17.899712657249">
        <ele>78.2</ele>
        <time>2019-10-16T18:08:44Z</time>
      </trkpt>
      <trkpt lat="59.190562723153" lon="17.899682566228">
        <ele>78.2</ele>
        <time>2019-10-16T18:08:45Z</time>
      </trkpt>
      <trkpt lat="59.190587617396" lon="17.899654151587">
        <ele>78.2</ele>
        <time>2019-10-16T18:08:46Z</time>
      </trkpt>
      <trkpt lat="59.190614607114" lon="17.899616265399">
        <ele>78.2</ele>
        <time>2019-10-16T18:08:47Z</time>
      </trkpt>
      <trkpt lat="59.190642686479" lon="17.899579971772">
        <ele>78.2</ele>
        <time>2019-10-16T18:08:48Z</time>
      </trkpt>
      <trkpt lat="59.190678058097" lon="17.899555915719">
        <ele>78.2</ele>
        <time>2019-10-16T18:08:49Z</time>
      </trkpt>
      <trkpt lat="59.190720721968" lon="17.899543007593">
        <ele>78.2</ele>
        <time>2019-10-16T18:08:50Z</time>
      </trkpt>
      <trkpt lat="59.190753746654" lon="17.899516520789">
        <ele>78.4</ele>
        <time>2019-10-16T18:08:51Z</time>
      </trkpt>
      <trkpt lat="59.190770594273" lon="17.899495314582">
        <ele>78.4</ele>
        <time>2019-10-16T18:08:52Z</time>
      </trkpt>
      <trkpt lat="59.190789369729" lon="17.899472096719">
        <ele>78.4</ele>
        <time>2019-10-16T18:08:53Z</time>
      </trkpt>
      <trkpt lat="59.190807306995" lon="17.899444017354">
        <ele>78.4</ele>
        <time>2019-10-16T18:08:54Z</time>
      </trkpt>
      <trkpt lat="59.190832536514" lon="17.899424152251">
        <ele>78.4</ele>
        <time>2019-10-16T18:08:55Z</time>
      </trkpt>
      <trkpt lat="59.190853072169" lon="17.899407639908">
        <ele>78.4</ele>
        <time>2019-10-16T18:08:56Z</time>
      </trkpt>
      <trkpt lat="59.190859190956" lon="17.899399425646">
        <ele>78.4</ele>
        <time>2019-10-16T18:08:57Z</time>
      </trkpt>
      <trkpt lat="59.190697671743" lon="17.899509815269">
        <ele>78.6</ele>
        <time>2019-10-16T18:15:12Z</time>
      </trkpt>
      <trkpt lat="59.190692139689" lon="17.899493219107">
        <ele>78.6</ele>
        <time>2019-10-16T18:15:13Z</time>
      </trkpt>
      <trkpt lat="59.190687194368" lon="17.899477125859">
        <ele>78.6</ele>
        <time>2019-10-16T18:15:14Z</time>
      </trkpt>
      <trkpt lat="59.190680069753" lon="17.89946698376">
        <ele>78.6</ele>
        <time>2019-10-16T18:15:15Z</time>
      </trkpt>
      <trkpt lat="59.190675794984" lon="17.899453153625">
        <ele>78.6</ele>
        <time>2019-10-16T18:15:16Z</time>
      </trkpt>
      <trkpt lat="59.190672442224" lon="17.899434210531">
        <ele>78.4</ele>
        <time>2019-10-16T18:15:17Z</time>
      </trkpt>
      <trkpt lat="59.190667329265" lon="17.899417698188">
        <ele>78.4</ele>
        <time>2019-10-16T18:15:18Z</time>
      </trkpt>
      <trkpt lat="59.190661545754" lon="17.899398000723">
        <ele>78.4</ele>
        <time>2019-10-16T18:15:19Z</time>
      </trkpt>
      <trkpt lat="59.190658444451" lon="17.899373274118">
        <ele>78.4</ele>
        <time>2019-10-16T18:15:20Z</time>
      </trkpt>
      <trkpt lat="59.190661378116" lon="17.899359024888">
        <ele>78.4</ele>
        <time>2019-10-16T18:15:21Z</time>
      </trkpt>
      <trkpt lat="59.190660707564" lon="17.899337734862">
        <ele>78.4</ele>
        <time>2019-10-16T18:15:22Z</time>
      </trkpt>
      <trkpt lat="59.190671352577" lon="17.89931108042">
        <ele>78.4</ele>
        <time>2019-10-16T18:15:23Z</time>
      </trkpt>
      <trkpt lat="59.190687362006" lon="17.899291634412">
        <ele>78.4</ele>
        <time>2019-10-16T18:15:24Z</time>
      </trkpt>
      <trkpt lat="59.190697504105" lon="17.899263135952">
        <ele>78.4</ele>
        <time>2019-10-16T18:15:25Z</time>
      </trkpt>
      <trkpt lat="59.190704377263" lon="17.899229440714">
        <ele>78.4</ele>
        <time>2019-10-16T18:15:26Z</time>
      </trkpt>
      <trkpt lat="59.190709993136" lon="17.899204714109">
        <ele>78.4</ele>
        <time>2019-10-16T18:15:27Z</time>
      </trkpt>
      <trkpt lat="59.190718123579" lon="17.899178562581">
        <ele>78.4</ele>
        <time>2019-10-16T18:15:28Z</time>
      </trkpt>
      <trkpt lat="59.190729522963" lon="17.899162804609">
        <ele>78.4</ele>
        <time>2019-10-16T18:15:29Z</time>
      </trkpt>
      <trkpt lat="59.190740754709" lon="17.899148890655">
        <ele>78.4</ele>
        <time>2019-10-16T18:15:30Z</time>
      </trkpt>
      <trkpt lat="59.190755925948" lon="17.899135228158">
        <ele>78.4</ele>
        <time>2019-10-16T18:15:31Z</time>
      </trkpt>
      <trkpt lat="59.190764643124" lon="17.899117709987">
        <ele>78.4</ele>
        <time>2019-10-16T18:15:32Z</time>
      </trkpt>
      <trkpt lat="59.190771851558" lon="17.899102622567">
        <ele>78.4</ele>
        <time>2019-10-16T18:15:33Z</time>
      </trkpt>
      <trkpt lat="59.190779982001" lon="17.899090217355">
        <ele>78.4</ele>
        <time>2019-10-16T18:15:34Z</time>
      </trkpt>
      <trkpt lat="59.190793225403" lon="17.89908560731">
        <ele>78.4</ele>
        <time>2019-10-16T18:15:35Z</time>
      </trkpt>
      <trkpt lat="59.190809486289" lon="17.899089127708">
        <ele>78.4</ele>
        <time>2019-10-16T18:15:36Z</time>
      </trkpt>
      <trkpt lat="59.190827675012" lon="17.8990864455">
        <ele>78.4</ele>
        <time>2019-10-16T18:15:37Z</time>
      </trkpt>
      <trkpt lat="59.190844103536" lon="17.89908309274">
        <ele>78.4</ele>
        <time>2019-10-16T18:15:38Z</time>
      </trkpt>
      <trkpt lat="59.190847623934" lon="17.899094073029">
        <ele>78.4</ele>
        <time>2019-10-16T18:15:39Z</time>
      </trkpt>
      <trkpt lat="59.190849719409" lon="17.899111842657">
        <ele>78.4</ele>
        <time>2019-10-16T18:15:40Z</time>
      </trkpt>
      <trkpt lat="59.19085047378" lon="17.899130534294">
        <ele>78.4</ele>
        <time>2019-10-16T18:15:41Z</time>
      </trkpt>
      <trkpt lat="59.190850809056" lon="17.899143777696">
        <ele>78.4</ele>
        <time>2019-10-16T18:15:42Z</time>
      </trkpt>
      <trkpt lat="59.190847791572" lon="17.89915769165">
        <ele>78.4</ele>
        <time>2019-10-16T18:15:43Z</time>
      </trkpt>
      <trkpt lat="59.190846953382" lon="17.899179903685">
        <ele>78.4</ele>
        <time>2019-10-16T18:15:44Z</time>
      </trkpt>
      <trkpt lat="59.190849467952" lon="17.899189794327">
        <ele>78.6</ele>
        <time>2019-10-16T18:15:45Z</time>
      </trkpt>
      <trkpt lat="59.190846953382" lon="17.899203121548">
        <ele>78.4</ele>
        <time>2019-10-16T18:15:46Z</time>
      </trkpt>
      <trkpt lat="59.190841002233" lon="17.899210162344">
        <ele>78.4</ele>
        <time>2019-10-16T18:15:47Z</time>
      </trkpt>
      <trkpt lat="59.190833626161" lon="17.899206139032">
        <ele>78.4</ele>
        <time>2019-10-16T18:15:48Z</time>
      </trkpt>
      <trkpt lat="59.190827758831" lon="17.899208402145">
        <ele>78.4</ele>
        <time>2019-10-16T18:15:49Z</time>
      </trkpt>
      <trkpt lat="59.190823316424" lon="17.899224327755">
        <ele>78.4</ele>
        <time>2019-10-16T18:15:50Z</time>
      </trkpt>
      <trkpt lat="59.190823064967" lon="17.899244695772">
        <ele>78.4</ele>
        <time>2019-10-16T18:15:51Z</time>
      </trkpt>
      <trkpt lat="59.190820969492" lon="17.899273697146">
        <ele>78.4</ele>
        <time>2019-10-16T18:15:52Z</time>
      </trkpt>
      <trkpt lat="59.190820131302" lon="17.899290796222">
        <ele>78.4</ele>
        <time>2019-10-16T18:15:53Z</time>
      </trkpt>
      <trkpt lat="59.190823316424" lon="17.899317953578">
        <ele>78.4</ele>
        <time>2019-10-16T18:15:54Z</time>
      </trkpt>
      <trkpt lat="59.190821053311" lon="17.899344021287">
        <ele>78.4</ele>
        <time>2019-10-16T18:15:55Z</time>
      </trkpt>
      <trkpt lat="59.190824825166" lon="17.899346368219">
        <ele>78.4</ele>
        <time>2019-10-16T18:15:56Z</time>
      </trkpt>
      <trkpt lat="59.190826333908" lon="17.899337986319">
        <ele>78.4</ele>
        <time>2019-10-16T18:15:57Z</time>
      </trkpt>
      <trkpt lat="59.190699180485" lon="17.899349804798">
        <ele>78.4</ele>
        <time>2019-10-16T18:16:34Z</time>
      </trkpt>
      <trkpt lat="59.190703539073" lon="17.899329352962">
        <ele>78.4</ele>
        <time>2019-10-16T18:16:35Z</time>
      </trkpt>
      <trkpt lat="59.190707059471" lon="17.899305548366">
        <ele>78.4</ele>
        <time>2019-10-16T18:16:36Z</time>
      </trkpt>
      <trkpt lat="59.190718542674" lon="17.899279815933">
        <ele>78.4</ele>
        <time>2019-10-16T18:16:37Z</time>
      </trkpt>
      <trkpt lat="59.190723487995" lon="17.899252574758">
        <ele>78.4</ele>
        <time>2019-10-16T18:16:38Z</time>
      </trkpt>
      <trkpt lat="59.190731869895" lon="17.89922223228">
        <ele>78.4</ele>
        <time>2019-10-16T18:16:39Z</time>
      </trkpt>
      <trkpt lat="59.190736731397" lon="17.899193650001">
        <ele>78.4</ele>
        <time>2019-10-16T18:16:40Z</time>
      </trkpt>
      <trkpt lat="59.190747963143" lon="17.899173365803">
        <ele>78.4</ele>
        <time>2019-10-16T18:16:41Z</time>
      </trkpt>
      <trkpt lat="59.19076916935" lon="17.899151405225">
        <ele>78.4</ele>
        <time>2019-10-16T18:16:42Z</time>
      </trkpt>
      <trkpt lat="59.190782496571" lon="17.899132294493">
        <ele>78.4</ele>
        <time>2019-10-16T18:16:43Z</time>
      </trkpt>
      <trkpt lat="59.190786938978" lon="17.899111255924">
        <ele>78.4</ele>
        <time>2019-10-16T18:16:44Z</time>
      </trkpt>
      <trkpt lat="59.190799428009" lon="17.899099605083">
        <ele>78.4</ele>
        <time>2019-10-16T18:16:45Z</time>
      </trkpt>
      <trkpt lat="59.19081024066" lon="17.899092480468">
        <ele>78.4</ele>
        <time>2019-10-16T18:16:46Z</time>
      </trkpt>
      <trkpt lat="59.190826836822" lon="17.899086948414">
        <ele>78.4</ele>
        <time>2019-10-16T18:16:47Z</time>
      </trkpt>
      <trkpt lat="59.190841505147" lon="17.899086948414">
        <ele>78.4</ele>
        <time>2019-10-16T18:16:48Z</time>
      </trkpt>
      <trkpt lat="59.190864052458" lon="17.899086780776">
        <ele>78.4</ele>
        <time>2019-10-16T18:16:49Z</time>
      </trkpt>
      <trkpt lat="59.190876709127" lon="17.899090971726">
        <ele>78.4</ele>
        <time>2019-10-16T18:16:50Z</time>
      </trkpt>
      <trkpt lat="59.190881235353" lon="17.899111926476">
        <ele>78.4</ele>
        <time>2019-10-16T18:16:51Z</time>
      </trkpt>
      <trkpt lat="59.190874865109" lon="17.899136569262">
        <ele>78.4</ele>
        <time>2019-10-16T18:16:52Z</time>
      </trkpt>
      <trkpt lat="59.190866902304" lon="17.899164564808">
        <ele>78.4</ele>
        <time>2019-10-16T18:16:53Z</time>
      </trkpt>
      <trkpt lat="59.190859526232" lon="17.899184597549">
        <ele>78.4</ele>
        <time>2019-10-16T18:16:54Z</time>
      </trkpt>
      <trkpt lat="59.190852736893" lon="17.899197421856">
        <ele>78.4</ele>
        <time>2019-10-16T18:16:55Z</time>
      </trkpt>
      <trkpt lat="59.1908487974" lon="17.89921301219">
        <ele>78.4</ele>
        <time>2019-10-16T18:16:56Z</time>
      </trkpt>
      <trkpt lat="59.190844522631" lon="17.899229021619">
        <ele>78.4</ele>
        <time>2019-10-16T18:16:57Z</time>
      </trkpt>
      <trkpt lat="59.190843852079" lon="17.89924653979">
        <ele>78.4</ele>
        <time>2019-10-16T18:16:58Z</time>
      </trkpt>
      <trkpt lat="59.190846953382" lon="17.89925911264">
        <ele>78.4</ele>
        <time>2019-10-16T18:16:59Z</time>
      </trkpt>
      <trkpt lat="59.190845696097" lon="17.899263638866">
        <ele>78.4</ele>
        <time>2019-10-16T18:17:00Z</time>
      </trkpt>
      <trkpt lat="59.190610080888" lon="17.899323820908">
        <ele>78.4</ele>
        <time>2019-10-16T18:19:05Z</time>
      </trkpt>
      <trkpt lat="59.190598513866" lon="17.899317199207">
        <ele>78.4</ele>
        <time>2019-10-16T18:19:06Z</time>
      </trkpt>
      <trkpt lat="59.190583761722" lon="17.899311248058">
        <ele>78.2</ele>
        <time>2019-10-16T18:19:07Z</time>
      </trkpt>
      <trkpt lat="59.190570937415" lon="17.899303369072">
        <ele>78.2</ele>
        <time>2019-10-16T18:19:08Z</time>
      </trkpt>
      <trkpt lat="59.190554927986" lon="17.899299597217">
        <ele>78.2</ele>
        <time>2019-10-16T18:19:09Z</time>
      </trkpt>
      <trkpt lat="59.190538080367" lon="17.89929850757">
        <ele>78.2</ele>
        <time>2019-10-16T18:19:10Z</time>
      </trkpt>
      <trkpt lat="59.190522490033" lon="17.899298675208">
        <ele>78.2</ele>
        <time>2019-10-16T18:19:11Z</time>
      </trkpt>
      <trkpt lat="59.190507905527" lon="17.899308733488">
        <ele>78.2</ele>
        <time>2019-10-16T18:19:12Z</time>
      </trkpt>
      <trkpt lat="59.19049172846" lon="17.89930856585">
        <ele>78.2</ele>
        <time>2019-10-16T18:19:13Z</time>
      </trkpt>
      <trkpt lat="59.190472366271" lon="17.899314014085">
        <ele>78.2</ele>
        <time>2019-10-16T18:19:14Z</time>
      </trkpt>
      <trkpt lat="59.190450573331" lon="17.899299932493">
        <ele>78.2</ele>
        <time>2019-10-16T18:19:15Z</time>
      </trkpt>
      <trkpt lat="59.19042802602" lon="17.899298339932">
        <ele>78.2</ele>
        <time>2019-10-16T18:19:16Z</time>
      </trkpt>
      <trkpt lat="59.190408580012" lon="17.899300351588">
        <ele>78.2</ele>
        <time>2019-10-16T18:19:17Z</time>
      </trkpt>
      <trkpt lat="59.190392654402" lon="17.899305045452">
        <ele>78.2</ele>
        <time>2019-10-16T18:19:18Z</time>
      </trkpt>
      <trkpt lat="59.190373208394" lon="17.899308901126">
        <ele>78.2</ele>
        <time>2019-10-16T18:19:19Z</time>
      </trkpt>
      <trkpt lat="59.190357534241" lon="17.89931610956">
        <ele>78.2</ele>
        <time>2019-10-16T18:19:20Z</time>
      </trkpt>
      <trkpt lat="59.190338591147" lon="17.899322060709">
        <ele>78.2</ele>
        <time>2019-10-16T18:19:21Z</time>
      </trkpt>
      <trkpt lat="59.19031738494" lon="17.899354833938">
        <ele>78.2</ele>
        <time>2019-10-16T18:19:22Z</time>
      </trkpt>
      <trkpt lat="59.190306739927" lon="17.899355672128">
        <ele>78.2</ele>
        <time>2019-10-16T18:19:23Z</time>
      </trkpt>
      <trkpt lat="59.190278241467" lon="17.899382745665">
        <ele>78.2</ele>
        <time>2019-10-16T18:19:24Z</time>
      </trkpt>
      <trkpt lat="59.190264327513" lon="17.899408059003">
        <ele>78.2</ele>
        <time>2019-10-16T18:19:25Z</time>
      </trkpt>
      <trkpt lat="59.190246222609" lon="17.899431612142">
        <ele>78.2</ele>
        <time>2019-10-16T18:19:26Z</time>
      </trkpt>
      <trkpt lat="59.190232141017" lon="17.899456254928">
        <ele>78.2</ele>
        <time>2019-10-16T18:19:27Z</time>
      </trkpt>
      <trkpt lat="59.190212192095" lon="17.899485172483">
        <ele>78.2</ele>
        <time>2019-10-16T18:19:28Z</time>
      </trkpt>
      <trkpt lat="59.190198613417" lon="17.899505875776">
        <ele>78.2</ele>
        <time>2019-10-16T18:19:29Z</time>
      </trkpt>
      <trkpt lat="59.190178580676" lon="17.899537643177">
        <ele>78.2</ele>
        <time>2019-10-16T18:19:30Z</time>
      </trkpt>
      <trkpt lat="59.190159134668" lon="17.899569494397">
        <ele>78.2</ele>
        <time>2019-10-16T18:19:31Z</time>
      </trkpt>
      <trkpt lat="59.190144801619" lon="17.89958768312">
        <ele>78.2</ele>
        <time>2019-10-16T18:19:32Z</time>
      </trkpt>
      <trkpt lat="59.190123846869" lon="17.899592041708">
        <ele>78.2</ele>
        <time>2019-10-16T18:19:33Z</time>
      </trkpt>
      <trkpt lat="59.190100545187" lon="17.899605871843">
        <ele>78</ele>
        <time>2019-10-16T18:19:34Z</time>
      </trkpt>
      <trkpt lat="59.190083446111" lon="17.899616433037">
        <ele>78</ele>
        <time>2019-10-16T18:19:35Z</time>
      </trkpt>
      <trkpt lat="59.190073220193" lon="17.899636717235">
        <ele>78</ele>
        <time>2019-10-16T18:19:36Z</time>
      </trkpt>
      <trkpt lat="59.19006760432" lon="17.899638561253">
        <ele>78</ele>
        <time>2019-10-16T18:19:37Z</time>
      </trkpt>
      <trkpt lat="59.190055618203" lon="17.899646943153">
        <ele>78</ele>
        <time>2019-10-16T18:19:38Z</time>
      </trkpt>
      <trkpt lat="59.190045559923" lon="17.899659516003">
        <ele>78</ele>
        <time>2019-10-16T18:19:39Z</time>
      </trkpt>
      <trkpt lat="59.190039441136" lon="17.899668065541">
        <ele>78</ele>
        <time>2019-10-16T18:19:40Z</time>
      </trkpt>
      <trkpt lat="59.190017815834" lon="17.899680638391">
        <ele>78</ele>
        <time>2019-10-16T18:19:41Z</time>
      </trkpt>
      <trkpt lat="59.189881861416" lon="17.89961366701">
        <ele>77.6</ele>
        <time>2019-10-16T18:26:05Z</time>
      </trkpt>
      <trkpt lat="59.189866606358" lon="17.899597573762">
        <ele>77.6</ele>
        <time>2019-10-16T18:26:06Z</time>
      </trkpt>
      <trkpt lat="59.189851099843" lon="17.899577960116">
        <ele>77.6</ele>
        <time>2019-10-16T18:26:07Z</time>
      </trkpt>
      <trkpt lat="59.189833414034" lon="17.899557340642">
        <ele>77.6</ele>
        <time>2019-10-16T18:26:08Z</time>
      </trkpt>
      <trkpt lat="59.189819248623" lon="17.89953403896">
        <ele>77.6</ele>
        <time>2019-10-16T18:26:09Z</time>
      </trkpt>
      <trkpt lat="59.189807849239" lon="17.899513838581">
        <ele>77.6</ele>
        <time>2019-10-16T18:26:10Z</time>
      </trkpt>
      <trkpt lat="59.189796701312" lon="17.899496068953">
        <ele>77.6</ele>
        <time>2019-10-16T18:26:11Z</time>
      </trkpt>
      <trkpt lat="59.189781278616" lon="17.899477293497">
        <ele>77.6</ele>
        <time>2019-10-16T18:26:12Z</time>
      </trkpt>
      <trkpt lat="59.189765939739" lon="17.899455668195">
        <ele>77.6</ele>
        <time>2019-10-16T18:26:13Z</time>
      </trkpt>
      <trkpt lat="59.18974993031" lon="17.89943597073">
        <ele>77.6</ele>
        <time>2019-10-16T18:26:14Z</time>
      </trkpt>
      <trkpt lat="59.189734591433" lon="17.899418871654">
        <ele>77.6</ele>
        <time>2019-10-16T18:26:15Z</time>
      </trkpt>
      <trkpt lat="59.189714642511" lon="17.89939992856">
        <ele>77.6</ele>
        <time>2019-10-16T18:26:16Z</time>
      </trkpt>
      <trkpt lat="59.189698213987" lon="17.899380566371">
        <ele>77.6</ele>
        <time>2019-10-16T18:26:17Z</time>
      </trkpt>
      <trkpt lat="59.189679270893" lon="17.899369837539">
        <ele>77.6</ele>
        <time>2019-10-16T18:26:18Z</time>
      </trkpt>
      <trkpt lat="59.189660495437" lon="17.899351397359">
        <ele>77.6</ele>
        <time>2019-10-16T18:26:19Z</time>
      </trkpt>
      <trkpt lat="59.189640043601" lon="17.89933957888">
        <ele>77.4</ele>
        <time>2019-10-16T18:26:20Z</time>
      </trkpt>
      <trkpt lat="59.189626632561" lon="17.899324910555">
        <ele>77.4</ele>
        <time>2019-10-16T18:26:21Z</time>
      </trkpt>
      <trkpt lat="59.189607940924" lon="17.899316612474">
        <ele>77.4</ele>
        <time>2019-10-16T18:26:22Z</time>
      </trkpt>
      <trkpt lat="59.189587489088" lon="17.899301608873">
        <ele>77.4</ele>
        <time>2019-10-16T18:26:23Z</time>
      </trkpt>
      <trkpt lat="59.189567540166" lon="17.899285180349">
        <ele>77.4</ele>
        <time>2019-10-16T18:26:24Z</time>
      </trkpt>
      <trkpt lat="59.189548429434" lon="17.899277469001">
        <ele>77.4</ele>
        <time>2019-10-16T18:26:25Z</time>
      </trkpt>
      <trkpt lat="59.189529737797" lon="17.899274032422">
        <ele>77.4</ele>
        <time>2019-10-16T18:26:26Z</time>
      </trkpt>
      <trkpt lat="59.189515656205" lon="17.899267243083">
        <ele>77.4</ele>
        <time>2019-10-16T18:26:27Z</time>
      </trkpt>
      <trkpt lat="59.189500484966" lon="17.899262549219">
        <ele>77.4</ele>
        <time>2019-10-16T18:26:28Z</time>
      </trkpt>
      <trkpt lat="59.189473159972" lon="17.899263806504">
        <ele>77.4</ele>
        <time>2019-10-16T18:26:29Z</time>
      </trkpt>
      <trkpt lat="59.189451367032" lon="17.899249305817">
        <ele>77.4</ele>
        <time>2019-10-16T18:26:30Z</time>
      </trkpt>
      <trkpt lat="59.189431669567" lon="17.899236565329">
        <ele>77.6</ele>
        <time>2019-10-16T18:26:31Z</time>
      </trkpt>
      <trkpt lat="59.189415911595" lon="17.899221729366">
        <ele>77.6</ele>
        <time>2019-10-16T18:26:32Z</time>
      </trkpt>
      <trkpt lat="59.189400153623" lon="17.899210665258">
        <ele>77.6</ele>
        <time>2019-10-16T18:26:33Z</time>
      </trkpt>
      <trkpt lat="59.189386742583" lon="17.899196164571">
        <ele>77.6</ele>
        <time>2019-10-16T18:26:34Z</time>
      </trkpt>
      <trkpt lat="59.189373666819" lon="17.899186273929">
        <ele>77.6</ele>
        <time>2019-10-16T18:26:35Z</time>
      </trkpt>
      <trkpt lat="59.189361177788" lon="17.899159032754">
        <ele>77.6</ele>
        <time>2019-10-16T18:26:36Z</time>
      </trkpt>
      <trkpt lat="59.189343491979" lon="17.89913254595">
        <ele>77.6</ele>
        <time>2019-10-16T18:26:37Z</time>
      </trkpt>
      <trkpt lat="59.189326728179" lon="17.899120559833">
        <ele>77.6</ele>
        <time>2019-10-16T18:26:38Z</time>
      </trkpt>
      <trkpt lat="59.189316502261" lon="17.89910991482">
        <ele>77.6</ele>
        <time>2019-10-16T18:26:39Z</time>
      </trkpt>
      <trkpt lat="59.189304516144" lon="17.899093402477">
        <ele>77.6</ele>
        <time>2019-10-16T18:26:40Z</time>
      </trkpt>
      <trkpt lat="59.189286159783" lon="17.899072447727">
        <ele>77.6</ele>
        <time>2019-10-16T18:26:41Z</time>
      </trkpt>
      <trkpt lat="59.189271491458" lon="17.899053253176">
        <ele>77.6</ele>
        <time>2019-10-16T18:26:42Z</time>
      </trkpt>
      <trkpt lat="59.189260092074" lon="17.899034812996">
        <ele>77.6</ele>
        <time>2019-10-16T18:26:43Z</time>
      </trkpt>
      <trkpt lat="59.189246094301" lon="17.899012181866">
        <ele>77.6</ele>
        <time>2019-10-16T18:26:44Z</time>
      </trkpt>
      <trkpt lat="59.189233940546" lon="17.898990724202">
        <ele>77.6</ele>
        <time>2019-10-16T18:26:45Z</time>
      </trkpt>
      <trkpt lat="59.189214662176" lon="17.898970523823">
        <ele>77.8</ele>
        <time>2019-10-16T18:26:46Z</time>
      </trkpt>
      <trkpt lat="59.189196473453" lon="17.898944875209">
        <ele>77.8</ele>
        <time>2019-10-16T18:26:47Z</time>
      </trkpt>
      <trkpt lat="59.189174177599" lon="17.898919394233">
        <ele>77.8</ele>
        <time>2019-10-16T18:26:48Z</time>
      </trkpt>
      <trkpt lat="59.189154396315" lon="17.898895841094">
        <ele>77.8</ele>
        <time>2019-10-16T18:26:49Z</time>
      </trkpt>
      <trkpt lat="59.189134866488" lon="17.89886516334">
        <ele>77.6</ele>
        <time>2019-10-16T18:26:50Z</time>
      </trkpt>
      <trkpt lat="59.18911793505" lon="17.898834485586">
        <ele>77.6</ele>
        <time>2019-10-16T18:26:51Z</time>
      </trkpt>
      <trkpt lat="59.189104607829" lon="17.898808334058">
        <ele>77.6</ele>
        <time>2019-10-16T18:26:52Z</time>
      </trkpt>
      <trkpt lat="59.189091867341" lon="17.898782853082">
        <ele>77.8</ele>
        <time>2019-10-16T18:26:53Z</time>
      </trkpt>
      <trkpt lat="59.18907602555" lon="17.898756114821">
        <ele>77.8</ele>
        <time>2019-10-16T18:26:54Z</time>
      </trkpt>
      <trkpt lat="59.189054484067" lon="17.898725856162">
        <ele>77.8</ele>
        <time>2019-10-16T18:26:55Z</time>
      </trkpt>
      <trkpt lat="59.18902741053" lon="17.898696770969">
        <ele>77.8</ele>
        <time>2019-10-16T18:26:56Z</time>
      </trkpt>
      <trkpt lat="59.188998409156" lon="17.898666679948">
        <ele>77.8</ele>
        <time>2019-10-16T18:26:57Z</time>
      </trkpt>
      <trkpt lat="59.188967982859" lon="17.898636086013">
        <ele>77.8</ele>
        <time>2019-10-16T18:26:58Z</time>
      </trkpt>
      <trkpt lat="59.188936802191" lon="17.898613454883">
        <ele>77.8</ele>
        <time>2019-10-16T18:26:59Z</time>
      </trkpt>
      <trkpt lat="59.188906543532" lon="17.898581687482">
        <ele>77.8</ele>
        <time>2019-10-16T18:27:00Z</time>
      </trkpt>
      <trkpt lat="59.188876787787" lon="17.898553021384">
        <ele>77.8</ele>
        <time>2019-10-16T18:27:01Z</time>
      </trkpt>
      <trkpt lat="59.188848708422" lon="17.89850977078">
        <ele>77.8</ele>
        <time>2019-10-16T18:27:02Z</time>
      </trkpt>
      <trkpt lat="59.188821718704" lon="17.898474482981">
        <ele>77.6</ele>
        <time>2019-10-16T18:27:03Z</time>
      </trkpt>
      <trkpt lat="59.188796740642" lon="17.898434836594">
        <ele>77.6</ele>
        <time>2019-10-16T18:27:04Z</time>
      </trkpt>
      <trkpt lat="59.188774193331" lon="17.898395190207">
        <ele>77.6</ele>
        <time>2019-10-16T18:27:05Z</time>
      </trkpt>
      <trkpt lat="59.188750724011" lon="17.898356801105">
        <ele>77.6</ele>
        <time>2019-10-16T18:27:06Z</time>
      </trkpt>
      <trkpt lat="59.188726584139" lon="17.898316316528">
        <ele>77.6</ele>
        <time>2019-10-16T18:27:07Z</time>
      </trkpt>
      <trkpt lat="59.188708563054" lon="17.898288404801">
        <ele>77.6</ele>
        <time>2019-10-16T18:27:08Z</time>
      </trkpt>
      <trkpt lat="59.188694565281" lon="17.898266025128">
        <ele>77.8</ele>
        <time>2019-10-16T18:27:09Z</time>
      </trkpt>
      <trkpt lat="59.188677717662" lon="17.898244232188">
        <ele>77.8</ele>
        <time>2019-10-16T18:27:10Z</time>
      </trkpt>
      <trkpt lat="59.188663552251" lon="17.89822394799">
        <ele>77.6</ele>
        <time>2019-10-16T18:27:11Z</time>
      </trkpt>
      <trkpt lat="59.188645950261" lon="17.898200227213">
        <ele>77.8</ele>
        <time>2019-10-16T18:27:12Z</time>
      </trkpt>
      <trkpt lat="59.188630779022" lon="17.89817784754">
        <ele>77.8</ele>
        <time>2019-10-16T18:27:13Z</time>
      </trkpt>
      <trkpt lat="59.188616948887" lon="17.898151696012">
        <ele>77.6</ele>
        <time>2019-10-16T18:27:14Z</time>
      </trkpt>
      <trkpt lat="59.188597670517" lon="17.898124287199">
        <ele>77.6</ele>
        <time>2019-10-16T18:27:15Z</time>
      </trkpt>
      <trkpt lat="59.188578895061" lon="17.898090759599">
        <ele>77.6</ele>
        <time>2019-10-16T18:27:16Z</time>
      </trkpt>
      <trkpt lat="59.188559197596" lon="17.898051867583">
        <ele>77.6</ele>
        <time>2019-10-16T18:27:17Z</time>
      </trkpt>
      <trkpt lat="59.188545032185" lon="17.898013394662">
        <ele>77.6</ele>
        <time>2019-10-16T18:27:18Z</time>
      </trkpt>
      <trkpt lat="59.18852952567" lon="17.897977436311">
        <ele>77.6</ele>
        <time>2019-10-16T18:27:19Z</time>
      </trkpt>
      <trkpt lat="59.188510750214" lon="17.897938544295">
        <ele>77.8</ele>
        <time>2019-10-16T18:27:20Z</time>
      </trkpt>
      <trkpt lat="59.188497339174" lon="17.897889426361">
        <ele>77.8</ele>
        <time>2019-10-16T18:27:21Z</time>
      </trkpt>
      <trkpt lat="59.188481162107" lon="17.897841398074">
        <ele>77.8</ele>
        <time>2019-10-16T18:27:22Z</time>
      </trkpt>
      <trkpt lat="59.188469343628" lon="17.897795297624">
        <ele>77.8</ele>
        <time>2019-10-16T18:27:23Z</time>
      </trkpt>
      <trkpt lat="59.188459201529" lon="17.897753220486">
        <ele>77.8</ele>
        <time>2019-10-16T18:27:24Z</time>
      </trkpt>
      <trkpt lat="59.18845241219" lon="17.897708964054">
        <ele>78</ele>
        <time>2019-10-16T18:27:25Z</time>
      </trkpt>
      <trkpt lat="59.188442102453" lon="17.897665210536">
        <ele>78</ele>
        <time>2019-10-16T18:27:26Z</time>
      </trkpt>
      <trkpt lat="59.188435732209" lon="17.897614751498">
        <ele>77.8</ele>
        <time>2019-10-16T18:27:27Z</time>
      </trkpt>
      <trkpt lat="59.188428775232" lon="17.897557084026">
        <ele>77.8</ele>
        <time>2019-10-16T18:27:28Z</time>
      </trkpt>
      <trkpt lat="59.188422153531" lon="17.897509558653">
        <ele>77.8</ele>
        <time>2019-10-16T18:27:29Z</time>
      </trkpt>
      <trkpt lat="59.18841720821" lon="17.897469912266">
        <ele>78</ele>
        <time>2019-10-16T18:27:30Z</time>
      </trkpt>
      <trkpt lat="59.188410586509" lon="17.897427835128">
        <ele>78</ele>
        <time>2019-10-16T18:27:31Z</time>
      </trkpt>
      <trkpt lat="59.188401031143" lon="17.897389697483">
        <ele>78.2</ele>
        <time>2019-10-16T18:27:32Z</time>
      </trkpt>
      <trkpt lat="59.188393571252" lon="17.897355499331">
        <ele>78.2</ele>
        <time>2019-10-16T18:27:33Z</time>
      </trkpt>
      <trkpt lat="59.188388458293" lon="17.897318199876">
        <ele>78.2</ele>
        <time>2019-10-16T18:27:34Z</time>
      </trkpt>
      <trkpt lat="59.188382590963" lon="17.8972759551">
        <ele>78.2</ele>
        <time>2019-10-16T18:27:35Z</time>
      </trkpt>
      <trkpt lat="59.188376723633" lon="17.897235219066">
        <ele>78.2</ele>
        <time>2019-10-16T18:27:36Z</time>
      </trkpt>
      <trkpt lat="59.188370772484" lon="17.897193393385">
        <ele>78.2</ele>
        <time>2019-10-16T18:27:37Z</time>
      </trkpt>
      <trkpt lat="59.188361300937" lon="17.89715190298">
        <ele>78.4</ele>
        <time>2019-10-16T18:27:38Z</time>
      </trkpt>
      <trkpt lat="59.188352751399" lon="17.89710580253">
        <ele>78.4</ele>
        <time>2019-10-16T18:27:39Z</time>
      </trkpt>
      <trkpt lat="59.188345207689" lon="17.89706305484">
        <ele>78.4</ele>
        <time>2019-10-16T18:27:40Z</time>
      </trkpt>
      <trkpt lat="59.188337077246" lon="17.897017960218">
        <ele>78.4</ele>
        <time>2019-10-16T18:27:41Z</time>
      </trkpt>
      <trkpt lat="59.188331880468" lon="17.896968507008">
        <ele>78.4</ele>
        <time>2019-10-16T18:27:42Z</time>
      </trkpt>
      <trkpt lat="59.188324001482" lon="17.896920394902">
        <ele>78.4</ele>
        <time>2019-10-16T18:27:43Z</time>
      </trkpt>
      <trkpt lat="59.188317212143" lon="17.896873707719">
        <ele>78.4</ele>
        <time>2019-10-16T18:27:44Z</time>
      </trkpt>
      <trkpt lat="59.188313607926" lon="17.8968317144">
        <ele>78.4</ele>
        <time>2019-10-16T18:27:45Z</time>
      </trkpt>
      <trkpt lat="59.188308494967" lon="17.896792570927">
        <ele>78.4</ele>
        <time>2019-10-16T18:27:46Z</time>
      </trkpt>
      <trkpt lat="59.188300364524" lon="17.896750074694">
        <ele>78.4</ele>
        <time>2019-10-16T18:27:47Z</time>
      </trkpt>
      <trkpt lat="59.188294664832" lon="17.896721492415">
        <ele>78.4</ele>
        <time>2019-10-16T18:27:48Z</time>
      </trkpt>
      <trkpt lat="59.188287875493" lon="17.896691820489">
        <ele>78.6</ele>
        <time>2019-10-16T18:27:49Z</time>
      </trkpt>
      <trkpt lat="59.188285277104" lon="17.896655359224">
        <ele>78.6</ele>
        <time>2019-10-16T18:27:50Z</time>
      </trkpt>
      <trkpt lat="59.188278739222" lon="17.896614790828">
        <ele>78.6</ele>
        <time>2019-10-16T18:27:51Z</time>
      </trkpt>
      <trkpt lat="59.188269351494" lon="17.89658444835">
        <ele>78.6</ele>
        <time>2019-10-16T18:27:52Z</time>
      </trkpt>
      <trkpt lat="59.18825795211" lon="17.896559637926">
        <ele>78.6</ele>
        <time>2019-10-16T18:27:53Z</time>
      </trkpt>
      <trkpt lat="59.18824873202" lon="17.896541197746">
        <ele>78.6</ele>
        <time>2019-10-16T18:27:54Z</time>
      </trkpt>
      <trkpt lat="59.188238338464" lon="17.896533151122">
        <ele>78.6</ele>
        <time>2019-10-16T18:27:55Z</time>
      </trkpt>
      <trkpt lat="59.188231297668" lon="17.896520829729">
        <ele>78.6</ele>
        <time>2019-10-16T18:27:56Z</time>
      </trkpt>
      <trkpt lat="59.188230878573" lon="17.896517812245">
        <ele>78.8</ele>
        <time>2019-10-16T18:27:57Z</time>
      </trkpt>
      <trkpt lat="59.18817413311" lon="17.896440112032">
        <ele>79</ele>
        <time>2019-10-16T18:28:14Z</time>
      </trkpt>
      <trkpt lat="59.188148065401" lon="17.896407254984">
        <ele>79</ele>
        <time>2019-10-16T18:28:15Z</time>
      </trkpt>
      <trkpt lat="59.18811881257" lon="17.896371715728">
        <ele>79</ele>
        <time>2019-10-16T18:28:16Z</time>
      </trkpt>
      <trkpt lat="59.188089895015" lon="17.896331482608">
        <ele>79</ele>
        <time>2019-10-16T18:28:17Z</time>
      </trkpt>
      <trkpt lat="59.188065336048" lon="17.896291752402">
        <ele>79</ele>
        <time>2019-10-16T18:28:18Z</time>
      </trkpt>
      <trkpt lat="59.188043794565" lon="17.896256883698">
        <ele>79</ele>
        <time>2019-10-16T18:28:19Z</time>
      </trkpt>
      <trkpt lat="59.188019403236" lon="17.896228888152">
        <ele>79</ele>
        <time>2019-10-16T18:28:20Z</time>
      </trkpt>
      <trkpt lat="59.187991072414" lon="17.89621480656">
        <ele>79</ele>
        <time>2019-10-16T18:28:21Z</time>
      </trkpt>
      <trkpt lat="59.187966597266" lon="17.896207346669">
        <ele>79</ele>
        <time>2019-10-16T18:28:22Z</time>
      </trkpt>
      <trkpt lat="59.187940697195" lon="17.89620139552">
        <ele>79</ele>
        <time>2019-10-16T18:28:23Z</time>
      </trkpt>
      <trkpt lat="59.187914461848" lon="17.896197036932">
        <ele>78.8</ele>
        <time>2019-10-16T18:28:24Z</time>
      </trkpt>
      <trkpt lat="59.187891746899" lon="17.896193516534">
        <ele>78.8</ele>
        <time>2019-10-16T18:28:25Z</time>
      </trkpt>
      <trkpt lat="59.187866349742" lon="17.896184212625">
        <ele>78.8</ele>
        <time>2019-10-16T18:28:26Z</time>
      </trkpt>
      <trkpt lat="59.187837264549" lon="17.896170214852">
        <ele>78.8</ele>
        <time>2019-10-16T18:28:27Z</time>
      </trkpt>
      <trkpt lat="59.187808514632" lon="17.896157642002">
        <ele>78.8</ele>
        <time>2019-10-16T18:28:28Z</time>
      </trkpt>
      <trkpt lat="59.187779010344" lon="17.896147667541">
        <ele>78.8</ele>
        <time>2019-10-16T18:28:29Z</time>
      </trkpt>
      <trkpt lat="59.18775671449" lon="17.896134675596">
        <ele>78.6</ele>
        <time>2019-10-16T18:28:30Z</time>
      </trkpt>
      <trkpt lat="59.187731820247" lon="17.896119755814">
        <ele>78.6</ele>
        <time>2019-10-16T18:28:31Z</time>
      </trkpt>
      <trkpt lat="59.187700807217" lon="17.896111960647">
        <ele>78.4</ele>
        <time>2019-10-16T18:28:32Z</time>
      </trkpt>
      <trkpt lat="59.187673817499" lon="17.896107182964">
        <ele>78.4</ele>
        <time>2019-10-16T18:28:33Z</time>
      </trkpt>
      <trkpt lat="59.187648252704" lon="17.896103494928">
        <ele>78.4</ele>
        <time>2019-10-16T18:28:34Z</time>
      </trkpt>
      <trkpt lat="59.187616569122" lon="17.896114726674">
        <ele>78.4</ele>
        <time>2019-10-16T18:28:35Z</time>
      </trkpt>
      <trkpt lat="59.187587651567" lon="17.896121683651">
        <ele>78.4</ele>
        <time>2019-10-16T18:28:36Z</time>
      </trkpt>
      <trkpt lat="59.187556638537" lon="17.896115229588">
        <ele>78.4</ele>
        <time>2019-10-16T18:28:37Z</time>
      </trkpt>
      <trkpt lat="59.187525206412" lon="17.896107015326">
        <ele>78.4</ele>
        <time>2019-10-16T18:28:38Z</time>
      </trkpt>
      <trkpt lat="59.187500563626" lon="17.896098801064">
        <ele>78.4</ele>
        <time>2019-10-16T18:28:39Z</time>
      </trkpt>
      <trkpt lat="59.187476507573" lon="17.896092347001">
        <ele>78.4</ele>
        <time>2019-10-16T18:28:40Z</time>
      </trkpt>
      <trkpt lat="59.187440884498" lon="17.89609578358">
        <ele>78.4</ele>
        <time>2019-10-16T18:28:41Z</time>
      </trkpt>
      <trkpt lat="59.187406518708" lon="17.896089161879">
        <ele>78.4</ele>
        <time>2019-10-16T18:28:42Z</time>
      </trkpt>
      <trkpt lat="59.187371482366" lon="17.896084551834">
        <ele>78.4</ele>
        <time>2019-10-16T18:28:43Z</time>
      </trkpt>
      <trkpt lat="59.187343067725" lon="17.896084216558">
        <ele>78.6</ele>
        <time>2019-10-16T18:28:44Z</time>
      </trkpt>
      <trkpt lat="59.187315072179" lon="17.896087485499">
        <ele>78.6</ele>
        <time>2019-10-16T18:28:45Z</time>
      </trkpt>
      <trkpt lat="59.187296967275" lon="17.896089748612">
        <ele>78.6</ele>
        <time>2019-10-16T18:28:46Z</time>
      </trkpt>
      <trkpt lat="59.18727056429" lon="17.896088994241">
        <ele>78.6</ele>
        <time>2019-10-16T18:28:47Z</time>
      </trkpt>
      <trkpt lat="59.187249693359" lon="17.896078768323">
        <ele>78.8</ele>
        <time>2019-10-16T18:28:48Z</time>
      </trkpt>
      <trkpt lat="59.187228151876" lon="17.89608153435">
        <ele>78.8</ele>
        <time>2019-10-16T18:28:49Z</time>
      </trkpt>
      <trkpt lat="59.187201581253" lon="17.896084970929">
        <ele>78.8</ele>
        <time>2019-10-16T18:28:50Z</time>
      </trkpt>
      <trkpt lat="59.187173669526" lon="17.896096370313">
        <ele>78.8</ele>
        <time>2019-10-16T18:28:51Z</time>
      </trkpt>
      <trkpt lat="59.187156989545" lon="17.896092347001">
        <ele>79</ele>
        <time>2019-10-16T18:28:52Z</time>
      </trkpt>
      <trkpt lat="59.187137711175" lon="17.896084300377">
        <ele>78.8</ele>
        <time>2019-10-16T18:28:53Z</time>
      </trkpt>
      <trkpt lat="59.187117929891" lon="17.896083713644">
        <ele>78.8</ele>
        <time>2019-10-16T18:28:54Z</time>
      </trkpt>
      <trkpt lat="59.187103345385" lon="17.89608237254">
        <ele>78.8</ele>
        <time>2019-10-16T18:28:55Z</time>
      </trkpt>
      <trkpt lat="59.187079959884" lon="17.896084803291">
        <ele>78.8</ele>
        <time>2019-10-16T18:28:56Z</time>
      </trkpt>
      <trkpt lat="59.187058586039" lon="17.896087150223">
        <ele>78.8</ele>
        <time>2019-10-16T18:28:57Z</time>
      </trkpt>
      <trkpt lat="59.187045761732" lon="17.896085054748">
        <ele>78.8</ele>
        <time>2019-10-16T18:28:58Z</time>
      </trkpt>
      <trkpt lat="59.187027153914" lon="17.896090419164">
        <ele>78.8</ele>
        <time>2019-10-16T18:28:59Z</time>
      </trkpt>
      <trkpt lat="59.187005780069" lon="17.896101064177">
        <ele>78.8</ele>
        <time>2019-10-16T18:29:00Z</time>
      </trkpt>
      <trkpt lat="59.18698557969" lon="17.896118330891">
        <ele>78.8</ele>
        <time>2019-10-16T18:29:01Z</time>
      </trkpt>
      <trkpt lat="59.186959092886" lon="17.89614942774">
        <ele>78.8</ele>
        <time>2019-10-16T18:29:02Z</time>
      </trkpt>
      <trkpt lat="59.186933528091" lon="17.896182620064">
        <ele>78.6</ele>
        <time>2019-10-16T18:29:03Z</time>
      </trkpt>
      <trkpt lat="59.186905029631" lon="17.896215812388">
        <ele>78.6</ele>
        <time>2019-10-16T18:29:04Z</time>
      </trkpt>
      <trkpt lat="59.186877285542" lon="17.896246825418">
        <ele>78.6</ele>
        <time>2019-10-16T18:29:05Z</time>
      </trkpt>
      <trkpt lat="59.186854989688" lon="17.896266439064">
        <ele>78.4</ele>
        <time>2019-10-16T18:29:06Z</time>
      </trkpt>
      <trkpt lat="59.186837471517" lon="17.896280353018">
        <ele>78.4</ele>
        <time>2019-10-16T18:29:07Z</time>
      </trkpt>
      <trkpt lat="59.186805955573" lon="17.896298960836">
        <ele>78.4</ele>
        <time>2019-10-16T18:29:08Z</time>
      </trkpt>
      <trkpt lat="59.186783072986" lon="17.896306839822">
        <ele>78.2</ele>
        <time>2019-10-16T18:29:09Z</time>
      </trkpt>
      <trkpt lat="59.186760525675" lon="17.896319245034">
        <ele>78</ele>
        <time>2019-10-16T18:29:10Z</time>
      </trkpt>
      <trkpt lat="59.186736134346" lon="17.896325112364">
        <ele>78</ele>
        <time>2019-10-16T18:29:11Z</time>
      </trkpt>
      <trkpt lat="59.18670646242" lon="17.896339026318">
        <ele>78</ele>
        <time>2019-10-16T18:29:12Z</time>
      </trkpt>
      <trkpt lat="59.186674192105" lon="17.896357801774">
        <ele>77.8</ele>
        <time>2019-10-16T18:29:13Z</time>
      </trkpt>
      <trkpt lat="59.186646615654" lon="17.896380432904">
        <ele>77.8</ele>
        <time>2019-10-16T18:29:14Z</time>
      </trkpt>
      <trkpt lat="59.186617865737" lon="17.896394514496">
        <ele>77.8</ele>
        <time>2019-10-16T18:29:15Z</time>
      </trkpt>
      <trkpt lat="59.186593893503" lon="17.896406919708">
        <ele>77.6</ele>
        <time>2019-10-16T18:29:16Z</time>
      </trkpt>
      <trkpt lat="59.186566233233" lon="17.896415636884">
        <ele>77.6</ele>
        <time>2019-10-16T18:29:17Z</time>
      </trkpt>
      <trkpt lat="59.186542763913" lon="17.896423012956">
        <ele>77.4</ele>
        <time>2019-10-16T18:29:18Z</time>
      </trkpt>
      <trkpt lat="59.186521976801" lon="17.896430137571">
        <ele>77.4</ele>
        <time>2019-10-16T18:29:19Z</time>
      </trkpt>
      <trkpt lat="59.186493478341" lon="17.896444135344">
        <ele>77.4</ele>
        <time>2019-10-16T18:29:20Z</time>
      </trkpt>
      <trkpt lat="59.186473026505" lon="17.896453858348">
        <ele>77.4</ele>
        <time>2019-10-16T18:29:21Z</time>
      </trkpt>
      <trkpt lat="59.186443941312" lon="17.89647380727">
        <ele>77.4</ele>
        <time>2019-10-16T18:29:22Z</time>
      </trkpt>
      <trkpt lat="59.186421226363" lon="17.896483614093">
        <ele>77.4</ele>
        <time>2019-10-16T18:29:23Z</time>
      </trkpt>
      <trkpt lat="59.186403121459" lon="17.896496186943">
        <ele>77.4</ele>
        <time>2019-10-16T18:29:24Z</time>
      </trkpt>
      <trkpt lat="59.186382753442" lon="17.896516974055">
        <ele>77.4</ele>
        <time>2019-10-16T18:29:25Z</time>
      </trkpt>
      <trkpt lat="59.186355009353" lon="17.896533989312">
        <ele>77.4</ele>
        <time>2019-10-16T18:29:26Z</time>
      </trkpt>
      <trkpt lat="59.186323744866" lon="17.896558548279">
        <ele>77.4</ele>
        <time>2019-10-16T18:29:27Z</time>
      </trkpt>
      <trkpt lat="59.186298431528" lon="17.896576569364">
        <ele>77.4</ele>
        <time>2019-10-16T18:29:28Z</time>
      </trkpt>
      <trkpt lat="59.186275046027" lon="17.89658612473">
        <ele>77.4</ele>
        <time>2019-10-16T18:29:29Z</time>
      </trkpt>
      <trkpt lat="59.186255097105" lon="17.896608672041">
        <ele>77.4</ele>
        <time>2019-10-16T18:29:30Z</time>
      </trkpt>
      <trkpt lat="59.186235148183" lon="17.896617305398">
        <ele>77.4</ele>
        <time>2019-10-16T18:29:31Z</time>
      </trkpt>
      <trkpt lat="59.186214528709" lon="17.896623424185">
        <ele>77.4</ele>
        <time>2019-10-16T18:29:32Z</time>
      </trkpt>
      <trkpt lat="59.186197261995" lon="17.896634236836">
        <ele>77.4</ele>
        <time>2019-10-16T18:29:33Z</time>
      </trkpt>
      <trkpt lat="59.186174798503" lon="17.896655107767">
        <ele>77.4</ele>
        <time>2019-10-16T18:29:34Z</time>
      </trkpt>
      <trkpt lat="59.186155687771" lon="17.896674050861">
        <ele>77.4</ele>
        <time>2019-10-16T18:29:35Z</time>
      </trkpt>
      <trkpt lat="59.186137750505" lon="17.896692071946">
        <ele>77.4</ele>
        <time>2019-10-16T18:29:36Z</time>
      </trkpt>
      <trkpt lat="59.186115873746" lon="17.896715038352">
        <ele>77.4</ele>
        <time>2019-10-16T18:29:37Z</time>
      </trkpt>
      <trkpt lat="59.186098523213" lon="17.896739262043">
        <ele>77.4</ele>
        <time>2019-10-16T18:29:38Z</time>
      </trkpt>
      <trkpt lat="59.186069689477" lon="17.896759965336">
        <ele>77.4</ele>
        <time>2019-10-16T18:29:39Z</time>
      </trkpt>
      <trkpt lat="59.186046387795" lon="17.896775304213">
        <ele>77.4</ele>
        <time>2019-10-16T18:29:40Z</time>
      </trkpt>
      <trkpt lat="59.186024008122" lon="17.896789469624">
        <ele>77.4</ele>
        <time>2019-10-16T18:29:41Z</time>
      </trkpt>
      <trkpt lat="59.186007663417" lon="17.896810675831">
        <ele>77.2</ele>
        <time>2019-10-16T18:29:42Z</time>
      </trkpt>
      <trkpt lat="59.185994587653" lon="17.89682081793">
        <ele>77.2</ele>
        <time>2019-10-16T18:29:43Z</time>
      </trkpt>
      <trkpt lat="59.185979667871" lon="17.896830373296">
        <ele>77.2</ele>
        <time>2019-10-16T18:29:44Z</time>
      </trkpt>
      <trkpt lat="59.185966005374" lon="17.896839844843">
        <ele>77.2</ele>
        <time>2019-10-16T18:29:45Z</time>
      </trkpt>
      <trkpt lat="59.185951672325" lon="17.896847137096">
        <ele>77.2</ele>
        <time>2019-10-16T18:29:46Z</time>
      </trkpt>
      <trkpt lat="59.185938931837" lon="17.896852920607">
        <ele>77.2</ele>
        <time>2019-10-16T18:29:47Z</time>
      </trkpt>
      <trkpt lat="59.185922587132" lon="17.896844957802">
        <ele>77.2</ele>
        <time>2019-10-16T18:29:48Z</time>
      </trkpt>
      <trkpt lat="59.185899117812" lon="17.896833558418">
        <ele>77.2</ele>
        <time>2019-10-16T18:29:49Z</time>
      </trkpt>
      <trkpt lat="59.185868691515" lon="17.896817129894">
        <ele>77.2</ele>
        <time>2019-10-16T18:29:50Z</time>
      </trkpt>
      <trkpt lat="59.18584145034" lon="17.896792990022">
        <ele>77.2</ele>
        <time>2019-10-16T18:29:51Z</time>
      </trkpt>
      <trkpt lat="59.185812197509" lon="17.8967646592">
        <ele>77.2</ele>
        <time>2019-10-16T18:29:52Z</time>
      </trkpt>
      <trkpt lat="59.185787051809" lon="17.896729706677">
        <ele>77.2</ele>
        <time>2019-10-16T18:29:53Z</time>
      </trkpt>
      <trkpt lat="59.185765510326" lon="17.89669928038">
        <ele>77.2</ele>
        <time>2019-10-16T18:29:54Z</time>
      </trkpt>
      <trkpt lat="59.185744639395" lon="17.896681343114">
        <ele>77.2</ele>
        <time>2019-10-16T18:29:55Z</time>
      </trkpt>
      <trkpt lat="59.18572410374" lon="17.896667932074">
        <ele>77.2</ele>
        <time>2019-10-16T18:29:56Z</time>
      </trkpt>
      <trkpt lat="59.185703735723" lon="17.896658711984">
        <ele>77.2</ele>
        <time>2019-10-16T18:29:57Z</time>
      </trkpt>
      <trkpt lat="59.185687055742" lon="17.896641780546">
        <ele>77.2</ele>
        <time>2019-10-16T18:29:58Z</time>
      </trkpt>
      <trkpt lat="59.185666100992" lon="17.896632560456">
        <ele>77.2</ele>
        <time>2019-10-16T18:29:59Z</time>
      </trkpt>
      <trkpt lat="59.185648247545" lon="17.896615126104">
        <ele>77.2</ele>
        <time>2019-10-16T18:30:00Z</time>
      </trkpt>
      <trkpt lat="59.185630477917" lon="17.896596685924">
        <ele>77.2</ele>
        <time>2019-10-16T18:30:01Z</time>
      </trkpt>
      <trkpt lat="59.185613043565" lon="17.896582101418">
        <ele>77.2</ele>
        <time>2019-10-16T18:30:02Z</time>
      </trkpt>
      <trkpt lat="59.185595441575" lon="17.896569612387">
        <ele>77.4</ele>
        <time>2019-10-16T18:30:03Z</time>
      </trkpt>
      <trkpt lat="59.185580270336" lon="17.896557290994">
        <ele>77.4</ele>
        <time>2019-10-16T18:30:04Z</time>
      </trkpt>
      <trkpt lat="59.185564344726" lon="17.896542706488">
        <ele>77.4</ele>
        <time>2019-10-16T18:30:05Z</time>
      </trkpt>
      <trkpt lat="59.185548586754" lon="17.896538431719">
        <ele>77.4</ele>
        <time>2019-10-16T18:30:06Z</time>
      </trkpt>
      <trkpt lat="59.185539618121" lon="17.896529043991">
        <ele>77.6</ele>
        <time>2019-10-16T18:30:07Z</time>
      </trkpt>
      <trkpt lat="59.185529056927" lon="17.896518901892">
        <ele>77.6</ele>
        <time>2019-10-16T18:30:08Z</time>
      </trkpt>
      <trkpt lat="59.185518244276" lon="17.89650733487">
        <ele>78</ele>
        <time>2019-10-16T18:30:09Z</time>
      </trkpt>
      <trkpt lat="59.185505000874" lon="17.896496522219">
        <ele>78</ele>
        <time>2019-10-16T18:30:10Z</time>
      </trkpt>
      <trkpt lat="59.185492008929" lon="17.896479339324">
        <ele>78</ele>
        <time>2019-10-16T18:30:11Z</time>
      </trkpt>
      <trkpt lat="59.185480022812" lon="17.896457797841">
        <ele>78.2</ele>
        <time>2019-10-16T18:30:12Z</time>
      </trkpt>
      <trkpt lat="59.185470551265" lon="17.8964377651">
        <ele>78.2</ele>
        <time>2019-10-16T18:30:13Z</time>
      </trkpt>
      <trkpt lat="59.185465270668" lon="17.896419744015">
        <ele>78.2</ele>
        <time>2019-10-16T18:30:14Z</time>
      </trkpt>
      <trkpt lat="59.185465438306" lon="17.89640339931">
        <ele>78.2</ele>
        <time>2019-10-16T18:30:15Z</time>
      </trkpt>
      <trkpt lat="59.185471892369" lon="17.896394514496">
        <ele>78.2</ele>
        <time>2019-10-16T18:30:16Z</time>
      </trkpt>
      <trkpt lat="59.185478597889" lon="17.896388060433">
        <ele>78.2</ele>
        <time>2019-10-16T18:30:17Z</time>
      </trkpt>
      <trkpt lat="59.185480609545" lon="17.896385378225">
        <ele>78.2</ele>
        <time>2019-10-16T18:30:18Z</time>
      </trkpt>
      <trkpt lat="59.185488823807" lon="17.896380265266">
        <ele>78.2</ele>
        <time>2019-10-16T18:30:19Z</time>
      </trkpt>
      <trkpt lat="59.185501061381" lon="17.896375655221">
        <ele>78.2</ele>
        <time>2019-10-16T18:30:20Z</time>
      </trkpt>
      <trkpt lat="59.185515310611" lon="17.896369704072">
        <ele>78.2</ele>
        <time>2019-10-16T18:30:21Z</time>
      </trkpt>
      <trkpt lat="59.185528973108" lon="17.896361908905">
        <ele>78.2</ele>
        <time>2019-10-16T18:30:22Z</time>
      </trkpt>
      <trkpt lat="59.185545401632" lon="17.896355203385">
        <ele>78</ele>
        <time>2019-10-16T18:30:23Z</time>
      </trkpt>
      <trkpt lat="59.185562668346" lon="17.896351850625">
        <ele>78</ele>
        <time>2019-10-16T18:30:24Z</time>
      </trkpt>
      <trkpt lat="59.185579515965" lon="17.896351012435">
        <ele>78</ele>
        <time>2019-10-16T18:30:25Z</time>
      </trkpt>
      <trkpt lat="59.185596195946" lon="17.896346150933">
        <ele>78</ele>
        <time>2019-10-16T18:30:26Z</time>
      </trkpt>
      <trkpt lat="59.185611031909" lon="17.896342043802">
        <ele>78</ele>
        <time>2019-10-16T18:30:27Z</time>
      </trkpt>
      <trkpt lat="59.185621676922" lon="17.896340954155">
        <ele>78</ele>
        <time>2019-10-16T18:30:28Z</time>
      </trkpt>
      <trkpt lat="59.185634585048" lon="17.896341205612">
        <ele>78</ele>
        <time>2019-10-16T18:30:29Z</time>
      </trkpt>
      <trkpt lat="59.185650007744" lon="17.896338271947">
        <ele>77.8</ele>
        <time>2019-10-16T18:30:30Z</time>
      </trkpt>
      <trkpt lat="59.18566291587" lon="17.896346067114">
        <ele>77.8</ele>
        <time>2019-10-16T18:30:31Z</time>
      </trkpt>
      <trkpt lat="59.185677919471" lon="17.89635562248">
        <ele>77.8</ele>
        <time>2019-10-16T18:30:32Z</time>
      </trkpt>
      <trkpt lat="59.185690995235" lon="17.896364926389">
        <ele>77.8</ele>
        <time>2019-10-16T18:30:33Z</time>
      </trkpt>
      <trkpt lat="59.185706669388" lon="17.896361657448">
        <ele>77.8</ele>
        <time>2019-10-16T18:30:34Z</time>
      </trkpt>
      <trkpt lat="59.185722930274" lon="17.896354616652">
        <ele>77.8</ele>
        <time>2019-10-16T18:30:35Z</time>
      </trkpt>
      <trkpt lat="59.185737430961" lon="17.896348414046">
        <ele>77.8</ele>
        <time>2019-10-16T18:30:36Z</time>
      </trkpt>
      <trkpt lat="59.185756457874" lon="17.8963371823">
        <ele>77.8</ele>
        <time>2019-10-16T18:30:37Z</time>
      </trkpt>
      <trkpt lat="59.185775149511" lon="17.896315724636">
        <ele>77.8</ele>
        <time>2019-10-16T18:30:38Z</time>
      </trkpt>
      <trkpt lat="59.185794679338" lon="17.896288483461">
        <ele>77.8</ele>
        <time>2019-10-16T18:30:39Z</time>
      </trkpt>
      <trkpt lat="59.18581714283" lon="17.896263002485">
        <ele>77.8</ele>
        <time>2019-10-16T18:30:40Z</time>
      </trkpt>
      <trkpt lat="59.18583390663" lon="17.89623576131">
        <ele>77.8</ele>
        <time>2019-10-16T18:30:41Z</time>
      </trkpt>
      <trkpt lat="59.185845976566" lon="17.896204915918">
        <ele>77.8</ele>
        <time>2019-10-16T18:30:42Z</time>
      </trkpt>
      <trkpt lat="59.185859555244" lon="17.896181949512">
        <ele>77.8</ele>
        <time>2019-10-16T18:30:43Z</time>
      </trkpt>
      <trkpt lat="59.185872295732" lon="17.896153031957">
        <ele>77.8</ele>
        <time>2019-10-16T18:30:44Z</time>
      </trkpt>
      <trkpt lat="59.185885287677" lon="17.896122186565">
        <ele>77.8</ele>
        <time>2019-10-16T18:30:45Z</time>
      </trkpt>
      <trkpt lat="59.185897189975" lon="17.896089832431">
        <ele>77.8</ele>
        <time>2019-10-16T18:30:46Z</time>
      </trkpt>
      <trkpt lat="59.18591521106" lon="17.896063597084">
        <ele>77.8</ele>
        <time>2019-10-16T18:30:47Z</time>
      </trkpt>
      <trkpt lat="59.185933232145" lon="17.896041468868">
        <ele>77.8</ele>
        <time>2019-10-16T18:30:48Z</time>
      </trkpt>
      <trkpt lat="59.185952845791" lon="17.896026381448">
        <ele>77.8</ele>
        <time>2019-10-16T18:30:49Z</time>
      </trkpt>
      <trkpt lat="59.185975728378" lon="17.896005342879">
        <ele>77.8</ele>
        <time>2019-10-16T18:30:50Z</time>
      </trkpt>
      <trkpt lat="59.185998359508" lon="17.895979861903">
        <ele>77.8</ele>
        <time>2019-10-16T18:30:51Z</time>
      </trkpt>
      <trkpt lat="59.186024846312" lon="17.895951698719">
        <ele>77.8</ele>
        <time>2019-10-16T18:30:52Z</time>
      </trkpt>
      <trkpt lat="59.186048064175" lon="17.895924541363">
        <ele>77.8</ele>
        <time>2019-10-16T18:30:53Z</time>
      </trkpt>
      <trkpt lat="59.186073796608" lon="17.895893528333">
        <ele>77.8</ele>
        <time>2019-10-16T18:30:54Z</time>
      </trkpt>
      <trkpt lat="59.186099109946" lon="17.895861174199">
        <ele>77.8</ele>
        <time>2019-10-16T18:30:55Z</time>
      </trkpt>
      <trkpt lat="59.186123417456" lon="17.89582672459">
        <ele>77.8</ele>
        <time>2019-10-16T18:30:56Z</time>
      </trkpt>
      <trkpt lat="59.186147557328" lon="17.895793532266">
        <ele>77.8</ele>
        <time>2019-10-16T18:30:57Z</time>
      </trkpt>
      <trkpt lat="59.186168679716" lon="17.895764027978">
        <ele>77.8</ele>
        <time>2019-10-16T18:30:58Z</time>
      </trkpt>
      <trkpt lat="59.186191562303" lon="17.895735278061">
        <ele>77.8</ele>
        <time>2019-10-16T18:30:59Z</time>
      </trkpt>
      <trkpt lat="59.186219222573" lon="17.895708204524">
        <ele>77.8</ele>
        <time>2019-10-16T18:31:00Z</time>
      </trkpt>
      <trkpt lat="59.186233220346" lon="17.895683058824">
        <ele>77.8</ele>
        <time>2019-10-16T18:31:01Z</time>
      </trkpt>
      <trkpt lat="59.186246128472" lon="17.895657494029">
        <ele>77.8</ele>
        <time>2019-10-16T18:31:02Z</time>
      </trkpt>
      <trkpt lat="59.186265742118" lon="17.895621200402">
        <ele>77.8</ele>
        <time>2019-10-16T18:31:03Z</time>
      </trkpt>
      <trkpt lat="59.186281583909" lon="17.895589097725">
        <ele>77.8</ele>
        <time>2019-10-16T18:31:04Z</time>
      </trkpt>
      <trkpt lat="59.1862974257" lon="17.895549870433">
        <ele>77.8</ele>
        <time>2019-10-16T18:31:05Z</time>
      </trkpt>
      <trkpt lat="59.186313267491" lon="17.895514750272">
        <ele>77.8</ele>
        <time>2019-10-16T18:31:06Z</time>
      </trkpt>
      <trkpt lat="59.186322739038" lon="17.895487592916">
        <ele>77.8</ele>
        <time>2019-10-16T18:31:07Z</time>
      </trkpt>
      <trkpt lat="59.186336569173" lon="17.895455741696">
        <ele>77.8</ele>
        <time>2019-10-16T18:31:08Z</time>
      </trkpt>
      <trkpt lat="59.186351740412" lon="17.895428835797">
        <ele>78</ele>
        <time>2019-10-16T18:31:09Z</time>
      </trkpt>
      <trkpt lat="59.186370264411" lon="17.895405617934">
        <ele>78</ele>
        <time>2019-10-16T18:31:10Z</time>
      </trkpt>
      <trkpt lat="59.186385351831" lon="17.895399750604">
        <ele>78</ele>
        <time>2019-10-16T18:31:11Z</time>
      </trkpt>
      <trkpt lat="59.186397002672" lon="17.895385501374">
        <ele>78</ele>
        <time>2019-10-16T18:31:12Z</time>
      </trkpt>
      <trkpt lat="59.18641644868" lon="17.895381478062">
        <ele>78</ele>
        <time>2019-10-16T18:31:13Z</time>
      </trkpt>
      <trkpt lat="59.186430446453" lon="17.895385585193">
        <ele>78</ele>
        <time>2019-10-16T18:31:14Z</time>
      </trkpt>
      <trkpt lat="59.186446120606" lon="17.895388183582">
        <ele>78</ele>
        <time>2019-10-16T18:31:15Z</time>
      </trkpt>
      <trkpt lat="59.186459866922" lon="17.89540930597">
        <ele>78</ele>
        <time>2019-10-16T18:31:16Z</time>
      </trkpt>
      <trkpt lat="59.186477468912" lon="17.895434786946">
        <ele>78.2</ele>
        <time>2019-10-16T18:31:17Z</time>
      </trkpt>
      <trkpt lat="59.18649691492" lon="17.895455993153">
        <ele>78.2</ele>
        <time>2019-10-16T18:31:18Z</time>
      </trkpt>
      <trkpt lat="59.186511667064" lon="17.895480468301">
        <ele>78.2</ele>
        <time>2019-10-16T18:31:19Z</time>
      </trkpt>
      <trkpt lat="59.186527676493" lon="17.895503099431">
        <ele>78.2</ele>
        <time>2019-10-16T18:31:20Z</time>
      </trkpt>
      <trkpt lat="59.186538070049" lon="17.895531011158">
        <ele>78.2</ele>
        <time>2019-10-16T18:31:21Z</time>
      </trkpt>
      <trkpt lat="59.186553157469" lon="17.895549535157">
        <ele>78.2</ele>
        <time>2019-10-16T18:31:22Z</time>
      </trkpt>
      <trkpt lat="59.186572603477" lon="17.895577027789">
        <ele>78.2</ele>
        <time>2019-10-16T18:31:23Z</time>
      </trkpt>
      <trkpt lat="59.186591714209" lon="17.895609717199">
        <ele>78.4</ele>
        <time>2019-10-16T18:31:24Z</time>
      </trkpt>
      <trkpt lat="59.186611579312" lon="17.895644166808">
        <ele>78.4</ele>
        <time>2019-10-16T18:31:25Z</time>
      </trkpt>
      <trkpt lat="59.186632198786" lon="17.89569093781">
        <ele>78.4</ele>
        <time>2019-10-16T18:31:26Z</time>
      </trkpt>
      <trkpt lat="59.186652566803" lon="17.895718430442">
        <ele>78.4</ele>
        <time>2019-10-16T18:31:27Z</time>
      </trkpt>
      <trkpt lat="59.186672599544" lon="17.895744665789">
        <ele>78.4</ele>
        <time>2019-10-16T18:31:28Z</time>
      </trkpt>
      <trkpt lat="59.186691458819" lon="17.895775427362">
        <ele>78.4</ele>
        <time>2019-10-16T18:31:29Z</time>
      </trkpt>
      <trkpt lat="59.186709396085" lon="17.895794454275">
        <ele>78.4</ele>
        <time>2019-10-16T18:31:30Z</time>
      </trkpt>
      <trkpt lat="59.1867249026" lon="17.895818258871">
        <ele>78.4</ele>
        <time>2019-10-16T18:31:31Z</time>
      </trkpt>
      <trkpt lat="59.186740576753" lon="17.895841476734">
        <ele>78.4</ele>
        <time>2019-10-16T18:31:32Z</time>
      </trkpt>
      <trkpt lat="59.186760693313" lon="17.895859414">
        <ele>78.4</ele>
        <time>2019-10-16T18:31:33Z</time>
      </trkpt>
      <trkpt lat="59.186773266163" lon="17.8958761778">
        <ele>78.4</ele>
        <time>2019-10-16T18:31:34Z</time>
      </trkpt>
      <trkpt lat="59.186781312787" lon="17.895897803102">
        <ele>78.6</ele>
        <time>2019-10-16T18:31:35Z</time>
      </trkpt>
      <trkpt lat="59.186785671375" lon="17.895918757852">
        <ele>78.6</ele>
        <time>2019-10-16T18:31:36Z</time>
      </trkpt>
      <trkpt lat="59.186788185945" lon="17.895949351787">
        <ele>78.6</ele>
        <time>2019-10-16T18:31:37Z</time>
      </trkpt>
      <trkpt lat="59.186790868153" lon="17.895981538283">
        <ele>78.6</ele>
        <time>2019-10-16T18:31:38Z</time>
      </trkpt>
      <trkpt lat="59.186772344154" lon="17.896009198553">
        <ele>78.6</ele>
        <time>2019-10-16T18:31:39Z</time>
      </trkpt>
      <trkpt lat="59.186758597838" lon="17.896041133592">
        <ele>78.6</ele>
        <time>2019-10-16T18:31:40Z</time>
      </trkpt>
      <trkpt lat="59.186747030816" lon="17.896084468015">
        <ele>78.6</ele>
        <time>2019-10-16T18:31:41Z</time>
      </trkpt>
      <trkpt lat="59.186738648916" lon="17.896122018927">
        <ele>78.6</ele>
        <time>2019-10-16T18:31:42Z</time>
      </trkpt>
      <trkpt lat="59.186724734962" lon="17.896159234563">
        <ele>78.6</ele>
        <time>2019-10-16T18:31:43Z</time>
      </trkpt>
      <trkpt lat="59.18670478604" lon="17.896198126579">
        <ele>78.6</ele>
        <time>2019-10-16T18:31:44Z</time>
      </trkpt>
      <trkpt lat="59.186682071091" lon="17.896232240912">
        <ele>78.6</ele>
        <time>2019-10-16T18:31:45Z</time>
      </trkpt>
      <trkpt lat="59.186662960359" lon="17.896249591445">
        <ele>78.6</ele>
        <time>2019-10-16T18:31:46Z</time>
      </trkpt>
      <trkpt lat="59.186635635365" lon="17.896268702177">
        <ele>78.6</ele>
        <time>2019-10-16T18:31:47Z</time>
      </trkpt>
      <trkpt lat="59.186612836597" lon="17.896282029398">
        <ele>78.6</ele>
        <time>2019-10-16T18:31:48Z</time>
      </trkpt>
      <trkpt lat="59.186597916815" lon="17.896293764058">
        <ele>78.4</ele>
        <time>2019-10-16T18:31:49Z</time>
      </trkpt>
      <trkpt lat="59.186573693124" lon="17.896315556998">
        <ele>78.2</ele>
        <time>2019-10-16T18:31:50Z</time>
      </trkpt>
      <trkpt lat="59.186550223804" lon="17.896320921414">
        <ele>78</ele>
        <time>2019-10-16T18:31:51Z</time>
      </trkpt>
      <trkpt lat="59.186527760312" lon="17.896333075169">
        <ele>77.8</ele>
        <time>2019-10-16T18:31:52Z</time>
      </trkpt>
      <trkpt lat="59.186507392295" lon="17.896341121793">
        <ele>77.8</ele>
        <time>2019-10-16T18:31:53Z</time>
      </trkpt>
      <trkpt lat="59.186481240767" lon="17.896353275548">
        <ele>77.6</ele>
        <time>2019-10-16T18:31:54Z</time>
      </trkpt>
      <trkpt lat="59.186451904117" lon="17.896376074316">
        <ele>77.6</ele>
        <time>2019-10-16T18:31:55Z</time>
      </trkpt>
      <trkpt lat="59.186420891087" lon="17.896397867256">
        <ele>77.6</ele>
        <time>2019-10-16T18:31:56Z</time>
      </trkpt>
      <trkpt lat="59.186382334347" lon="17.896427120087">
        <ele>77.6</ele>
        <time>2019-10-16T18:31:57Z</time>
      </trkpt>
      <trkpt lat="59.186351237498" lon="17.896449918855">
        <ele>77.6</ele>
        <time>2019-10-16T18:31:58Z</time>
      </trkpt>
      <trkpt lat="59.186318967183" lon="17.896479339324">
        <ele>77.4</ele>
        <time>2019-10-16T18:31:59Z</time>
      </trkpt>
      <trkpt lat="59.186293067112" lon="17.896500964626">
        <ele>77.4</ele>
        <time>2019-10-16T18:32:00Z</time>
      </trkpt>
      <trkpt lat="59.186271022715" lon="17.896515884408">
        <ele>77.4</ele>
        <time>2019-10-16T18:32:01Z</time>
      </trkpt>
      <trkpt lat="59.186249397413" lon="17.896532648208">
        <ele>77.6</ele>
        <time>2019-10-16T18:32:02Z</time>
      </trkpt>
      <trkpt lat="59.18621695946" lon="17.896556871899">
        <ele>77.6</ele>
        <time>2019-10-16T18:32:03Z</time>
      </trkpt>
      <trkpt lat="59.186186281706" lon="17.896590986232">
        <ele>77.6</ele>
        <time>2019-10-16T18:32:04Z</time>
      </trkpt>
      <trkpt lat="59.186163147662" lon="17.896616383389">
        <ele>77.6</ele>
        <time>2019-10-16T18:32:05Z</time>
      </trkpt>
      <trkpt lat="59.186138756333" lon="17.896637338139">
        <ele>77.6</ele>
        <time>2019-10-16T18:32:06Z</time>
      </trkpt>
      <trkpt lat="59.186110090235" lon="17.896661645649">
        <ele>77.6</ele>
        <time>2019-10-16T18:32:07Z</time>
      </trkpt>
      <trkpt lat="59.186080250671" lon="17.896693245412">
        <ele>77.6</ele>
        <time>2019-10-16T18:32:08Z</time>
      </trkpt>
      <trkpt lat="59.186041023379" lon="17.896723839347">
        <ele>77.6</ele>
        <time>2019-10-16T18:32:09Z</time>
      </trkpt>
      <trkpt lat="59.186004226838" lon="17.896747643943">
        <ele>77.6</ele>
        <time>2019-10-16T18:32:10Z</time>
      </trkpt>
      <trkpt lat="59.185975476921" lon="17.89676130644">
        <ele>77.6</ele>
        <time>2019-10-16T18:32:11Z</time>
      </trkpt>
      <trkpt lat="59.185943541882" lon="17.896755271472">
        <ele>77.6</ele>
        <time>2019-10-16T18:32:12Z</time>
      </trkpt>
      <trkpt lat="59.18589844726" lon="17.896760132974">
        <ele>77.6</ele>
        <time>2019-10-16T18:32:13Z</time>
      </trkpt>
      <trkpt lat="59.185858800873" lon="17.896751331979">
        <ele>77.6</ele>
        <time>2019-10-16T18:32:14Z</time>
      </trkpt>
      <trkpt lat="59.185823680712" lon="17.896734232903">
        <ele>77.6</ele>
        <time>2019-10-16T18:32:15Z</time>
      </trkpt>
      <trkpt lat="59.185795685166" lon="17.896713864886">
        <ele>77.6</ele>
        <time>2019-10-16T18:32:16Z</time>
      </trkpt>
      <trkpt lat="59.185774898054" lon="17.896680672562">
        <ele>77.6</ele>
        <time>2019-10-16T18:32:17Z</time>
      </trkpt>
      <trkpt lat="59.185749165621" lon="17.896658963441">
        <ele>77.6</ele>
        <time>2019-10-16T18:32:18Z</time>
      </trkpt>
      <trkpt lat="59.185724522835" lon="17.896628956239">
        <ele>77.6</ele>
        <time>2019-10-16T18:32:19Z</time>
      </trkpt>
      <trkpt lat="59.185697952212" lon="17.896610013145">
        <ele>77.6</ele>
        <time>2019-10-16T18:32:20Z</time>
      </trkpt>
      <trkpt lat="59.185672219779" lon="17.896583442522">
        <ele>77.6</ele>
        <time>2019-10-16T18:32:21Z</time>
      </trkpt>
      <trkpt lat="59.185643972776" lon="17.89655427351">
        <ele>77.8</ele>
        <time>2019-10-16T18:32:22Z</time>
      </trkpt>
      <trkpt lat="59.185617485972" lon="17.896527786706">
        <ele>77.8</ele>
        <time>2019-10-16T18:32:23Z</time>
      </trkpt>
      <trkpt lat="59.185594771023" lon="17.896513788933">
        <ele>77.8</ele>
        <time>2019-10-16T18:32:24Z</time>
      </trkpt>
      <trkpt lat="59.185571804617" lon="17.896489146147">
        <ele>77.8</ele>
        <time>2019-10-16T18:32:25Z</time>
      </trkpt>
      <trkpt lat="59.185552945342" lon="17.896463329895">
        <ele>77.8</ele>
        <time>2019-10-16T18:32:26Z</time>
      </trkpt>
      <trkpt lat="59.185538947569" lon="17.896444302982">
        <ele>77.8</ele>
        <time>2019-10-16T18:32:27Z</time>
      </trkpt>
      <trkpt lat="59.185525201253" lon="17.896429969933">
        <ele>77.8</ele>
        <time>2019-10-16T18:32:28Z</time>
      </trkpt>
      <trkpt lat="59.185510868204" lon="17.896414547237">
        <ele>77.8</ele>
        <time>2019-10-16T18:32:29Z</time>
      </trkpt>
      <trkpt lat="59.18549946882" lon="17.896395604143">
        <ele>77.8</ele>
        <time>2019-10-16T18:32:30Z</time>
      </trkpt>
      <trkpt lat="59.185494104404" lon="17.896374733212">
        <ele>77.8</ele>
        <time>2019-10-16T18:32:31Z</time>
      </trkpt>
      <trkpt lat="59.185496786612" lon="17.896363752923">
        <ele>78</ele>
        <time>2019-10-16T18:32:32Z</time>
      </trkpt>
      <trkpt lat="59.185499049725" lon="17.896362244181">
        <ele>78</ele>
        <time>2019-10-16T18:32:33Z</time>
      </trkpt>
      <trkpt lat="59.185506844892" lon="17.896357634136">
        <ele>78</ele>
        <time>2019-10-16T18:32:34Z</time>
      </trkpt>
      <trkpt lat="59.185513801869" lon="17.896359059059">
        <ele>78.2</ele>
        <time>2019-10-16T18:32:35Z</time>
      </trkpt>
      <trkpt lat="59.185521094122" lon="17.896356041575">
        <ele>78.2</ele>
        <time>2019-10-16T18:32:36Z</time>
      </trkpt>
      <trkpt lat="59.185529978936" lon="17.896353527005">
        <ele>78.2</ele>
        <time>2019-10-16T18:32:37Z</time>
      </trkpt>
      <trkpt lat="59.185539366664" lon="17.896351766806">
        <ele>78.2</ele>
        <time>2019-10-16T18:32:38Z</time>
      </trkpt>
      <trkpt lat="59.185551855695" lon="17.896347827313">
        <ele>78.2</ele>
        <time>2019-10-16T18:32:39Z</time>
      </trkpt>
      <trkpt lat="59.185564093269" lon="17.896345061286">
        <ele>78.2</ele>
        <time>2019-10-16T18:32:40Z</time>
      </trkpt>
      <trkpt lat="59.185574151549" lon="17.89634304963">
        <ele>78.2</ele>
        <time>2019-10-16T18:32:41Z</time>
      </trkpt>
      <trkpt lat="59.185580018879" lon="17.896337936671">
        <ele>78.2</ele>
        <time>2019-10-16T18:32:42Z</time>
      </trkpt>
      <trkpt lat="59.185594016652" lon="17.896341792345">
        <ele>78.2</ele>
        <time>2019-10-16T18:32:43Z</time>
      </trkpt>
      <trkpt lat="59.185606086588" lon="17.896347408218">
        <ele>78.2</ele>
        <time>2019-10-16T18:32:44Z</time>
      </trkpt>
      <trkpt lat="59.185617569791" lon="17.896349168417">
        <ele>78.4</ele>
        <time>2019-10-16T18:32:45Z</time>
      </trkpt>
      <trkpt lat="59.185627795709" lon="17.896342379078">
        <ele>78.4</ele>
        <time>2019-10-16T18:32:46Z</time>
      </trkpt>
      <trkpt lat="59.185637853989" lon="17.896342043802">
        <ele>78.4</ele>
        <time>2019-10-16T18:32:47Z</time>
      </trkpt>
      <trkpt lat="59.185648918097" lon="17.896341205612">
        <ele>78.4</ele>
        <time>2019-10-16T18:32:48Z</time>
      </trkpt>
      <trkpt lat="59.185657467635" lon="17.896348581684">
        <ele>78.4</ele>
        <time>2019-10-16T18:32:49Z</time>
      </trkpt>
      <trkpt lat="59.185669118476" lon="17.896355371023">
        <ele>78.4</ele>
        <time>2019-10-16T18:32:50Z</time>
      </trkpt>
      <trkpt lat="59.185676913643" lon="17.896353527005">
        <ele>78.2</ele>
        <time>2019-10-16T18:32:51Z</time>
      </trkpt>
      <trkpt lat="59.185689570312" lon="17.89634807877">
        <ele>78.2</ele>
        <time>2019-10-16T18:32:52Z</time>
      </trkpt>
      <trkpt lat="59.185698706583" lon="17.896346653847">
        <ele>78.2</ele>
        <time>2019-10-16T18:32:53Z</time>
      </trkpt>
      <trkpt lat="59.185716727668" lon="17.896333242807">
        <ele>78.2</ele>
        <time>2019-10-16T18:32:54Z</time>
      </trkpt>
      <trkpt lat="59.185733407649" lon="17.896311617505">
        <ele>78.2</ele>
        <time>2019-10-16T18:32:55Z</time>
      </trkpt>
      <trkpt lat="59.185755871141" lon="17.896284460149">
        <ele>78.2</ele>
        <time>2019-10-16T18:32:56Z</time>
      </trkpt>
      <trkpt lat="59.185783363773" lon="17.896260571734">
        <ele>78.2</ele>
        <time>2019-10-16T18:32:57Z</time>
      </trkpt>
      <trkpt lat="59.185812197509" lon="17.896231402722">
        <ele>78.2</ele>
        <time>2019-10-16T18:32:58Z</time>
      </trkpt>
      <trkpt lat="59.185833403716" lon="17.896198797131">
        <ele>78.2</ele>
        <time>2019-10-16T18:32:59Z</time>
      </trkpt>
      <trkpt lat="59.185849748421" lon="17.896166442997">
        <ele>78.2</ele>
        <time>2019-10-16T18:33:00Z</time>
      </trkpt>
      <trkpt lat="59.185866763678" lon="17.89613936946">
        <ele>78.2</ele>
        <time>2019-10-16T18:33:01Z</time>
      </trkpt>
      <trkpt lat="59.185884868582" lon="17.896116151597">
        <ele>78.2</ele>
        <time>2019-10-16T18:33:02Z</time>
      </trkpt>
      <trkpt lat="59.185899453088" lon="17.896091424992">
        <ele>78.2</ele>
        <time>2019-10-16T18:33:03Z</time>
      </trkpt>
      <trkpt lat="59.185915462517" lon="17.896070889337">
        <ele>78.2</ele>
        <time>2019-10-16T18:33:04Z</time>
      </trkpt>
      <trkpt lat="59.185935746715" lon="17.896054209356">
        <ele>78.2</ele>
        <time>2019-10-16T18:33:05Z</time>
      </trkpt>
      <trkpt lat="59.185954522171" lon="17.896035685357">
        <ele>78.2</ele>
        <time>2019-10-16T18:33:06Z</time>
      </trkpt>
      <trkpt lat="59.185975476921" lon="17.896013808598">
        <ele>78.2</ele>
        <time>2019-10-16T18:33:07Z</time>
      </trkpt>
      <trkpt lat="59.185994671472" lon="17.895989752545">
        <ele>78.2</ele>
        <time>2019-10-16T18:33:08Z</time>
      </trkpt>
      <trkpt lat="59.186018811344" lon="17.895953123642">
        <ele>78.2</ele>
        <time>2019-10-16T18:33:09Z</time>
      </trkpt>
      <trkpt lat="59.186042448302" lon="17.895919009309">
        <ele>78.2</ele>
        <time>2019-10-16T18:33:10Z</time>
      </trkpt>
      <trkpt lat="59.186063486871" lon="17.895889672659">
        <ele>78.4</ele>
        <time>2019-10-16T18:33:11Z</time>
      </trkpt>
      <trkpt lat="59.186079915395" lon="17.895857569982">
        <ele>78.4</ele>
        <time>2019-10-16T18:33:12Z</time>
      </trkpt>
      <trkpt lat="59.186093577892" lon="17.895823958563">
        <ele>78.4</ele>
        <time>2019-10-16T18:33:13Z</time>
      </trkpt>
      <trkpt lat="59.186103384715" lon="17.895807865315">
        <ele>78.4</ele>
        <time>2019-10-16T18:33:14Z</time>
      </trkpt>
      <trkpt lat="59.186113359176" lon="17.895774840629">
        <ele>78.4</ele>
        <time>2019-10-16T18:33:15Z</time>
      </trkpt>
      <trkpt lat="59.186129368605" lon="17.895751622766">
        <ele>78.4</ele>
        <time>2019-10-16T18:33:16Z</time>
      </trkpt>
      <trkpt lat="59.186150407174" lon="17.895725890333">
        <ele>78.4</ele>
        <time>2019-10-16T18:33:17Z</time>
      </trkpt>
      <trkpt lat="59.186176139607" lon="17.895697391873">
        <ele>78.4</ele>
        <time>2019-10-16T18:33:18Z</time>
      </trkpt>
      <trkpt lat="59.186192819588" lon="17.895667384671">
        <ele>78.4</ele>
        <time>2019-10-16T18:33:19Z</time>
      </trkpt>
      <trkpt lat="59.186213690519" lon="17.895620110755">
        <ele>78.4</ele>
        <time>2019-10-16T18:33:20Z</time>
      </trkpt>
      <trkpt lat="59.186234812907" lon="17.895578285074">
        <ele>78.4</ele>
        <time>2019-10-16T18:33:21Z</time>
      </trkpt>
      <trkpt lat="59.186250403241" lon="17.895540566524">
        <ele>78.4</ele>
        <time>2019-10-16T18:33:22Z</time>
      </trkpt>
      <trkpt lat="59.186267167041" lon="17.895511062236">
        <ele>78.4</ele>
        <time>2019-10-16T18:33:23Z</time>
      </trkpt>
      <trkpt lat="59.186287451239" lon="17.895491783866">
        <ele>78.2</ele>
        <time>2019-10-16T18:33:24Z</time>
      </trkpt>
      <trkpt lat="59.186308573627" lon="17.895482144681">
        <ele>78.2</ele>
        <time>2019-10-16T18:33:25Z</time>
      </trkpt>
      <trkpt lat="59.18633179149" lon="17.895467811632">
        <ele>78.2</ele>
        <time>2019-10-16T18:33:26Z</time>
      </trkpt>
      <trkpt lat="59.186365654366" lon="17.895468482184">
        <ele>78.2</ele>
        <time>2019-10-16T18:33:27Z</time>
      </trkpt>
      <trkpt lat="59.186403792011" lon="17.895484659251">
        <ele>78.2</ele>
        <time>2019-10-16T18:33:28Z</time>
      </trkpt>
      <trkpt lat="59.186433380118" lon="17.895495471902">
        <ele>78.2</ele>
        <time>2019-10-16T18:33:29Z</time>
      </trkpt>
      <trkpt lat="59.186456346524" lon="17.895506787467">
        <ele>78.2</ele>
        <time>2019-10-16T18:33:30Z</time>
      </trkpt>
      <trkpt lat="59.186479061473" lon="17.895526904027">
        <ele>78.2</ele>
        <time>2019-10-16T18:33:31Z</time>
      </trkpt>
      <trkpt lat="59.186503871897" lon="17.895547439682">
        <ele>78.2</ele>
        <time>2019-10-16T18:33:32Z</time>
      </trkpt>
      <trkpt lat="59.18652960433" lon="17.895562527102">
        <ele>78.2</ele>
        <time>2019-10-16T18:33:33Z</time>
      </trkpt>
      <trkpt lat="59.186556510229" lon="17.895599910376">
        <ele>78.2</ele>
        <time>2019-10-16T18:33:34Z</time>
      </trkpt>
      <trkpt lat="59.186578722264" lon="17.895645507912">
        <ele>78.2</ele>
        <time>2019-10-16T18:33:35Z</time>
      </trkpt>
      <trkpt lat="59.186593725865" lon="17.895660343875">
        <ele>78.2</ele>
        <time>2019-10-16T18:33:36Z</time>
      </trkpt>
      <trkpt lat="59.186612501321" lon="17.895673754915">
        <ele>78.2</ele>
        <time>2019-10-16T18:33:37Z</time>
      </trkpt>
      <trkpt lat="59.186630606225" lon="17.895697140416">
        <ele>78.2</ele>
        <time>2019-10-16T18:33:38Z</time>
      </trkpt>
      <trkpt lat="59.186650974242" lon="17.895713988035">
        <ele>78.2</ele>
        <time>2019-10-16T18:33:39Z</time>
      </trkpt>
      <trkpt lat="59.186677293408" lon="17.895754221155">
        <ele>78.2</ele>
        <time>2019-10-16T18:33:41Z</time>
      </trkpt>
      <trkpt lat="59.186683496014" lon="17.895775762638">
        <ele>78.4</ele>
        <time>2019-10-16T18:33:42Z</time>
      </trkpt>
      <trkpt lat="59.186691375" lon="17.895800321605">
        <ele>78.4</ele>
        <time>2019-10-16T18:33:43Z</time>
      </trkpt>
      <trkpt lat="59.186691710276" lon="17.895818761785">
        <ele>78.6</ele>
        <time>2019-10-16T18:33:44Z</time>
      </trkpt>
      <trkpt lat="59.186690033896" lon="17.895851283557">
        <ele>78.6</ele>
        <time>2019-10-16T18:33:45Z</time>
      </trkpt>
      <trkpt lat="59.186683328376" lon="17.895875088153">
        <ele>78.6</ele>
        <time>2019-10-16T18:33:46Z</time>
      </trkpt>
      <trkpt lat="59.186675952304" lon="17.895915321273">
        <ele>78.6</ele>
        <time>2019-10-16T18:33:47Z</time>
      </trkpt>
      <trkpt lat="59.186670168793" lon="17.895969635985">
        <ele>78.6</ele>
        <time>2019-10-16T18:33:48Z</time>
      </trkpt>
      <trkpt lat="59.186659020866" lon="17.896017496634">
        <ele>78.6</ele>
        <time>2019-10-16T18:33:49Z</time>
      </trkpt>
      <trkpt lat="59.186639491039" lon="17.896060663419">
        <ele>78.6</ele>
        <time>2019-10-16T18:33:50Z</time>
      </trkpt>
      <trkpt lat="59.186616859909" lon="17.896105506584">
        <ele>78.6</ele>
        <time>2019-10-16T18:33:51Z</time>
      </trkpt>
      <trkpt lat="59.186594899331" lon="17.896146326437">
        <ele>78.6</ele>
        <time>2019-10-16T18:33:52Z</time>
      </trkpt>
      <trkpt lat="59.186582158843" lon="17.896178680571">
        <ele>78.6</ele>
        <time>2019-10-16T18:33:53Z</time>
      </trkpt>
      <trkpt lat="59.186566819966" lon="17.896197707484">
        <ele>78.6</ele>
        <time>2019-10-16T18:33:54Z</time>
      </trkpt>
      <trkpt lat="59.186548295967" lon="17.896213213999">
        <ele>78.6</ele>
        <time>2019-10-16T18:33:55Z</time>
      </trkpt>
      <trkpt lat="59.186529855787" lon="17.896227463229">
        <ele>78.4</ele>
        <time>2019-10-16T18:33:56Z</time>
      </trkpt>
      <trkpt lat="59.186511247969" lon="17.896238527337">
        <ele>78.2</ele>
        <time>2019-10-16T18:33:57Z</time>
      </trkpt>
      <trkpt lat="59.186494148893" lon="17.896267444892">
        <ele>78</ele>
        <time>2019-10-16T18:33:58Z</time>
      </trkpt>
      <trkpt lat="59.186477971826" lon="17.896282448493">
        <ele>78</ele>
        <time>2019-10-16T18:33:59Z</time>
      </trkpt>
      <trkpt lat="59.186461627121" lon="17.896295356619">
        <ele>78</ele>
        <time>2019-10-16T18:34:00Z</time>
      </trkpt>
      <trkpt lat="59.186439834181" lon="17.896308180926">
        <ele>77.8</ele>
        <time>2019-10-16T18:34:01Z</time>
      </trkpt>
      <trkpt lat="59.18641561049" lon="17.896319328853">
        <ele>77.8</ele>
        <time>2019-10-16T18:34:02Z</time>
      </trkpt>
      <trkpt lat="59.186387531125" lon="17.896344642191">
        <ele>77.8</ele>
        <time>2019-10-16T18:34:03Z</time>
      </trkpt>
      <trkpt lat="59.18636112814" lon="17.896361238353">
        <ele>77.8</ele>
        <time>2019-10-16T18:34:04Z</time>
      </trkpt>
      <trkpt lat="59.186341682132" lon="17.896378924162">
        <ele>77.8</ele>
        <time>2019-10-16T18:34:05Z</time>
      </trkpt>
      <trkpt lat="59.186318296631" lon="17.896403315491">
        <ele>77.8</ele>
        <time>2019-10-16T18:34:06Z</time>
      </trkpt>
      <trkpt lat="59.186301029917" lon="17.896425527526">
        <ele>77.8</ele>
        <time>2019-10-16T18:34:07Z</time>
      </trkpt>
      <trkpt lat="59.186280494262" lon="17.896447404285">
        <ele>77.8</ele>
        <time>2019-10-16T18:34:08Z</time>
      </trkpt>
      <trkpt lat="59.186253420725" lon="17.896471125062">
        <ele>77.8</ele>
        <time>2019-10-16T18:34:09Z</time>
      </trkpt>
      <trkpt lat="59.186233471803" lon="17.896489816699">
        <ele>77.8</ele>
        <time>2019-10-16T18:34:10Z</time>
      </trkpt>
      <trkpt lat="59.186212936148" lon="17.896504987938">
        <ele>77.8</ele>
        <time>2019-10-16T18:34:11Z</time>
      </trkpt>
      <trkpt lat="59.186190640294" lon="17.896517560788">
        <ele>77.8</ele>
        <time>2019-10-16T18:34:12Z</time>
      </trkpt>
      <trkpt lat="59.186170523734" lon="17.896541952117">
        <ele>78</ele>
        <time>2019-10-16T18:34:13Z</time>
      </trkpt>
      <trkpt lat="59.186143534016" lon="17.896585705635">
        <ele>78</ele>
        <time>2019-10-16T18:34:14Z</time>
      </trkpt>
      <trkpt lat="59.186114029728" lon="17.896624849108">
        <ele>78</ele>
        <time>2019-10-16T18:34:15Z</time>
      </trkpt>
      <trkpt lat="59.18608704001" lon="17.896652677016">
        <ele>78</ele>
        <time>2019-10-16T18:34:16Z</time>
      </trkpt>
      <trkpt lat="59.186066504355" lon="17.896675559603">
        <ele>78</ele>
        <time>2019-10-16T18:34:17Z</time>
      </trkpt>
      <trkpt lat="59.186044459958" lon="17.896698861285">
        <ele>78</ele>
        <time>2019-10-16T18:34:18Z</time>
      </trkpt>
      <trkpt lat="59.186018978982" lon="17.896721995329">
        <ele>78</ele>
        <time>2019-10-16T18:34:19Z</time>
      </trkpt>
      <trkpt lat="59.185991402531" lon="17.896744961735">
        <ele>78</ele>
        <time>2019-10-16T18:34:20Z</time>
      </trkpt>
      <trkpt lat="59.185969777229" lon="17.896759965336">
        <ele>77.8</ele>
        <time>2019-10-16T18:34:21Z</time>
      </trkpt>
      <trkpt lat="59.185945888814" lon="17.896774046928">
        <ele>77.8</ele>
        <time>2019-10-16T18:34:22Z</time>
      </trkpt>
      <trkpt lat="59.18592107839" lon="17.896790894547">
        <ele>77.8</ele>
        <time>2019-10-16T18:34:23Z</time>
      </trkpt>
      <trkpt lat="59.18589593269" lon="17.896788379977">
        <ele>77.8</ele>
        <time>2019-10-16T18:34:24Z</time>
      </trkpt>
      <trkpt lat="59.185856034846" lon="17.896793241479">
        <ele>77.6</ele>
        <time>2019-10-16T18:34:25Z</time>
      </trkpt>
      <trkpt lat="59.185829548042" lon="17.896770023616">
        <ele>77.6</ele>
        <time>2019-10-16T18:34:26Z</time>
      </trkpt>
      <trkpt lat="59.185801301039" lon="17.896756193481">
        <ele>77.6</ele>
        <time>2019-10-16T18:34:27Z</time>
      </trkpt>
      <trkpt lat="59.185776490615" lon="17.896734400541">
        <ele>77.6</ele>
        <time>2019-10-16T18:34:28Z</time>
      </trkpt>
      <trkpt lat="59.18575511677" lon="17.896709087203">
        <ele>77.6</ele>
        <time>2019-10-16T18:34:29Z</time>
      </trkpt>
      <trkpt lat="59.185736257495" lon="17.896693329231">
        <ele>77.6</ele>
        <time>2019-10-16T18:34:30Z</time>
      </trkpt>
      <trkpt lat="59.185716979125" lon="17.896685953159">
        <ele>77.6</ele>
        <time>2019-10-16T18:34:31Z</time>
      </trkpt>
      <trkpt lat="59.185700382963" lon="17.896667261522">
        <ele>77.6</ele>
        <time>2019-10-16T18:34:32Z</time>
      </trkpt>
      <trkpt lat="59.185681272231" lon="17.896648066971">
        <ele>77.6</ele>
        <time>2019-10-16T18:34:33Z</time>
      </trkpt>
      <trkpt lat="59.185658892558" lon="17.896631303171">
        <ele>77.8</ele>
        <time>2019-10-16T18:34:34Z</time>
      </trkpt>
      <trkpt lat="59.185640452378" lon="17.896613701181">
        <ele>77.8</ele>
        <time>2019-10-16T18:34:35Z</time>
      </trkpt>
      <trkpt lat="59.185620671094" lon="17.896591070051">
        <ele>77.8</ele>
        <time>2019-10-16T18:34:36Z</time>
      </trkpt>
      <trkpt lat="59.185598626697" lon="17.896570953491">
        <ele>78</ele>
        <time>2019-10-16T18:34:37Z</time>
      </trkpt>
      <trkpt lat="59.185581695259" lon="17.896557290994">
        <ele>78</ele>
        <time>2019-10-16T18:34:38Z</time>
      </trkpt>
      <trkpt lat="59.185564680002" lon="17.896537258253">
        <ele>78.2</ele>
        <time>2019-10-16T18:34:39Z</time>
      </trkpt>
      <trkpt lat="59.185547161831" lon="17.896515632951">
        <ele>78.2</ele>
        <time>2019-10-16T18:34:40Z</time>
      </trkpt>
      <trkpt lat="59.185527799642" lon="17.896489229966">
        <ele>78.2</ele>
        <time>2019-10-16T18:34:41Z</time>
      </trkpt>
      <trkpt lat="59.185510030014" lon="17.896467604664">
        <ele>78.4</ele>
        <time>2019-10-16T18:34:42Z</time>
      </trkpt>
      <trkpt lat="59.185495026413" lon="17.89644866157">
        <ele>78.4</ele>
        <time>2019-10-16T18:34:43Z</time>
      </trkpt>
      <trkpt lat="59.185480274269" lon="17.896428042096">
        <ele>78.4</ele>
        <time>2019-10-16T18:34:44Z</time>
      </trkpt>
      <trkpt lat="59.18546929398" lon="17.896403986043">
        <ele>78.4</ele>
        <time>2019-10-16T18:34:45Z</time>
      </trkpt>
      <trkpt lat="59.185466863229" lon="17.896382612198">
        <ele>78.4</ele>
        <time>2019-10-16T18:34:46Z</time>
      </trkpt>
      <trkpt lat="59.185476921509" lon="17.896367021864">
        <ele>78.4</ele>
        <time>2019-10-16T18:34:47Z</time>
      </trkpt>
      <trkpt lat="59.185493182395" lon="17.896355119566">
        <ele>78.4</ele>
        <time>2019-10-16T18:34:48Z</time>
      </trkpt>
      <trkpt lat="59.185507683082" lon="17.896346653847">
        <ele>78.4</ele>
        <time>2019-10-16T18:34:49Z</time>
      </trkpt>
      <trkpt lat="59.185519333923" lon="17.896338439585">
        <ele>78.4</ele>
        <time>2019-10-16T18:34:50Z</time>
      </trkpt>
      <trkpt lat="59.185534588981" lon="17.896330392961">
        <ele>78.4</ele>
        <time>2019-10-16T18:34:51Z</time>
      </trkpt>
      <trkpt lat="59.185550766048" lon="17.896325280002">
        <ele>78.4</ele>
        <time>2019-10-16T18:34:52Z</time>
      </trkpt>
      <trkpt lat="59.185567026934" lon="17.896321508147">
        <ele>78.4</ele>
        <time>2019-10-16T18:34:53Z</time>
      </trkpt>
      <trkpt lat="59.185585550933" lon="17.896315473179">
        <ele>78.4</ele>
        <time>2019-10-16T18:34:54Z</time>
      </trkpt>
      <trkpt lat="59.185597453231" lon="17.896317568654">
        <ele>78.4</ele>
        <time>2019-10-16T18:34:55Z</time>
      </trkpt>
      <trkpt lat="59.1856101099" lon="17.896321424328">
        <ele>78.4</ele>
        <time>2019-10-16T18:34:56Z</time>
      </trkpt>
      <trkpt lat="59.185622431293" lon="17.896323603622">
        <ele>78.4</ele>
        <time>2019-10-16T18:34:57Z</time>
      </trkpt>
      <trkpt lat="59.185636429066" lon="17.896324106536">
        <ele>78.4</ele>
        <time>2019-10-16T18:34:58Z</time>
      </trkpt>
      <trkpt lat="59.185653947237" lon="17.896323855079">
        <ele>78.4</ele>
        <time>2019-10-16T18:34:59Z</time>
      </trkpt>
      <trkpt lat="59.185667190639" lon="17.89632209488">
        <ele>78.4</ele>
        <time>2019-10-16T18:35:00Z</time>
      </trkpt>
      <trkpt lat="59.185674985806" lon="17.896318574482">
        <ele>78.2</ele>
        <time>2019-10-16T18:35:01Z</time>
      </trkpt>
      <trkpt lat="59.18568722338" lon="17.896327375477">
        <ele>78.2</ele>
        <time>2019-10-16T18:35:02Z</time>
      </trkpt>
      <trkpt lat="59.185701137334" lon="17.896329722409">
        <ele>78.2</ele>
        <time>2019-10-16T18:35:03Z</time>
      </trkpt>
      <trkpt lat="59.18572242736" lon="17.896332739893">
        <ele>78</ele>
        <time>2019-10-16T18:35:04Z</time>
      </trkpt>
      <trkpt lat="59.185742795377" lon="17.896327710753">
        <ele>78</ele>
        <time>2019-10-16T18:35:05Z</time>
      </trkpt>
      <trkpt lat="59.185760732643" lon="17.89631790393">
        <ele>78</ele>
        <time>2019-10-16T18:35:06Z</time>
      </trkpt>
      <trkpt lat="59.185775400968" lon="17.896304995804">
        <ele>78</ele>
        <time>2019-10-16T18:35:07Z</time>
      </trkpt>
      <trkpt lat="59.185788560551" lon="17.896289656927">
        <ele>78</ele>
        <time>2019-10-16T18:35:08Z</time>
      </trkpt>
      <trkpt lat="59.185800630487" lon="17.896267361073">
        <ele>78</ele>
        <time>2019-10-16T18:35:09Z</time>
      </trkpt>
      <trkpt lat="59.185809766758" lon="17.896239700803">
        <ele>78</ele>
        <time>2019-10-16T18:35:10Z</time>
      </trkpt>
      <trkpt lat="59.185829128947" lon="17.896202066072">
        <ele>78</ele>
        <time>2019-10-16T18:35:11Z</time>
      </trkpt>
      <trkpt lat="59.185848658774" lon="17.896165437169">
        <ele>78</ele>
        <time>2019-10-16T18:35:12Z</time>
      </trkpt>
      <trkpt lat="59.185865338755" lon="17.89613098756">
        <ele>78</ele>
        <time>2019-10-16T18:35:13Z</time>
      </trkpt>
      <trkpt lat="59.185884030392" lon="17.896096789408">
        <ele>78</ele>
        <time>2019-10-16T18:35:14Z</time>
      </trkpt>
      <trkpt lat="59.185905404237" lon="17.89607399064">
        <ele>78</ele>
        <time>2019-10-16T18:35:15Z</time>
      </trkpt>
      <trkpt lat="59.185927867729" lon="17.896058232668">
        <ele>78</ele>
        <time>2019-10-16T18:35:16Z</time>
      </trkpt>
      <trkpt lat="59.185952342877" lon="17.896039457212">
        <ele>78</ele>
        <time>2019-10-16T18:35:17Z</time>
      </trkpt>
      <trkpt lat="59.185977320939" lon="17.896012886589">
        <ele>78</ele>
        <time>2019-10-16T18:35:18Z</time>
      </trkpt>
      <trkpt lat="59.186003723924" lon="17.89598262793">
        <ele>78</ele>
        <time>2019-10-16T18:35:19Z</time>
      </trkpt>
      <trkpt lat="59.186027779977" lon="17.895953878013">
        <ele>78</ele>
        <time>2019-10-16T18:35:20Z</time>
      </trkpt>
      <trkpt lat="59.186050662564" lon="17.895918841671">
        <ele>78</ele>
        <time>2019-10-16T18:35:21Z</time>
      </trkpt>
      <trkpt lat="59.186083351974" lon="17.895887744822">
        <ele>78</ele>
        <time>2019-10-16T18:35:22Z</time>
      </trkpt>
      <trkpt lat="59.186111682796" lon="17.895853965765">
        <ele>78</ele>
        <time>2019-10-16T18:35:23Z</time>
      </trkpt>
      <trkpt lat="59.186142779645" lon="17.895819683794">
        <ele>78</ele>
        <time>2019-10-16T18:35:24Z</time>
      </trkpt>
      <trkpt lat="59.186170188458" lon="17.895788922221">
        <ele>78</ele>
        <time>2019-10-16T18:35:25Z</time>
      </trkpt>
      <trkpt lat="59.186188125724" lon="17.895747767092">
        <ele>78</ele>
        <time>2019-10-16T18:35:26Z</time>
      </trkpt>
      <trkpt lat="59.186205476257" lon="17.895712311655">
        <ele>78</ele>
        <time>2019-10-16T18:35:27Z</time>
      </trkpt>
      <trkpt lat="59.186222659152" lon="17.895677945865">
        <ele>78</ele>
        <time>2019-10-16T18:35:28Z</time>
      </trkpt>
      <trkpt lat="59.186238333305" lon="17.89564483736">
        <ele>78</ele>
        <time>2019-10-16T18:35:29Z</time>
      </trkpt>
      <trkpt lat="59.186261970263" lon="17.895605526249">
        <ele>78</ele>
        <time>2019-10-16T18:35:30Z</time>
      </trkpt>
      <trkpt lat="59.186306142876" lon="17.895533022814">
        <ele>78</ele>
        <time>2019-10-16T18:35:32Z</time>
      </trkpt>
      <trkpt lat="59.186326427074" lon="17.895496226273">
        <ele>78</ele>
        <time>2019-10-16T18:35:33Z</time>
      </trkpt>
      <trkpt lat="59.186350483127" lon="17.895472254039">
        <ele>78</ele>
        <time>2019-10-16T18:35:34Z</time>
      </trkpt>
      <trkpt lat="59.186374203904" lon="17.895451131651">
        <ele>78</ele>
        <time>2019-10-16T18:35:35Z</time>
      </trkpt>
      <trkpt lat="59.186394404283" lon="17.895432942928">
        <ele>78</ele>
        <time>2019-10-16T18:35:36Z</time>
      </trkpt>
      <trkpt lat="59.18642399239" lon="17.895431853281">
        <ele>78</ele>
        <time>2019-10-16T18:35:37Z</time>
      </trkpt>
      <trkpt lat="59.186453664316" lon="17.895443839398">
        <ele>78.2</ele>
        <time>2019-10-16T18:35:38Z</time>
      </trkpt>
      <trkpt lat="59.186481659862" lon="17.895466051433">
        <ele>78.2</ele>
        <time>2019-10-16T18:35:39Z</time>
      </trkpt>
      <trkpt lat="59.186507559933" lon="17.895492789694">
        <ele>78.6</ele>
        <time>2019-10-16T18:35:40Z</time>
      </trkpt>
      <trkpt lat="59.186529352873" lon="17.895520198507">
        <ele>78.6</ele>
        <time>2019-10-16T18:35:41Z</time>
      </trkpt>
      <trkpt lat="59.186548798881" lon="17.895546936768">
        <ele>78.6</ele>
        <time>2019-10-16T18:35:42Z</time>
      </trkpt>
      <trkpt lat="59.186570256545" lon="17.895579039445">
        <ele>78.6</ele>
        <time>2019-10-16T18:35:43Z</time>
      </trkpt>
      <trkpt lat="59.186598755005" lon="17.895624972257">
        <ele>78.6</ele>
        <time>2019-10-16T18:35:44Z</time>
      </trkpt>
      <trkpt lat="59.18662515799" lon="17.895672665268">
        <ele>78.6</ele>
        <time>2019-10-16T18:35:45Z</time>
      </trkpt>
      <trkpt lat="59.186651393337" lon="17.895712646931">
        <ele>78.6</ele>
        <time>2019-10-16T18:35:46Z</time>
      </trkpt>
      <trkpt lat="59.186674359743" lon="17.895749694929">
        <ele>78.6</ele>
        <time>2019-10-16T18:35:47Z</time>
      </trkpt>
      <trkpt lat="59.186699002529" lon="17.895787748755">
        <ele>78.6</ele>
        <time>2019-10-16T18:35:48Z</time>
      </trkpt>
      <trkpt lat="59.18671819708" lon="17.895815492844">
        <ele>78.6</ele>
        <time>2019-10-16T18:35:49Z</time>
      </trkpt>
      <trkpt lat="59.186749042472" lon="17.895847260245">
        <ele>78.6</ele>
        <time>2019-10-16T18:35:50Z</time>
      </trkpt>
      <trkpt lat="59.186768069385" lon="17.895863772588">
        <ele>78.6</ele>
        <time>2019-10-16T18:35:51Z</time>
      </trkpt>
      <trkpt lat="59.186783911176" lon="17.895883805329">
        <ele>78.6</ele>
        <time>2019-10-16T18:35:52Z</time>
      </trkpt>
      <trkpt lat="59.186801596985" lon="17.895899228025">
        <ele>78.8</ele>
        <time>2019-10-16T18:35:53Z</time>
      </trkpt>
      <trkpt lat="59.186820707717" lon="17.895916075644">
        <ele>78.8</ele>
        <time>2019-10-16T18:35:54Z</time>
      </trkpt>
      <trkpt lat="59.186836800965" lon="17.895924122268">
        <ele>78.8</ele>
        <time>2019-10-16T18:35:55Z</time>
      </trkpt>
      <trkpt lat="59.186851720747" lon="17.895931246883">
        <ele>79.2</ele>
        <time>2019-10-16T18:35:56Z</time>
      </trkpt>
      <trkpt lat="59.186869322737" lon="17.895949184149">
        <ele>79.2</ele>
        <time>2019-10-16T18:35:57Z</time>
      </trkpt>
      <trkpt lat="59.186881308854" lon="17.895959661524">
        <ele>79.2</ele>
        <time>2019-10-16T18:35:58Z</time>
      </trkpt>
      <trkpt lat="59.1868925406" lon="17.895973743116">
        <ele>79.2</ele>
        <time>2019-10-16T18:35:59Z</time>
      </trkpt>
      <trkpt lat="59.186903269432" lon="17.895982208835">
        <ele>79.4</ele>
        <time>2019-10-16T18:36:00Z</time>
      </trkpt>
      <trkpt lat="59.186909891133" lon="17.895987489432">
        <ele>79.8</ele>
        <time>2019-10-16T18:36:01Z</time>
      </trkpt>
      <trkpt lat="59.186822300278" lon="17.895971312365">
        <ele>81.4</ele>
        <time>2019-10-16T18:40:26Z</time>
      </trkpt>
      <trkpt lat="59.186796316388" lon="17.895939125869">
        <ele>81.4</ele>
        <time>2019-10-16T18:40:27Z</time>
      </trkpt>
      <trkpt lat="59.186767734109" lon="17.895897551645">
        <ele>81.2</ele>
        <time>2019-10-16T18:40:28Z</time>
      </trkpt>
      <trkpt lat="59.186742756047" lon="17.895841392915">
        <ele>81.2</ele>
        <time>2019-10-16T18:40:29Z</time>
      </trkpt>
      <trkpt lat="59.186720627831" lon="17.895779618312">
        <ele>81.2</ele>
        <time>2019-10-16T18:40:30Z</time>
      </trkpt>
      <trkpt lat="59.186702774384" lon="17.895720777374">
        <ele>81</ele>
        <time>2019-10-16T18:40:31Z</time>
      </trkpt>
      <trkpt lat="59.186685675308" lon="17.895667384671">
        <ele>80.8</ele>
        <time>2019-10-16T18:40:32Z</time>
      </trkpt>
      <trkpt lat="59.186666983671" lon="17.895610806846">
        <ele>80.8</ele>
        <time>2019-10-16T18:40:33Z</time>
      </trkpt>
      <trkpt lat="59.186647621482" lon="17.895553307012">
        <ele>80.6</ele>
        <time>2019-10-16T18:40:34Z</time>
      </trkpt>
      <trkpt lat="59.186629768035" lon="17.89550150687">
        <ele>80.4</ele>
        <time>2019-10-16T18:40:35Z</time>
      </trkpt>
      <trkpt lat="59.186615434986" lon="17.895459345913">
        <ele>80</ele>
        <time>2019-10-16T18:40:36Z</time>
      </trkpt>
      <trkpt lat="59.186601940127" lon="17.895413832196">
        <ele>79.8</ele>
        <time>2019-10-16T18:40:37Z</time>
      </trkpt>
      <trkpt lat="59.186586685069" lon="17.895368905212">
        <ele>79.6</ele>
        <time>2019-10-16T18:40:38Z</time>
      </trkpt>
      <trkpt lat="59.186571430011" lon="17.895330264653">
        <ele>79.4</ele>
        <time>2019-10-16T18:40:39Z</time>
      </trkpt>
      <trkpt lat="59.186556677867" lon="17.895293803388">
        <ele>79.2</ele>
        <time>2019-10-16T18:40:40Z</time>
      </trkpt>
      <trkpt lat="59.186544021198" lon="17.895252899716">
        <ele>79.4</ele>
        <time>2019-10-16T18:40:41Z</time>
      </trkpt>
      <trkpt lat="59.186536142212" lon="17.895208391827">
        <ele>79.2</ele>
        <time>2019-10-16T18:40:42Z</time>
      </trkpt>
      <trkpt lat="59.186532035081" lon="17.895171008553">
        <ele>79.2</ele>
        <time>2019-10-16T18:40:43Z</time>
      </trkpt>
      <trkpt lat="59.186532202719" lon="17.895143180645">
        <ele>79.2</ele>
        <time>2019-10-16T18:40:44Z</time>
      </trkpt>
      <trkpt lat="59.186534717289" lon="17.895119543687">
        <ele>79.2</ele>
        <time>2019-10-16T18:40:45Z</time>
      </trkpt>
      <trkpt lat="59.186540752257" lon="17.895091045227">
        <ele>79.2</ele>
        <time>2019-10-16T18:40:46Z</time>
      </trkpt>
      <trkpt lat="59.186549217976" lon="17.895051985573">
        <ele>79</ele>
        <time>2019-10-16T18:40:47Z</time>
      </trkpt>
      <trkpt lat="59.186554917668" lon="17.895018457973">
        <ele>79.2</ele>
        <time>2019-10-16T18:40:48Z</time>
      </trkpt>
      <trkpt lat="59.186553408926" lon="17.894985768563">
        <ele>79</ele>
        <time>2019-10-16T18:40:49Z</time>
      </trkpt>
      <trkpt lat="59.186560952636" lon="17.894944864891">
        <ele>79</ele>
        <time>2019-10-16T18:40:50Z</time>
      </trkpt>
      <trkpt lat="59.186568496346" lon="17.894903123029">
        <ele>79</ele>
        <time>2019-10-16T18:40:51Z</time>
      </trkpt>
      <trkpt lat="59.186574279857" lon="17.894857693131">
        <ele>79</ele>
        <time>2019-10-16T18:40:52Z</time>
      </trkpt>
      <trkpt lat="59.186586936526" lon="17.894804635704">
        <ele>79</ele>
        <time>2019-10-16T18:40:53Z</time>
      </trkpt>
      <trkpt lat="59.186599341738" lon="17.894745794766">
        <ele>78.8</ele>
        <time>2019-10-16T18:40:54Z</time>
      </trkpt>
      <trkpt lat="59.186608729466" lon="17.894686870009">
        <ele>78.8</ele>
        <time>2019-10-16T18:40:55Z</time>
      </trkpt>
      <trkpt lat="59.186614093882" lon="17.894633477306">
        <ele>78.8</ele>
        <time>2019-10-16T18:40:56Z</time>
      </trkpt>
      <trkpt lat="59.186619542117" lon="17.894578994956">
        <ele>78.8</ele>
        <time>2019-10-16T18:40:57Z</time>
      </trkpt>
      <trkpt lat="59.186622894877" lon="17.894522249493">
        <ele>78.8</ele>
        <time>2019-10-16T18:40:58Z</time>
      </trkpt>
      <trkpt lat="59.186633372252" lon="17.894468437695">
        <ele>78.8</ele>
        <time>2019-10-16T18:40:59Z</time>
      </trkpt>
      <trkpt lat="59.186642676161" lon="17.894411105499">
        <ele>78.8</ele>
        <time>2019-10-16T18:41:00Z</time>
      </trkpt>
      <trkpt lat="59.186652482984" lon="17.894347570697">
        <ele>78.8</ele>
        <time>2019-10-16T18:41:01Z</time>
      </trkpt>
      <trkpt lat="59.186661786893" lon="17.894284371171">
        <ele>79</ele>
        <time>2019-10-16T18:41:02Z</time>
      </trkpt>
      <trkpt lat="59.186668660051" lon="17.894227206613">
        <ele>79</ele>
        <time>2019-10-16T18:41:03Z</time>
      </trkpt>
      <trkpt lat="59.186672767182" lon="17.894175406471">
        <ele>79.2</ele>
        <time>2019-10-16T18:41:04Z</time>
      </trkpt>
      <trkpt lat="59.186678885969" lon="17.894121343216">
        <ele>79.2</ele>
        <time>2019-10-16T18:41:05Z</time>
      </trkpt>
      <trkpt lat="59.186686178222" lon="17.894065100667">
        <ele>79.2</ele>
        <time>2019-10-16T18:41:06Z</time>
      </trkpt>
      <trkpt lat="59.186692799923" lon="17.894013049068">
        <ele>79.4</ele>
        <time>2019-10-16T18:41:07Z</time>
      </trkpt>
      <trkpt lat="59.186698331977" lon="17.893961416564">
        <ele>79.4</ele>
        <time>2019-10-16T18:41:08Z</time>
      </trkpt>
      <trkpt lat="59.186701517099" lon="17.893907101852">
        <ele>79.4</ele>
        <time>2019-10-16T18:41:09Z</time>
      </trkpt>
      <trkpt lat="59.186697996701" lon="17.893816996427">
        <ele>79.4</ele>
        <time>2019-10-16T18:41:11Z</time>
      </trkpt>
      <trkpt lat="59.186703612574" lon="17.893769973968">
        <ele>79.4</ele>
        <time>2019-10-16T18:41:12Z</time>
      </trkpt>
      <trkpt lat="59.186710150456" lon="17.893719766387">
        <ele>79.4</ele>
        <time>2019-10-16T18:41:13Z</time>
      </trkpt>
      <trkpt lat="59.186717861804" lon="17.893674504127">
        <ele>79.4</ele>
        <time>2019-10-16T18:41:14Z</time>
      </trkpt>
      <trkpt lat="59.186727081894" lon="17.893637959043">
        <ele>79.4</ele>
        <time>2019-10-16T18:41:15Z</time>
      </trkpt>
      <trkpt lat="59.186737643088" lon="17.893589092566">
        <ele>79.4</ele>
        <time>2019-10-16T18:41:16Z</time>
      </trkpt>
      <trkpt lat="59.186751557042" lon="17.89353008399">
        <ele>79.4</ele>
        <time>2019-10-16T18:41:17Z</time>
      </trkpt>
      <trkpt lat="59.186765387177" lon="17.893468393206">
        <ele>79.4</ele>
        <time>2019-10-16T18:41:18Z</time>
      </trkpt>
      <trkpt lat="59.186780474597" lon="17.89340519368">
        <ele>79.4</ele>
        <time>2019-10-16T18:41:19Z</time>
      </trkpt>
      <trkpt lat="59.186793215085" lon="17.893338725213">
        <ele>79.4</ele>
        <time>2019-10-16T18:41:20Z</time>
      </trkpt>
      <trkpt lat="59.18680704522" lon="17.893274938954">
        <ele>79.4</ele>
        <time>2019-10-16T18:41:21Z</time>
      </trkpt>
      <trkpt lat="59.186821713545" lon="17.893219283138">
        <ele>79.4</ele>
        <time>2019-10-16T18:41:22Z</time>
      </trkpt>
      <trkpt lat="59.186835795137" lon="17.89316630953">
        <ele>79.4</ele>
        <time>2019-10-16T18:41:23Z</time>
      </trkpt>
      <trkpt lat="59.186848870901" lon="17.893108558239">
        <ele>79.4</ele>
        <time>2019-10-16T18:41:24Z</time>
      </trkpt>
      <trkpt lat="59.186864628873" lon="17.893047789464">
        <ele>79.4</ele>
        <time>2019-10-16T18:41:25Z</time>
      </trkpt>
      <trkpt lat="59.186871418212" lon="17.892978722608">
        <ele>79.4</ele>
        <time>2019-10-16T18:41:26Z</time>
      </trkpt>
      <trkpt lat="59.186875357705" lon="17.892904961888">
        <ele>79.4</ele>
        <time>2019-10-16T18:41:27Z</time>
      </trkpt>
      <trkpt lat="59.186872926954" lon="17.892830530616">
        <ele>79.6</ele>
        <time>2019-10-16T18:41:28Z</time>
      </trkpt>
      <trkpt lat="59.186870328565" lon="17.892760960846">
        <ele>79.6</ele>
        <time>2019-10-16T18:41:29Z</time>
      </trkpt>
      <trkpt lat="59.186866640529" lon="17.892689714696">
        <ele>79.6</ele>
        <time>2019-10-16T18:41:30Z</time>
      </trkpt>
      <trkpt lat="59.186862533398" lon="17.892628275369">
        <ele>79.6</ele>
        <time>2019-10-16T18:41:31Z</time>
      </trkpt>
      <trkpt lat="59.186857420439" lon="17.892571865182">
        <ele>79.6</ele>
        <time>2019-10-16T18:41:32Z</time>
      </trkpt>
      <trkpt lat="59.186849038539" lon="17.892517969565">
        <ele>79.6</ele>
        <time>2019-10-16T18:41:33Z</time>
      </trkpt>
      <trkpt lat="59.186842668295" lon="17.892450746727">
        <ele>79.8</ele>
        <time>2019-10-16T18:41:34Z</time>
      </trkpt>
      <trkpt lat="59.186839231716" lon="17.89239014559">
        <ele>79.8</ele>
        <time>2019-10-16T18:41:35Z</time>
      </trkpt>
      <trkpt lat="59.186838812621" lon="17.892334322136">
        <ele>79.8</ele>
        <time>2019-10-16T18:41:36Z</time>
      </trkpt>
      <trkpt lat="59.186841159553" lon="17.892275732655">
        <ele>79.8</ele>
        <time>2019-10-16T18:41:37Z</time>
      </trkpt>
      <trkpt lat="59.186836549508" lon="17.892216388803">
        <ele>79.8</ele>
        <time>2019-10-16T18:41:38Z</time>
      </trkpt>
      <trkpt lat="59.186834118757" lon="17.89215629058">
        <ele>79.8</ele>
        <time>2019-10-16T18:41:39Z</time>
      </trkpt>
      <trkpt lat="59.186833951119" lon="17.892099377479">
        <ele>79.8</ele>
        <time>2019-10-16T18:41:40Z</time>
      </trkpt>
      <trkpt lat="59.186832442377" lon="17.892052438839">
        <ele>79.8</ele>
        <time>2019-10-16T18:41:41Z</time>
      </trkpt>
      <trkpt lat="59.186828586703" lon="17.89200876914">
        <ele>79.8</ele>
        <time>2019-10-16T18:41:42Z</time>
      </trkpt>
      <trkpt lat="59.18681961807" lon="17.891975073902">
        <ele>79.8</ele>
        <time>2019-10-16T18:41:43Z</time>
      </trkpt>
      <trkpt lat="59.186812744912" lon="17.891942300673">
        <ele>80</ele>
        <time>2019-10-16T18:41:44Z</time>
      </trkpt>
      <trkpt lat="59.186811822903" lon="17.891907767245">
        <ele>80</ele>
        <time>2019-10-16T18:41:45Z</time>
      </trkpt>
      <trkpt lat="59.186808386324" lon="17.891873485274">
        <ele>80</ele>
        <time>2019-10-16T18:41:46Z</time>
      </trkpt>
      <trkpt lat="59.186800758795" lon="17.891837946018">
        <ele>80</ele>
        <time>2019-10-16T18:41:47Z</time>
      </trkpt>
      <trkpt lat="59.186799082415" lon="17.891799724554">
        <ele>80</ele>
        <time>2019-10-16T18:41:48Z</time>
      </trkpt>
      <trkpt lat="59.186794304732" lon="17.891751780086">
        <ele>80</ele>
        <time>2019-10-16T18:41:49Z</time>
      </trkpt>
      <trkpt lat="59.186790449058" lon="17.891708361844">
        <ele>80.2</ele>
        <time>2019-10-16T18:41:50Z</time>
      </trkpt>
      <trkpt lat="59.186782905348" lon="17.89167181676">
        <ele>80.2</ele>
        <time>2019-10-16T18:41:51Z</time>
      </trkpt>
      <trkpt lat="59.186776283647" lon="17.891640971368">
        <ele>80.4</ele>
        <time>2019-10-16T18:41:52Z</time>
      </trkpt>
      <trkpt lat="59.186772344154" lon="17.891613311098">
        <ele>80.4</ele>
        <time>2019-10-16T18:41:53Z</time>
      </trkpt>
      <trkpt lat="59.186772847068" lon="17.89158715957">
        <ele>80.4</ele>
        <time>2019-10-16T18:41:54Z</time>
      </trkpt>
      <trkpt lat="59.186775445457" lon="17.891554051065">
        <ele>80.4</ele>
        <time>2019-10-16T18:41:55Z</time>
      </trkpt>
      <trkpt lat="59.186779887864" lon="17.891516416334">
        <ele>80.4</ele>
        <time>2019-10-16T18:41:56Z</time>
      </trkpt>
      <trkpt lat="59.186778882036" lon="17.891469729151">
        <ele>80.4</ele>
        <time>2019-10-16T18:41:57Z</time>
      </trkpt>
      <trkpt lat="59.186777792389" lon="17.891416420267">
        <ele>80.4</ele>
        <time>2019-10-16T18:41:58Z</time>
      </trkpt>
      <trkpt lat="59.186781648063" lon="17.891371996197">
        <ele>80.4</ele>
        <time>2019-10-16T18:41:59Z</time>
      </trkpt>
      <trkpt lat="59.186786509565" lon="17.891329332326">
        <ele>80.4</ele>
        <time>2019-10-16T18:42:00Z</time>
      </trkpt>
      <trkpt lat="59.186794640008" lon="17.891291529957">
        <ele>80.4</ele>
        <time>2019-10-16T18:42:01Z</time>
      </trkpt>
      <trkpt lat="59.186797992768" lon="17.891249788095">
        <ele>80.4</ele>
        <time>2019-10-16T18:42:02Z</time>
      </trkpt>
      <trkpt lat="59.186802518994" lon="17.891206956586">
        <ele>80.4</ele>
        <time>2019-10-16T18:42:03Z</time>
      </trkpt>
      <trkpt lat="59.18681207436" lon="17.891171249692">
        <ele>80.4</ele>
        <time>2019-10-16T18:42:04Z</time>
      </trkpt>
      <trkpt lat="59.186817187319" lon="17.891131435667">
        <ele>80.4</ele>
        <time>2019-10-16T18:42:05Z</time>
      </trkpt>
      <trkpt lat="59.186824144296" lon="17.891094974402">
        <ele>80.4</ele>
        <time>2019-10-16T18:42:06Z</time>
      </trkpt>
      <trkpt lat="59.186831101273" lon="17.891061111526">
        <ele>80.4</ele>
        <time>2019-10-16T18:42:07Z</time>
      </trkpt>
      <trkpt lat="59.186844512313" lon="17.891025488451">
        <ele>80.6</ele>
        <time>2019-10-16T18:42:08Z</time>
      </trkpt>
      <trkpt lat="59.186863539226" lon="17.890988272815">
        <ele>80.6</ele>
        <time>2019-10-16T18:42:09Z</time>
      </trkpt>
      <trkpt lat="59.186874854791" lon="17.890955080491">
        <ele>80.6</ele>
        <time>2019-10-16T18:42:10Z</time>
      </trkpt>
      <trkpt lat="59.186886757089" lon="17.890926582031">
        <ele>80.6</ele>
        <time>2019-10-16T18:42:11Z</time>
      </trkpt>
      <trkpt lat="59.186896060998" lon="17.890896910105">
        <ele>80.6</ele>
        <time>2019-10-16T18:42:12Z</time>
      </trkpt>
      <trkpt lat="59.1869009225" lon="17.890872015862">
        <ele>80.6</ele>
        <time>2019-10-16T18:42:13Z</time>
      </trkpt>
      <trkpt lat="59.186910729323" lon="17.890857012261">
        <ele>80.6</ele>
        <time>2019-10-16T18:42:14Z</time>
      </trkpt>
      <trkpt lat="59.186914752635" lon="17.890836895701">
        <ele>80.6</ele>
        <time>2019-10-16T18:42:15Z</time>
      </trkpt>
      <trkpt lat="59.18690511345" lon="17.890800685893">
        <ele>80.6</ele>
        <time>2019-10-16T18:42:16Z</time>
      </trkpt>
      <trkpt lat="59.186906035459" lon="17.890755339814">
        <ele>80.6</ele>
        <time>2019-10-16T18:42:17Z</time>
      </trkpt>
      <trkpt lat="59.186912405703" lon="17.890708987907">
        <ele>80.6</ele>
        <time>2019-10-16T18:42:18Z</time>
      </trkpt>
      <trkpt lat="59.186918021576" lon="17.890656349575">
        <ele>80.6</ele>
        <time>2019-10-16T18:42:19Z</time>
      </trkpt>
      <trkpt lat="59.186922128707" lon="17.890608908021">
        <ele>80.6</ele>
        <time>2019-10-16T18:42:20Z</time>
      </trkpt>
      <trkpt lat="59.186927241666" lon="17.890567585254">
        <ele>80.6</ele>
        <time>2019-10-16T18:42:21Z</time>
      </trkpt>
      <trkpt lat="59.186926152019" lon="17.890525927211">
        <ele>80.6</ele>
        <time>2019-10-16T18:42:22Z</time>
      </trkpt>
      <trkpt lat="59.186924475639" lon="17.890493489258">
        <ele>80.6</ele>
        <time>2019-10-16T18:42:23Z</time>
      </trkpt>
      <trkpt lat="59.186927660761" lon="17.89045476488">
        <ele>80.6</ele>
        <time>2019-10-16T18:42:24Z</time>
      </trkpt>
      <trkpt lat="59.186932689901" lon="17.890416040502">
        <ele>80.6</ele>
        <time>2019-10-16T18:42:25Z</time>
      </trkpt>
      <trkpt lat="59.186941742353" lon="17.890372454622">
        <ele>80.6</ele>
        <time>2019-10-16T18:42:26Z</time>
      </trkpt>
      <trkpt lat="59.186952471185" lon="17.890323336688">
        <ele>80.6</ele>
        <time>2019-10-16T18:42:27Z</time>
      </trkpt>
      <trkpt lat="59.186960601628" lon="17.890272374736">
        <ele>80.4</ele>
        <time>2019-10-16T18:42:28Z</time>
      </trkpt>
      <trkpt lat="59.1869679777" lon="17.890220658413">
        <ele>80.4</ele>
        <time>2019-10-16T18:42:29Z</time>
      </trkpt>
      <trkpt lat="59.186975940505" lon="17.890181095845">
        <ele>80.4</ele>
        <time>2019-10-16T18:42:30Z</time>
      </trkpt>
      <trkpt lat="59.186985747328" lon="17.890149747539">
        <ele>80.4</ele>
        <time>2019-10-16T18:42:31Z</time>
      </trkpt>
      <trkpt lat="59.186996224703" lon="17.890126864952">
        <ele>80.4</ele>
        <time>2019-10-16T18:42:32Z</time>
      </trkpt>
      <trkpt lat="59.187001170024" lon="17.890105826383">
        <ele>80.4</ele>
        <time>2019-10-16T18:42:33Z</time>
      </trkpt>
      <trkpt lat="59.187008965191" lon="17.890088140574">
        <ele>80.4</ele>
        <time>2019-10-16T18:42:34Z</time>
      </trkpt>
      <trkpt lat="59.187021286584" lon="17.89006333015">
        <ele>80.4</ele>
        <time>2019-10-16T18:42:35Z</time>
      </trkpt>
      <trkpt lat="59.187033272701" lon="17.8900423754">
        <ele>80.4</ele>
        <time>2019-10-16T18:42:36Z</time>
      </trkpt>
      <trkpt lat="59.187037296013" lon="17.890006417049">
        <ele>80.4</ele>
        <time>2019-10-16T18:42:37Z</time>
      </trkpt>
      <trkpt lat="59.187039307669" lon="17.88996358554">
        <ele>80.4</ele>
        <time>2019-10-16T18:42:38Z</time>
      </trkpt>
      <trkpt lat="59.18704257661" lon="17.889916311624">
        <ele>80.4</ele>
        <time>2019-10-16T18:42:39Z</time>
      </trkpt>
      <trkpt lat="59.187044169171" lon="17.88986970826">
        <ele>80.4</ele>
        <time>2019-10-16T18:42:40Z</time>
      </trkpt>
      <trkpt lat="59.187048946854" lon="17.889820171231">
        <ele>80.4</ele>
        <time>2019-10-16T18:42:41Z</time>
      </trkpt>
      <trkpt lat="59.187057496392" lon="17.889773484048">
        <ele>80.4</ele>
        <time>2019-10-16T18:42:42Z</time>
      </trkpt>
      <trkpt lat="59.187060010962" lon="17.889724869028">
        <ele>80.4</ele>
        <time>2019-10-16T18:42:43Z</time>
      </trkpt>
      <trkpt lat="59.187063196084" lon="17.889670051402">
        <ele>80.4</ele>
        <time>2019-10-16T18:42:44Z</time>
      </trkpt>
      <trkpt lat="59.187065291559" lon="17.889616155785">
        <ele>80.4</ele>
        <time>2019-10-16T18:42:45Z</time>
      </trkpt>
      <trkpt lat="59.187072919088" lon="17.889571228801">
        <ele>80.4</ele>
        <time>2019-10-16T18:42:46Z</time>
      </trkpt>
      <trkpt lat="59.187083228825" lon="17.889523368152">
        <ele>80.4</ele>
        <time>2019-10-16T18:42:47Z</time>
      </trkpt>
      <trkpt lat="59.187094209114" lon="17.889479279358">
        <ele>80.4</ele>
        <time>2019-10-16T18:42:48Z</time>
      </trkpt>
      <trkpt lat="59.18710627905" lon="17.889432005442">
        <ele>80.2</ele>
        <time>2019-10-16T18:42:49Z</time>
      </trkpt>
      <trkpt lat="59.187121617927" lon="17.889387581372">
        <ele>80.2</ele>
        <time>2019-10-16T18:42:50Z</time>
      </trkpt>
      <trkpt lat="59.187138717003" lon="17.889360759292">
        <ele>80.2</ele>
        <time>2019-10-16T18:42:51Z</time>
      </trkpt>
      <trkpt lat="59.18715824683" lon="17.889339385447">
        <ele>80.2</ele>
        <time>2019-10-16T18:42:52Z</time>
      </trkpt>
      <trkpt lat="59.18717836339" lon="17.889306863675">
        <ele>80.2</ele>
        <time>2019-10-16T18:42:53Z</time>
      </trkpt>
      <trkpt lat="59.187195630104" lon="17.889271324419">
        <ele>80.2</ele>
        <time>2019-10-16T18:42:54Z</time>
      </trkpt>
      <trkpt lat="59.187215495207" lon="17.889237964457">
        <ele>80.2</ele>
        <time>2019-10-16T18:42:55Z</time>
      </trkpt>
      <trkpt lat="59.187234605939" lon="17.889206448513">
        <ele>80.2</ele>
        <time>2019-10-16T18:42:56Z</time>
      </trkpt>
      <trkpt lat="59.187251453558" lon="17.889169316696">
        <ele>80</ele>
        <time>2019-10-16T18:42:57Z</time>
      </trkpt>
      <trkpt lat="59.187265116055" lon="17.889122964789">
        <ele>80</ele>
        <time>2019-10-16T18:42:58Z</time>
      </trkpt>
      <trkpt lat="59.187274168507" lon="17.889076193787">
        <ele>80</ele>
        <time>2019-10-16T18:42:59Z</time>
      </trkpt>
      <trkpt lat="59.187278862371" lon="17.889028333138">
        <ele>80</ele>
        <time>2019-10-16T18:43:00Z</time>
      </trkpt>
      <trkpt lat="59.187277102172" lon="17.888979382842">
        <ele>80</ele>
        <time>2019-10-16T18:43:01Z</time>
      </trkpt>
      <trkpt lat="59.187279532923" lon="17.88892422994">
        <ele>80</ele>
        <time>2019-10-16T18:43:02Z</time>
      </trkpt>
      <trkpt lat="59.18728481352" lon="17.888870753418">
        <ele>80</ele>
        <time>2019-10-16T18:43:03Z</time>
      </trkpt>
      <trkpt lat="59.187292943963" lon="17.888820629656">
        <ele>80</ele>
        <time>2019-10-16T18:43:04Z</time>
      </trkpt>
      <trkpt lat="59.187302750786" lon="17.888777630509">
        <ele>80</ele>
        <time>2019-10-16T18:43:05Z</time>
      </trkpt>
      <trkpt lat="59.187310294496" lon="17.888731194783">
        <ele>80</ele>
        <time>2019-10-16T18:43:06Z</time>
      </trkpt>
      <trkpt lat="59.187320436595" lon="17.888688195636">
        <ele>80</ele>
        <time>2019-10-16T18:43:07Z</time>
      </trkpt>
      <trkpt lat="59.187329991961" lon="17.888646705231">
        <ele>80</ele>
        <time>2019-10-16T18:43:08Z</time>
      </trkpt>
      <trkpt lat="59.187338541499" lon="17.888602616437">
        <ele>80</ele>
        <time>2019-10-16T18:43:09Z</time>
      </trkpt>
      <trkpt lat="59.187347091037" lon="17.888563053869">
        <ele>80</ele>
        <time>2019-10-16T18:43:10Z</time>
      </trkpt>
      <trkpt lat="59.187355556756" lon="17.888527682251">
        <ele>80</ele>
        <time>2019-10-16T18:43:11Z</time>
      </trkpt>
      <trkpt lat="59.187365615036" lon="17.88849759123">
        <ele>80</ele>
        <time>2019-10-16T18:43:12Z</time>
      </trkpt>
      <trkpt lat="59.187375086583" lon="17.888470182417">
        <ele>80</ele>
        <time>2019-10-16T18:43:13Z</time>
      </trkpt>
      <trkpt lat="59.187383300845" lon="17.888444449984">
        <ele>80</ele>
        <time>2019-10-16T18:43:14Z</time>
      </trkpt>
      <trkpt lat="59.187387324157" lon="17.888424584881">
        <ele>80</ele>
        <time>2019-10-16T18:43:15Z</time>
      </trkpt>
      <trkpt lat="59.187387240338" lon="17.888414694239">
        <ele>79.8</ele>
        <time>2019-10-16T18:43:16Z</time>
      </trkpt>
      <trkpt lat="59.187416074074" lon="17.888324337357">
        <ele>79.8</ele>
        <time>2019-10-16T18:43:57Z</time>
      </trkpt>
      <trkpt lat="59.187426886725" lon="17.888288127549">
        <ele>79.8</ele>
        <time>2019-10-16T18:43:58Z</time>
      </trkpt>
      <trkpt lat="59.187440297765" lon="17.888240769814">
        <ele>79.8</ele>
        <time>2019-10-16T18:43:59Z</time>
      </trkpt>
      <trkpt lat="59.187454798452" lon="17.888183772894">
        <ele>79.8</ele>
        <time>2019-10-16T18:44:00Z</time>
      </trkpt>
      <trkpt lat="59.187468460949" lon="17.88812711125">
        <ele>79.8</ele>
        <time>2019-10-16T18:44:01Z</time>
      </trkpt>
      <trkpt lat="59.187478938324" lon="17.888055613643">
        <ele>79.8</ele>
        <time>2019-10-16T18:44:02Z</time>
      </trkpt>
      <trkpt lat="59.187488661328" lon="17.887985624778">
        <ele>79.8</ele>
        <time>2019-10-16T18:44:03Z</time>
      </trkpt>
      <trkpt lat="59.187498971065" lon="17.88792007832">
        <ele>79.8</ele>
        <time>2019-10-16T18:44:04Z</time>
      </trkpt>
      <trkpt lat="59.187510621906" lon="17.887856794975">
        <ele>79.8</ele>
        <time>2019-10-16T18:44:05Z</time>
      </trkpt>
      <trkpt lat="59.187521434557" lon="17.887793427811">
        <ele>79.8</ele>
        <time>2019-10-16T18:44:06Z</time>
      </trkpt>
      <trkpt lat="59.187532750122" lon="17.887726707887">
        <ele>79.8</ele>
        <time>2019-10-16T18:44:07Z</time>
      </trkpt>
      <trkpt lat="59.187545825886" lon="17.887655545556">
        <ele>79.8</ele>
        <time>2019-10-16T18:44:08Z</time>
      </trkpt>
      <trkpt lat="59.187560494211" lon="17.887582371569">
        <ele>79.8</ele>
        <time>2019-10-16T18:44:09Z</time>
      </trkpt>
      <trkpt lat="59.18757482726" lon="17.88751020341">
        <ele>79.8</ele>
        <time>2019-10-16T18:44:10Z</time>
      </trkpt>
      <trkpt lat="59.187591674879" lon="17.88744482459">
        <ele>79.6</ele>
        <time>2019-10-16T18:44:11Z</time>
      </trkpt>
      <trkpt lat="59.187613300181" lon="17.887387240937">
        <ele>79.6</ele>
        <time>2019-10-16T18:44:12Z</time>
      </trkpt>
      <trkpt lat="59.187639032614" lon="17.887334854062">
        <ele>79.6</ele>
        <time>2019-10-16T18:44:13Z</time>
      </trkpt>
      <trkpt lat="59.187666609065" lon="17.887280455531">
        <ele>79.2</ele>
        <time>2019-10-16T18:44:14Z</time>
      </trkpt>
      <trkpt lat="59.187694856068" lon="17.887224464439">
        <ele>79.4</ele>
        <time>2019-10-16T18:44:15Z</time>
      </trkpt>
      <trkpt lat="59.187722600157" lon="17.887166796967">
        <ele>79.4</ele>
        <time>2019-10-16T18:44:16Z</time>
      </trkpt>
      <trkpt lat="59.187750763341" lon="17.887106950201">
        <ele>79.4</ele>
        <time>2019-10-16T18:44:17Z</time>
      </trkpt>
      <trkpt lat="59.18777850743" lon="17.887042744847">
        <ele>79.4</ele>
        <time>2019-10-16T18:44:18Z</time>
      </trkpt>
      <trkpt lat="59.187801725293" lon="17.88697124724">
        <ele>79.4</ele>
        <time>2019-10-16T18:44:19Z</time>
      </trkpt>
      <trkpt lat="59.187816058342" lon="17.886892708837">
        <ele>79</ele>
        <time>2019-10-16T18:44:20Z</time>
      </trkpt>
      <trkpt lat="59.187823518233" lon="17.886811488226">
        <ele>79</ele>
        <time>2019-10-16T18:44:21Z</time>
      </trkpt>
      <trkpt lat="59.187828128278" lon="17.88673068671">
        <ele>79</ele>
        <time>2019-10-16T18:44:22Z</time>
      </trkpt>
      <trkpt lat="59.187831983952" lon="17.886650807203">
        <ele>79</ele>
        <time>2019-10-16T18:44:23Z</time>
      </trkpt>
      <trkpt lat="59.187835085255" lon="17.886573274628">
        <ele>79</ele>
        <time>2019-10-16T18:44:24Z</time>
      </trkpt>
      <trkpt lat="59.187838102739" lon="17.886497418433">
        <ele>78.8</ele>
        <time>2019-10-16T18:44:25Z</time>
      </trkpt>
      <trkpt lat="59.187843718612" lon="17.886422819523">
        <ele>78.8</ele>
        <time>2019-10-16T18:44:26Z</time>
      </trkpt>
      <trkpt lat="59.187851346141" lon="17.886358195074">
        <ele>78.6</ele>
        <time>2019-10-16T18:44:27Z</time>
      </trkpt>
      <trkpt lat="59.187861320602" lon="17.886308406588">
        <ele>78.6</ele>
        <time>2019-10-16T18:44:28Z</time>
      </trkpt>
      <trkpt lat="59.187875066918" lon="17.886270771857">
        <ele>78.6</ele>
        <time>2019-10-16T18:44:29Z</time>
      </trkpt>
      <trkpt lat="59.187893004184" lon="17.886245123243">
        <ele>78.6</ele>
        <time>2019-10-16T18:44:30Z</time>
      </trkpt>
      <trkpt lat="59.187911276726" lon="17.886224000855">
        <ele>78.6</ele>
        <time>2019-10-16T18:44:31Z</time>
      </trkpt>
      <trkpt lat="59.187929800725" lon="17.886205895951">
        <ele>78.6</ele>
        <time>2019-10-16T18:44:32Z</time>
      </trkpt>
      <trkpt lat="59.187950923113" lon="17.886195167119">
        <ele>78.6</ele>
        <time>2019-10-16T18:44:33Z</time>
      </trkpt>
      <trkpt lat="59.187973470424" lon="17.886199525707">
        <ele>78.4</ele>
        <time>2019-10-16T18:44:34Z</time>
      </trkpt>
      <trkpt lat="59.187997526477" lon="17.886217211516">
        <ele>78.4</ele>
        <time>2019-10-16T18:44:35Z</time>
      </trkpt>
      <trkpt lat="59.188022839815" lon="17.886243195406">
        <ele>78.4</ele>
        <time>2019-10-16T18:44:36Z</time>
      </trkpt>
      <trkpt lat="59.188050248628" lon="17.886278147929">
        <ele>78.4</ele>
        <time>2019-10-16T18:44:37Z</time>
      </trkpt>
      <trkpt lat="59.188080758744" lon="17.886312681357">
        <ele>78.4</ele>
        <time>2019-10-16T18:44:38Z</time>
      </trkpt>
      <trkpt lat="59.188107999919" lon="17.886345370767">
        <ele>78.4</ele>
        <time>2019-10-16T18:44:39Z</time>
      </trkpt>
      <trkpt lat="59.188132558886" lon="17.886379149824">
        <ele>78.4</ele>
        <time>2019-10-16T18:44:40Z</time>
      </trkpt>
      <trkpt lat="59.188158542776" lon="17.886409743759">
        <ele>78.4</ele>
        <time>2019-10-16T18:44:41Z</time>
      </trkpt>
      <trkpt lat="59.188184023752" lon="17.886436817296">
        <ele>78.4</ele>
        <time>2019-10-16T18:44:42Z</time>
      </trkpt>
      <trkpt lat="59.18821101347" lon="17.886461208625">
        <ele>78.4</ele>
        <time>2019-10-16T18:44:43Z</time>
      </trkpt>
      <trkpt lat="59.188241355948" lon="17.886478140063">
        <ele>78.4</ele>
        <time>2019-10-16T18:44:44Z</time>
      </trkpt>
      <trkpt lat="59.188268094209" lon="17.886497083157">
        <ele>78.4</ele>
        <time>2019-10-16T18:44:45Z</time>
      </trkpt>
      <trkpt lat="59.188295922117" lon="17.886519798106">
        <ele>78.4</ele>
        <time>2019-10-16T18:44:46Z</time>
      </trkpt>
      <trkpt lat="59.188326096957" lon="17.886542429236">
        <ele>78.4</ele>
        <time>2019-10-16T18:44:47Z</time>
      </trkpt>
      <trkpt lat="59.188353254313" lon="17.886563467805">
        <ele>78.4</ele>
        <time>2019-10-16T18:44:48Z</time>
      </trkpt>
      <trkpt lat="59.188379657298" lon="17.886582410899">
        <ele>78.4</ele>
        <time>2019-10-16T18:44:49Z</time>
      </trkpt>
      <trkpt lat="59.188403126618" lon="17.886599007061">
        <ele>78.4</ele>
        <time>2019-10-16T18:44:50Z</time>
      </trkpt>
      <trkpt lat="59.188425422472" lon="17.88661166373">
        <ele>78.4</ele>
        <time>2019-10-16T18:44:51Z</time>
      </trkpt>
      <trkpt lat="59.188445790489" lon="17.886622644019">
        <ele>78.4</ele>
        <time>2019-10-16T18:44:52Z</time>
      </trkpt>
      <trkpt lat="59.188465320316" lon="17.886636474154">
        <ele>78.4</ele>
        <time>2019-10-16T18:44:53Z</time>
      </trkpt>
      <trkpt lat="59.188485855971" lon="17.886647119167">
        <ele>78.4</ele>
        <time>2019-10-16T18:44:54Z</time>
      </trkpt>
      <trkpt lat="59.188502116857" lon="17.886659524379">
        <ele>78.6</ele>
        <time>2019-10-16T18:44:55Z</time>
      </trkpt>
      <trkpt lat="59.188525083263" lon="17.886670588487">
        <ele>78.6</ele>
        <time>2019-10-16T18:44:56Z</time>
      </trkpt>
      <trkpt lat="59.18854209852" lon="17.886685172993">
        <ele>78.8</ele>
        <time>2019-10-16T18:44:57Z</time>
      </trkpt>
      <trkpt lat="59.188556850664" lon="17.886703194078">
        <ele>78.8</ele>
        <time>2019-10-16T18:44:58Z</time>
      </trkpt>
      <trkpt lat="59.188571686627" lon="17.886721885715">
        <ele>79</ele>
        <time>2019-10-16T18:44:59Z</time>
      </trkpt>
      <trkpt lat="59.188583756563" lon="17.886738984791">
        <ele>79.2</ele>
        <time>2019-10-16T18:45:00Z</time>
      </trkpt>
      <trkpt lat="59.188587863694" lon="17.886752060555">
        <ele>79.2</ele>
        <time>2019-10-16T18:45:01Z</time>
      </trkpt>
      <trkpt lat="59.18859490449" lon="17.886767986165">
        <ele>79.4</ele>
        <time>2019-10-16T18:45:02Z</time>
      </trkpt>
      <trkpt lat="59.188603370209" lon="17.886789108553">
        <ele>79.4</ele>
        <time>2019-10-16T18:45:03Z</time>
      </trkpt>
      <trkpt lat="59.188611165376" lon="17.88680947657">
        <ele>79.8</ele>
        <time>2019-10-16T18:45:04Z</time>
      </trkpt>
      <trkpt lat="59.18862005019" lon="17.886836633926">
        <ele>79.8</ele>
        <time>2019-10-16T18:45:05Z</time>
      </trkpt>
      <trkpt lat="59.188631701031" lon="17.886871083535">
        <ele>79.8</ele>
        <time>2019-10-16T18:45:06Z</time>
      </trkpt>
      <trkpt lat="59.188643184234" lon="17.886912154845">
        <ele>79.8</ele>
        <time>2019-10-16T18:45:07Z</time>
      </trkpt>
      <trkpt lat="59.18865190141" lon="17.886965966643">
        <ele>79.8</ele>
        <time>2019-10-16T18:45:08Z</time>
      </trkpt>
      <trkpt lat="59.188659948034" lon="17.887019526984">
        <ele>80</ele>
        <time>2019-10-16T18:45:09Z</time>
      </trkpt>
      <trkpt lat="59.188668329934" lon="17.887063280502">
        <ele>80</ele>
        <time>2019-10-16T18:45:10Z</time>
      </trkpt>
      <trkpt lat="59.188675454549" lon="17.887101585785">
        <ele>80</ele>
        <time>2019-10-16T18:45:11Z</time>
      </trkpt>
      <trkpt lat="59.188680818965" lon="17.887139220516">
        <ele>80</ele>
        <time>2019-10-16T18:45:12Z</time>
      </trkpt>
      <trkpt lat="59.188684758458" lon="17.887180878559">
        <ele>80</ele>
        <time>2019-10-16T18:45:13Z</time>
      </trkpt>
      <trkpt lat="59.188690122874" lon="17.887219602937">
        <ele>80</ele>
        <time>2019-10-16T18:45:14Z</time>
      </trkpt>
      <trkpt lat="59.188694313824" lon="17.887249945415">
        <ele>80</ele>
        <time>2019-10-16T18:45:15Z</time>
      </trkpt>
      <trkpt lat="59.188698756231" lon="17.887280706988">
        <ele>80.4</ele>
        <time>2019-10-16T18:45:16Z</time>
      </trkpt>
      <trkpt lat="59.188709149787" lon="17.887302667566">
        <ele>80.4</ele>
        <time>2019-10-16T18:45:17Z</time>
      </trkpt>
      <trkpt lat="59.188715687669" lon="17.887329238189">
        <ele>80.4</ele>
        <time>2019-10-16T18:45:18Z</time>
      </trkpt>
      <trkpt lat="59.188723650474" lon="17.887365364178">
        <ele>80.4</ele>
        <time>2019-10-16T18:45:19Z</time>
      </trkpt>
      <trkpt lat="59.188731780917" lon="17.887395790475">
        <ele>80.4</ele>
        <time>2019-10-16T18:45:20Z</time>
      </trkpt>
      <trkpt lat="59.188747287432" lon="17.88742470803">
        <ele>80.4</ele>
        <time>2019-10-16T18:45:21Z</time>
      </trkpt>
      <trkpt lat="59.188759776463" lon="17.887484387158">
        <ele>80.4</ele>
        <time>2019-10-16T18:45:22Z</time>
      </trkpt>
      <trkpt lat="59.188778049005" lon="17.887530571427">
        <ele>80</ele>
        <time>2019-10-16T18:45:23Z</time>
      </trkpt>
      <trkpt lat="59.18879355552" lon="17.887571475099">
        <ele>80</ele>
        <time>2019-10-16T18:45:24Z</time>
      </trkpt>
      <trkpt lat="59.188810235501" lon="17.887603577776">
        <ele>80.4</ele>
        <time>2019-10-16T18:45:25Z</time>
      </trkpt>
      <trkpt lat="59.188828508043" lon="17.887647163656">
        <ele>80.2</ele>
        <time>2019-10-16T18:45:26Z</time>
      </trkpt>
      <trkpt lat="59.188850468621" lon="17.887702651834">
        <ele>80.2</ele>
        <time>2019-10-16T18:45:27Z</time>
      </trkpt>
      <trkpt lat="59.18887234538" lon="17.887742633497">
        <ele>80.4</ele>
        <time>2019-10-16T18:45:28Z</time>
      </trkpt>
      <trkpt lat="59.188894557415" lon="17.887806335937">
        <ele>80.4</ele>
        <time>2019-10-16T18:45:29Z</time>
      </trkpt>
      <trkpt lat="59.188917020907" lon="17.887870876567">
        <ele>80.4</ele>
        <time>2019-10-16T18:45:30Z</time>
      </trkpt>
      <trkpt lat="59.188939819675" lon="17.887923514899">
        <ele>80.4</ele>
        <time>2019-10-16T18:45:31Z</time>
      </trkpt>
      <trkpt lat="59.188959600959" lon="17.887972716652">
        <ele>80.4</ele>
        <time>2019-10-16T18:45:32Z</time>
      </trkpt>
      <trkpt lat="59.188972760542" lon="17.888018649464">
        <ele>80.4</ele>
        <time>2019-10-16T18:45:33Z</time>
      </trkpt>
      <trkpt lat="59.188988518514" lon="17.888073383271">
        <ele>80.4</ele>
        <time>2019-10-16T18:45:34Z</time>
      </trkpt>
      <trkpt lat="59.189011736377" lon="17.888123507033">
        <ele>80.4</ele>
        <time>2019-10-16T18:45:35Z</time>
      </trkpt>
      <trkpt lat="59.189029673643" lon="17.888168936931">
        <ele>80.2</ele>
        <time>2019-10-16T18:45:36Z</time>
      </trkpt>
      <trkpt lat="59.189050796031" lon="17.888225766213">
        <ele>80.4</ele>
        <time>2019-10-16T18:45:37Z</time>
      </trkpt>
      <trkpt lat="59.189071750781" lon="17.88826625079">
        <ele>80.4</ele>
        <time>2019-10-16T18:45:38Z</time>
      </trkpt>
      <trkpt lat="59.189130926995" lon="17.888353757826">
        <ele>80.2</ele>
        <time>2019-10-16T18:45:40Z</time>
      </trkpt>
      <trkpt lat="59.189157246161" lon="17.888394661498">
        <ele>80.2</ele>
        <time>2019-10-16T18:45:41Z</time>
      </trkpt>
      <trkpt lat="59.189186834268" lon="17.888434391704">
        <ele>80.2</ele>
        <time>2019-10-16T18:45:42Z</time>
      </trkpt>
      <trkpt lat="59.189213321072" lon="17.888471104426">
        <ele>80.2</ele>
        <time>2019-10-16T18:45:43Z</time>
      </trkpt>
      <trkpt lat="59.189238718229" lon="17.888511756641">
        <ele>80.2</ele>
        <time>2019-10-16T18:45:44Z</time>
      </trkpt>
      <trkpt lat="59.189260678807" lon="17.88855542634">
        <ele>80.2</ele>
        <time>2019-10-16T18:45:45Z</time>
      </trkpt>
      <trkpt lat="59.189280711548" lon="17.888599179858">
        <ele>80.2</ele>
        <time>2019-10-16T18:45:46Z</time>
      </trkpt>
      <trkpt lat="59.189296218063" lon="17.888643017195">
        <ele>80.2</ele>
        <time>2019-10-16T18:45:47Z</time>
      </trkpt>
      <trkpt lat="59.189308455637" lon="17.888689369102">
        <ele>80.2</ele>
        <time>2019-10-16T18:45:48Z</time>
      </trkpt>
      <trkpt lat="59.189315412614" lon="17.888736140104">
        <ele>80.2</ele>
        <time>2019-10-16T18:45:49Z</time>
      </trkpt>
      <trkpt lat="59.189316250804" lon="17.888776876138">
        <ele>80.2</ele>
        <time>2019-10-16T18:45:50Z</time>
      </trkpt>
      <trkpt lat="59.189318933012" lon="17.888820042923">
        <ele>80.4</ele>
        <time>2019-10-16T18:45:51Z</time>
      </trkpt>
      <trkpt lat="59.189326392903" lon="17.888867568296">
        <ele>80.4</ele>
        <time>2019-10-16T18:45:52Z</time>
      </trkpt>
      <trkpt lat="59.189328488378" lon="17.888907801416">
        <ele>80.4</ele>
        <time>2019-10-16T18:45:53Z</time>
      </trkpt>
      <trkpt lat="59.18933083531" lon="17.888948034536">
        <ele>80.4</ele>
        <time>2019-10-16T18:45:54Z</time>
      </trkpt>
      <trkpt lat="59.189331002948" lon="17.888986842733">
        <ele>80.4</ele>
        <time>2019-10-16T18:45:55Z</time>
      </trkpt>
      <trkpt lat="59.189330500034" lon="17.889029171328">
        <ele>80.4</ele>
        <time>2019-10-16T18:45:56Z</time>
      </trkpt>
      <trkpt lat="59.189329326568" lon="17.889076948158">
        <ele>80.4</ele>
        <time>2019-10-16T18:45:57Z</time>
      </trkpt>
      <trkpt lat="59.189331002948" lon="17.889121623685">
        <ele>80.4</ele>
        <time>2019-10-16T18:45:58Z</time>
      </trkpt>
      <trkpt lat="59.189336618821" lon="17.889164203737">
        <ele>80.4</ele>
        <time>2019-10-16T18:45:59Z</time>
      </trkpt>
      <trkpt lat="59.189336451183" lon="17.889206197056">
        <ele>80.4</ele>
        <time>2019-10-16T18:46:00Z</time>
      </trkpt>
      <trkpt lat="59.189337037916" lon="17.889253387153">
        <ele>80.4</ele>
        <time>2019-10-16T18:46:01Z</time>
      </trkpt>
      <trkpt lat="59.189339803943" lon="17.889298230318">
        <ele>80.6</ele>
        <time>2019-10-16T18:46:02Z</time>
      </trkpt>
      <trkpt lat="59.18934089359" lon="17.889349359908">
        <ele>80.6</ele>
        <time>2019-10-16T18:46:03Z</time>
      </trkpt>
      <trkpt lat="59.189339971581" lon="17.889389676847">
        <ele>80.8</ele>
        <time>2019-10-16T18:46:04Z</time>
      </trkpt>
      <trkpt lat="59.189337457011" lon="17.889420941334">
        <ele>80.8</ele>
        <time>2019-10-16T18:46:05Z</time>
      </trkpt>
      <trkpt lat="59.189334858622" lon="17.889450277984">
        <ele>81</ele>
        <time>2019-10-16T18:46:06Z</time>
      </trkpt>
      <trkpt lat="59.189328739835" lon="17.889477016245">
        <ele>81.2</ele>
        <time>2019-10-16T18:46:07Z</time>
      </trkpt>
      <trkpt lat="59.189316502261" lon="17.889510460026">
        <ele>81.2</ele>
        <time>2019-10-16T18:46:08Z</time>
      </trkpt>
      <trkpt lat="59.189303426497" lon="17.889537282106">
        <ele>81.4</ele>
        <time>2019-10-16T18:46:09Z</time>
      </trkpt>
      <trkpt lat="59.189291524199" lon="17.889560080874">
        <ele>81.6</ele>
        <time>2019-10-16T18:46:10Z</time>
      </trkpt>
      <trkpt lat="59.18928222029" lon="17.889579862158">
        <ele>81.8</ele>
        <time>2019-10-16T18:46:11Z</time>
      </trkpt>
      <trkpt lat="59.189273251657" lon="17.889605846048">
        <ele>81.8</ele>
        <time>2019-10-16T18:46:12Z</time>
      </trkpt>
      <trkpt lat="59.189266629956" lon="17.889628644816">
        <ele>82</ele>
        <time>2019-10-16T18:46:13Z</time>
      </trkpt>
      <trkpt lat="59.189259253884" lon="17.889647671729">
        <ele>82</ele>
        <time>2019-10-16T18:46:14Z</time>
      </trkpt>
      <trkpt lat="59.189254727658" lon="17.889668207384">
        <ele>82</ele>
        <time>2019-10-16T18:46:15Z</time>
      </trkpt>
      <trkpt lat="59.189247519224" lon="17.889686479926">
        <ele>82</ele>
        <time>2019-10-16T18:46:16Z</time>
      </trkpt>
      <trkpt lat="59.189247183948" lon="17.889704081916">
        <ele>82</ele>
        <time>2019-10-16T18:46:17Z</time>
      </trkpt>
      <trkpt lat="59.189240813704" lon="17.889727551236">
        <ele>82</ele>
        <time>2019-10-16T18:46:18Z</time>
      </trkpt>
      <trkpt lat="59.18923695803" lon="17.88975068528">
        <ele>82</ele>
        <time>2019-10-16T18:46:19Z</time>
      </trkpt>
      <trkpt lat="59.189233353813" lon="17.8897741546">
        <ele>82.2</ele>
        <time>2019-10-16T18:46:20Z</time>
      </trkpt>
      <trkpt lat="59.189229498139" lon="17.889801144318">
        <ele>82.4</ele>
        <time>2019-10-16T18:46:21Z</time>
      </trkpt>
      <trkpt lat="59.189224636637" lon="17.889828050217">
        <ele>82.6</ele>
        <time>2019-10-16T18:46:22Z</time>
      </trkpt>
      <trkpt lat="59.189219272221" lon="17.889857805962">
        <ele>82.8</ele>
        <time>2019-10-16T18:46:23Z</time>
      </trkpt>
      <trkpt lat="59.18921265052" lon="17.889887729345">
        <ele>82.8</ele>
        <time>2019-10-16T18:46:24Z</time>
      </trkpt>
      <trkpt lat="59.189206280276" lon="17.88990407405">
        <ele>83</ele>
        <time>2019-10-16T18:46:25Z</time>
      </trkpt>
      <trkpt lat="59.189194126521" lon="17.889926537542">
        <ele>83.2</ele>
        <time>2019-10-16T18:46:26Z</time>
      </trkpt>
      <trkpt lat="59.18918666663" lon="17.889930560854">
        <ele>83.2</ele>
        <time>2019-10-16T18:46:27Z</time>
      </trkpt>
      <trkpt lat="59.189176943626" lon="17.889944558627">
        <ele>83.2</ele>
        <time>2019-10-16T18:46:28Z</time>
      </trkpt>
      <trkpt lat="59.189167304441" lon="17.889937936926">
        <ele>83.2</ele>
        <time>2019-10-16T18:46:29Z</time>
      </trkpt>
      <trkpt lat="59.18915732998" lon="17.889932823967">
        <ele>83.2</ele>
        <time>2019-10-16T18:46:30Z</time>
      </trkpt>
      <trkpt lat="59.189136710506" lon="17.889911533941">
        <ele>83.2</ele>
        <time>2019-10-16T18:46:32Z</time>
      </trkpt>
      <trkpt lat="59.189125143484" lon="17.889899212548">
        <ele>83.4</ele>
        <time>2019-10-16T18:46:33Z</time>
      </trkpt>
      <trkpt lat="59.189116929222" lon="17.889883454576">
        <ele>83.4</ele>
        <time>2019-10-16T18:46:34Z</time>
      </trkpt>
      <trkpt lat="59.189111397168" lon="17.889864343844">
        <ele>83.6</ele>
        <time>2019-10-16T18:46:35Z</time>
      </trkpt>
      <trkpt lat="59.189106787123" lon="17.889821679973">
        <ele>83.8</ele>
        <time>2019-10-16T18:46:37Z</time>
      </trkpt>
      <trkpt lat="59.189103853458" lon="17.889805502906">
        <ele>84</ele>
        <time>2019-10-16T18:46:38Z</time>
      </trkpt>
      <trkpt lat="59.189102428535" lon="17.889801647232">
        <ele>84</ele>
        <time>2019-10-16T18:46:39Z</time>
      </trkpt>
      <trkpt lat="59.189095806834" lon="17.88978337469">
        <ele>84.4</ele>
        <time>2019-10-16T18:46:41Z</time>
      </trkpt>
      <trkpt lat="59.189093208445" lon="17.889776082437">
        <ele>85</ele>
        <time>2019-10-16T18:46:42Z</time>
      </trkpt>
      <trkpt lat="59.189061692501" lon="17.889580365072">
        <ele>85.8</ele>
        <time>2019-10-16T18:51:11Z</time>
      </trkpt>
      <trkpt lat="59.189064626166" lon="17.889541473056">
        <ele>85.8</ele>
        <time>2019-10-16T18:51:12Z</time>
      </trkpt>
      <trkpt lat="59.189072002238" lon="17.889497048986">
        <ele>85.6</ele>
        <time>2019-10-16T18:51:13Z</time>
      </trkpt>
      <trkpt lat="59.189080887052" lon="17.889452792554">
        <ele>85.6</ele>
        <time>2019-10-16T18:51:14Z</time>
      </trkpt>
      <trkpt lat="59.189086419106" lon="17.889405099543">
        <ele>85.6</ele>
        <time>2019-10-16T18:51:15Z</time>
      </trkpt>
      <trkpt lat="59.189089855685" lon="17.88935925055">
        <ele>85.4</ele>
        <time>2019-10-16T18:51:16Z</time>
      </trkpt>
      <trkpt lat="59.189089939504" lon="17.889318765973">
        <ele>85.4</ele>
        <time>2019-10-16T18:51:17Z</time>
      </trkpt>
      <trkpt lat="59.189091867341" lon="17.889269145125">
        <ele>85.2</ele>
        <time>2019-10-16T18:51:18Z</time>
      </trkpt>
      <trkpt lat="59.189096393567" lon="17.88921675825">
        <ele>85.2</ele>
        <time>2019-10-16T18:51:19Z</time>
      </trkpt>
      <trkpt lat="59.189101087431" lon="17.889166718307">
        <ele>85</ele>
        <time>2019-10-16T18:51:20Z</time>
      </trkpt>
      <trkpt lat="59.189101422707" lon="17.889120450219">
        <ele>84.8</ele>
        <time>2019-10-16T18:51:21Z</time>
      </trkpt>
      <trkpt lat="59.189101087431" lon="17.889075271778">
        <ele>84.6</ele>
        <time>2019-10-16T18:51:22Z</time>
      </trkpt>
      <trkpt lat="59.189099913965" lon="17.889027243491">
        <ele>84</ele>
        <time>2019-10-16T18:51:23Z</time>
      </trkpt>
      <trkpt lat="59.189101757983" lon="17.888990363131">
        <ele>83.6</ele>
        <time>2019-10-16T18:51:24Z</time>
      </trkpt>
      <trkpt lat="59.189105110743" lon="17.888957254626">
        <ele>83.4</ele>
        <time>2019-10-16T18:51:25Z</time>
      </trkpt>
      <trkpt lat="59.18910871496" lon="17.888920541904">
        <ele>83.4</ele>
        <time>2019-10-16T18:51:26Z</time>
      </trkpt>
      <trkpt lat="59.189110978073" lon="17.888881733707">
        <ele>83.2</ele>
        <time>2019-10-16T18:51:27Z</time>
      </trkpt>
      <trkpt lat="59.189110056064" lon="17.888842590234">
        <ele>82.8</ele>
        <time>2019-10-16T18:51:28Z</time>
      </trkpt>
      <trkpt lat="59.189107625313" lon="17.88881107429">
        <ele>82.6</ele>
        <time>2019-10-16T18:51:29Z</time>
      </trkpt>
      <trkpt lat="59.189108547322" lon="17.888783749296">
        <ele>82.4</ele>
        <time>2019-10-16T18:51:30Z</time>
      </trkpt>
      <trkpt lat="59.18910955315" lon="17.888753993551">
        <ele>82.2</ele>
        <time>2019-10-16T18:51:31Z</time>
      </trkpt>
      <trkpt lat="59.189117515955" lon="17.888719543942">
        <ele>82</ele>
        <time>2019-10-16T18:51:32Z</time>
      </trkpt>
      <trkpt lat="59.189112822091" lon="17.888683501772">
        <ele>81.8</ele>
        <time>2019-10-16T18:51:33Z</time>
      </trkpt>
      <trkpt lat="59.189111145711" lon="17.888645447946">
        <ele>81.8</ele>
        <time>2019-10-16T18:51:34Z</time>
      </trkpt>
      <trkpt lat="59.18911542048" lon="17.888602616437">
        <ele>81.6</ele>
        <time>2019-10-16T18:51:35Z</time>
      </trkpt>
      <trkpt lat="59.189120868715" lon="17.888574453253">
        <ele>81.4</ele>
        <time>2019-10-16T18:51:36Z</time>
      </trkpt>
      <trkpt lat="59.189123970018" lon="17.88854788263">
        <ele>81.2</ele>
        <time>2019-10-16T18:51:37Z</time>
      </trkpt>
      <trkpt lat="59.18912128781" lon="17.888525922052">
        <ele>81.2</ele>
        <time>2019-10-16T18:51:38Z</time>
      </trkpt>
      <trkpt lat="59.189122461276" lon="17.888507230415">
        <ele>81</ele>
        <time>2019-10-16T18:51:39Z</time>
      </trkpt>
      <trkpt lat="59.189132938651" lon="17.888504967302">
        <ele>80.8</ele>
        <time>2019-10-16T18:51:40Z</time>
      </trkpt>
      <trkpt lat="59.18914308075" lon="17.888517623971">
        <ele>80.8</ele>
        <time>2019-10-16T18:51:41Z</time>
      </trkpt>
      <trkpt lat="59.189150373003" lon="17.888529526269">
        <ele>80.8</ele>
        <time>2019-10-16T18:51:42Z</time>
      </trkpt>
      <trkpt lat="59.189161856206" lon="17.888545954793">
        <ele>80.6</ele>
        <time>2019-10-16T18:51:43Z</time>
      </trkpt>
      <trkpt lat="59.189173758504" lon="17.888562634774">
        <ele>80.6</ele>
        <time>2019-10-16T18:51:44Z</time>
      </trkpt>
      <trkpt lat="59.189193036874" lon="17.888575794357">
        <ele>80.6</ele>
        <time>2019-10-16T18:51:45Z</time>
      </trkpt>
      <trkpt lat="59.189205693543" lon="17.888587026103">
        <ele>80.4</ele>
        <time>2019-10-16T18:51:46Z</time>
      </trkpt>
      <trkpt lat="59.189212818158" lon="17.888596246193">
        <ele>80.4</ele>
        <time>2019-10-16T18:51:47Z</time>
      </trkpt>
      <trkpt lat="59.189228240854" lon="17.888598844582">
        <ele>80.4</ele>
        <time>2019-10-16T18:51:48Z</time>
      </trkpt>
      <trkpt lat="59.189243579731" lon="17.888610579242">
        <ele>80.2</ele>
        <time>2019-10-16T18:51:49Z</time>
      </trkpt>
      <trkpt lat="59.189263109558" lon="17.888628013594">
        <ele>80.2</ele>
        <time>2019-10-16T18:51:50Z</time>
      </trkpt>
      <trkpt lat="59.189280795367" lon="17.888644525937">
        <ele>80.2</ele>
        <time>2019-10-16T18:51:51Z</time>
      </trkpt>
      <trkpt lat="59.189300157556" lon="17.888665564506">
        <ele>80.2</ele>
        <time>2019-10-16T18:51:52Z</time>
      </trkpt>
      <trkpt lat="59.189319268288" lon="17.888683585591">
        <ele>80.2</ele>
        <time>2019-10-16T18:51:53Z</time>
      </trkpt>
      <trkpt lat="59.189335529174" lon="17.888701858133">
        <ele>80.2</ele>
        <time>2019-10-16T18:51:54Z</time>
      </trkpt>
      <trkpt lat="59.18935179006" lon="17.888721220322">
        <ele>80</ele>
        <time>2019-10-16T18:51:55Z</time>
      </trkpt>
      <trkpt lat="59.189362518892" lon="17.888739660502">
        <ele>80</ele>
        <time>2019-10-16T18:51:56Z</time>
      </trkpt>
      <trkpt lat="59.189367967127" lon="17.888768997152">
        <ele>80</ele>
        <time>2019-10-16T18:51:57Z</time>
      </trkpt>
      <trkpt lat="59.189373834457" lon="17.88880101601">
        <ele>80</ele>
        <time>2019-10-16T18:51:58Z</time>
      </trkpt>
      <trkpt lat="59.189379701787" lon="17.888836806723">
        <ele>80</ele>
        <time>2019-10-16T18:51:59Z</time>
      </trkpt>
      <trkpt lat="59.189383725099" lon="17.888870418142">
        <ele>80</ele>
        <time>2019-10-16T18:52:00Z</time>
      </trkpt>
      <trkpt lat="59.189386072031" lon="17.888899754792">
        <ele>80</ele>
        <time>2019-10-16T18:52:01Z</time>
      </trkpt>
      <trkpt lat="59.189384563289" lon="17.88892339175">
        <ele>80</ele>
        <time>2019-10-16T18:52:02Z</time>
      </trkpt>
      <trkpt lat="59.189382383995" lon="17.888952560762">
        <ele>80</ele>
        <time>2019-10-16T18:52:03Z</time>
      </trkpt>
      <trkpt lat="59.189379869425" lon="17.888987513285">
        <ele>80</ele>
        <time>2019-10-16T18:52:04Z</time>
      </trkpt>
      <trkpt lat="59.189380707615" lon="17.889024728921">
        <ele>80</ele>
        <time>2019-10-16T18:52:05Z</time>
      </trkpt>
      <trkpt lat="59.18938447947" lon="17.889063118023">
        <ele>80</ele>
        <time>2019-10-16T18:52:06Z</time>
      </trkpt>
      <trkpt lat="59.189384563289" lon="17.889103686419">
        <ele>80</ele>
        <time>2019-10-16T18:52:07Z</time>
      </trkpt>
      <trkpt lat="59.189382300176" lon="17.889146685566">
        <ele>80</ele>
        <time>2019-10-16T18:52:08Z</time>
      </trkpt>
      <trkpt lat="59.189384060375" lon="17.889196725509">
        <ele>80</ele>
        <time>2019-10-16T18:52:09Z</time>
      </trkpt>
      <trkpt lat="59.189388838058" lon="17.88924441852">
        <ele>80</ele>
        <time>2019-10-16T18:52:10Z</time>
      </trkpt>
      <trkpt lat="59.189389340972" lon="17.889290016056">
        <ele>80.2</ele>
        <time>2019-10-16T18:52:11Z</time>
      </trkpt>
      <trkpt lat="59.189386574945" lon="17.889322789285">
        <ele>80.2</ele>
        <time>2019-10-16T18:52:12Z</time>
      </trkpt>
      <trkpt lat="59.189382635452" lon="17.889359837283">
        <ele>80.6</ele>
        <time>2019-10-16T18:52:13Z</time>
      </trkpt>
      <trkpt lat="59.189371655163" lon="17.889400154222">
        <ele>80.6</ele>
        <time>2019-10-16T18:52:14Z</time>
      </trkpt>
      <trkpt lat="59.189358998494" lon="17.889436280211">
        <ele>80.8</ele>
        <time>2019-10-16T18:52:15Z</time>
      </trkpt>
      <trkpt lat="59.189345671273" lon="17.889457989332">
        <ele>80.8</ele>
        <time>2019-10-16T18:52:16Z</time>
      </trkpt>
      <trkpt lat="59.18933251169" lon="17.88948581724">
        <ele>81</ele>
        <time>2019-10-16T18:52:17Z</time>
      </trkpt>
      <trkpt lat="59.189317088994" lon="17.889514399519">
        <ele>81</ele>
        <time>2019-10-16T18:52:18Z</time>
      </trkpt>
      <trkpt lat="59.189303342678" lon="17.889548932947">
        <ele>81.2</ele>
        <time>2019-10-16T18:52:19Z</time>
      </trkpt>
      <trkpt lat="59.18929479314" lon="17.889587908782">
        <ele>81.2</ele>
        <time>2019-10-16T18:52:20Z</time>
      </trkpt>
      <trkpt lat="59.189284148127" lon="17.889614647043">
        <ele>81.4</ele>
        <time>2019-10-16T18:52:21Z</time>
      </trkpt>
      <trkpt lat="59.189276688236" lon="17.889641385304">
        <ele>81.6</ele>
        <time>2019-10-16T18:52:22Z</time>
      </trkpt>
      <trkpt lat="59.189264450662" lon="17.889674158533">
        <ele>81.6</ele>
        <time>2019-10-16T18:52:23Z</time>
      </trkpt>
      <trkpt lat="59.189253218916" lon="17.889708608142">
        <ele>81.6</ele>
        <time>2019-10-16T18:52:24Z</time>
      </trkpt>
      <trkpt lat="59.189239388781" lon="17.889748841262">
        <ele>81.8</ele>
        <time>2019-10-16T18:52:25Z</time>
      </trkpt>
      <trkpt lat="59.189225810103" lon="17.889787649459">
        <ele>82</ele>
        <time>2019-10-16T18:52:26Z</time>
      </trkpt>
      <trkpt lat="59.189215919461" lon="17.889809526218">
        <ele>82.2</ele>
        <time>2019-10-16T18:52:27Z</time>
      </trkpt>
      <trkpt lat="59.189202676059" lon="17.88984707713">
        <ele>82.4</ele>
        <time>2019-10-16T18:52:28Z</time>
      </trkpt>
      <trkpt lat="59.18918834301" lon="17.889868534794">
        <ele>82.8</ele>
        <time>2019-10-16T18:52:29Z</time>
      </trkpt>
      <trkpt lat="59.18917493197" lon="17.889883370757">
        <ele>83</ele>
        <time>2019-10-16T18:52:30Z</time>
      </trkpt>
      <trkpt lat="59.189164370776" lon="17.889890579191">
        <ele>83.2</ele>
        <time>2019-10-16T18:52:31Z</time>
      </trkpt>
      <trkpt lat="59.18915481541" lon="17.889898793453">
        <ele>83.4</ele>
        <time>2019-10-16T18:52:32Z</time>
      </trkpt>
      <trkpt lat="59.189150373003" lon="17.889891417381">
        <ele>83.4</ele>
        <time>2019-10-16T18:52:33Z</time>
      </trkpt>
      <trkpt lat="59.189144924768" lon="17.889882364929">
        <ele>83.4</ele>
        <time>2019-10-16T18:52:34Z</time>
      </trkpt>
      <trkpt lat="59.189136291411" lon="17.889877419608">
        <ele>83.4</ele>
        <time>2019-10-16T18:52:35Z</time>
      </trkpt>
      <trkpt lat="59.189129921167" lon="17.88987054645">
        <ele>83.4</ele>
        <time>2019-10-16T18:52:36Z</time>
      </trkpt>
      <trkpt lat="59.189124808208" lon="17.889850346071">
        <ele>83.6</ele>
        <time>2019-10-16T18:52:37Z</time>
      </trkpt>
      <trkpt lat="59.189123970018" lon="17.889830145692">
        <ele>83.6</ele>
        <time>2019-10-16T18:52:38Z</time>
      </trkpt>
      <trkpt lat="59.189120952534" lon="17.889812376064">
        <ele>83.8</ele>
        <time>2019-10-16T18:52:39Z</time>
      </trkpt>
      <trkpt lat="59.189120617258" lon="17.889799719395">
        <ele>84</ele>
        <time>2019-10-16T18:52:40Z</time>
      </trkpt>
      <trkpt lat="59.18911961143" lon="17.889785721622">
        <ele>84</ele>
        <time>2019-10-16T18:52:41Z</time>
      </trkpt>
      <trkpt lat="59.189117180679" lon="17.88977499279">
        <ele>84.2</ele>
        <time>2019-10-16T18:52:42Z</time>
      </trkpt>
      <trkpt lat="59.18911542048" lon="17.889762503759">
        <ele>84.4</ele>
        <time>2019-10-16T18:52:43Z</time>
      </trkpt>
      <trkpt lat="59.189115839575" lon="17.889757558438">
        <ele>84.8</ele>
        <time>2019-10-16T18:52:44Z</time>
      </trkpt>
      <trkpt lat="59.18911039134" lon="17.889759150999">
        <ele>85</ele>
        <time>2019-10-16T18:52:45Z</time>
      </trkpt>
      <trkpt lat="59.189074600627" lon="17.889592351189">
        <ele>85.4</ele>
        <time>2019-10-16T18:54:58Z</time>
      </trkpt>
      <trkpt lat="59.189077785749" lon="17.889556811933">
        <ele>85.4</ele>
        <time>2019-10-16T18:54:59Z</time>
      </trkpt>
      <trkpt lat="59.189082144337" lon="17.889516494994">
        <ele>85.2</ele>
        <time>2019-10-16T18:55:00Z</time>
      </trkpt>
      <trkpt lat="59.189087341115" lon="17.889471903286">
        <ele>85.2</ele>
        <time>2019-10-16T18:55:01Z</time>
      </trkpt>
      <trkpt lat="59.189095387739" lon="17.88942714394">
        <ele>85.2</ele>
        <time>2019-10-16T18:55:02Z</time>
      </trkpt>
      <trkpt lat="59.189102260897" lon="17.889384982983">
        <ele>85.2</ele>
        <time>2019-10-16T18:55:03Z</time>
      </trkpt>
      <trkpt lat="59.189102931449" lon="17.889348186442">
        <ele>85.2</ele>
        <time>2019-10-16T18:55:04Z</time>
      </trkpt>
      <trkpt lat="59.189098489042" lon="17.889306696037">
        <ele>85</ele>
        <time>2019-10-16T18:55:05Z</time>
      </trkpt>
      <trkpt lat="59.189097064119" lon="17.889263613071">
        <ele>84.8</ele>
        <time>2019-10-16T18:55:06Z</time>
      </trkpt>
      <trkpt lat="59.189094046635" lon="17.889219859553">
        <ele>85</ele>
        <time>2019-10-16T18:55:07Z</time>
      </trkpt>
      <trkpt lat="59.189092034979" lon="17.889181218994">
        <ele>84.6</ele>
        <time>2019-10-16T18:55:08Z</time>
      </trkpt>
      <trkpt lat="59.189089268952" lon="17.889143919539">
        <ele>84.4</ele>
        <time>2019-10-16T18:55:09Z</time>
      </trkpt>
      <trkpt lat="59.189086838201" lon="17.889110811034">
        <ele>84</ele>
        <time>2019-10-16T18:55:10Z</time>
      </trkpt>
      <trkpt lat="59.189085580916" lon="17.889068901534">
        <ele>83.6</ele>
        <time>2019-10-16T18:55:11Z</time>
      </trkpt>
      <trkpt lat="59.189085413278" lon="17.889020370333">
        <ele>83.4</ele>
        <time>2019-10-16T18:55:12Z</time>
      </trkpt>
      <trkpt lat="59.189079462129" lon="17.888982735602">
        <ele>83</ele>
        <time>2019-10-16T18:55:13Z</time>
      </trkpt>
      <trkpt lat="59.189078707758" lon="17.888944681776">
        <ele>82.8</ele>
        <time>2019-10-16T18:55:14Z</time>
      </trkpt>
      <trkpt lat="59.189081641423" lon="17.888907885235">
        <ele>82.8</ele>
        <time>2019-10-16T18:55:15Z</time>
      </trkpt>
      <trkpt lat="59.189083820717" lon="17.888871843065">
        <ele>82.6</ele>
        <time>2019-10-16T18:55:16Z</time>
      </trkpt>
      <trkpt lat="59.189087424934" lon="17.888837561094">
        <ele>82.4</ele>
        <time>2019-10-16T18:55:17Z</time>
      </trkpt>
      <trkpt lat="59.189096058291" lon="17.888806799521">
        <ele>82.4</ele>
        <time>2019-10-16T18:55:18Z</time>
      </trkpt>
      <trkpt lat="59.189100500698" lon="17.888767320772">
        <ele>82.2</ele>
        <time>2019-10-16T18:55:19Z</time>
      </trkpt>
      <trkpt lat="59.189105026924" lon="17.888735721009">
        <ele>82</ele>
        <time>2019-10-16T18:55:20Z</time>
      </trkpt>
      <trkpt lat="59.189110894254" lon="17.888705210893">
        <ele>81.6</ele>
        <time>2019-10-16T18:55:21Z</time>
      </trkpt>
      <trkpt lat="59.189118018869" lon="17.888676628614">
        <ele>81.4</ele>
        <time>2019-10-16T18:55:22Z</time>
      </trkpt>
      <trkpt lat="59.189127658054" lon="17.888649135982">
        <ele>81.4</ele>
        <time>2019-10-16T18:55:23Z</time>
      </trkpt>
      <trkpt lat="59.189138722162" lon="17.888621894807">
        <ele>81.2</ele>
        <time>2019-10-16T18:55:24Z</time>
      </trkpt>
      <trkpt lat="59.189142410198" lon="17.888605382464">
        <ele>81</ele>
        <time>2019-10-16T18:55:25Z</time>
      </trkpt>
      <trkpt lat="59.189151546469" lon="17.888591300872">
        <ele>81</ele>
        <time>2019-10-16T18:55:26Z</time>
      </trkpt>
      <trkpt lat="59.189161856206" lon="17.888583338067">
        <ele>80.8</ele>
        <time>2019-10-16T18:55:27Z</time>
      </trkpt>
      <trkpt lat="59.189167639717" lon="17.888584846809">
        <ele>80.6</ele>
        <time>2019-10-16T18:55:28Z</time>
      </trkpt>
      <trkpt lat="59.189185325526" lon="17.888588367207">
        <ele>80.6</ele>
        <time>2019-10-16T18:55:29Z</time>
      </trkpt>
      <trkpt lat="59.189204436258" lon="17.888601275333">
        <ele>80.4</ele>
        <time>2019-10-16T18:55:30Z</time>
      </trkpt>
      <trkpt lat="59.189227486483" lon="17.888620637522">
        <ele>80.4</ele>
        <time>2019-10-16T18:55:31Z</time>
      </trkpt>
      <trkpt lat="59.189249447061" lon="17.888637066046">
        <ele>80.2</ele>
        <time>2019-10-16T18:55:32Z</time>
      </trkpt>
      <trkpt lat="59.189267468146" lon="17.888656260597">
        <ele>80</ele>
        <time>2019-10-16T18:55:33Z</time>
      </trkpt>
      <trkpt lat="59.189283477575" lon="17.888680735745">
        <ele>80</ele>
        <time>2019-10-16T18:55:34Z</time>
      </trkpt>
      <trkpt lat="59.1893065278" lon="17.888713173698">
        <ele>79.8</ele>
        <time>2019-10-16T18:55:35Z</time>
      </trkpt>
      <trkpt lat="59.189329494206" lon="17.888744438185">
        <ele>79.8</ele>
        <time>2019-10-16T18:55:36Z</time>
      </trkpt>
      <trkpt lat="59.189356148648" lon="17.888788359341">
        <ele>79.8</ele>
        <time>2019-10-16T18:55:37Z</time>
      </trkpt>
      <trkpt lat="59.189392609913" lon="17.88883454361">
        <ele>79.8</ele>
        <time>2019-10-16T18:55:38Z</time>
      </trkpt>
      <trkpt lat="59.189414235215" lon="17.888883577725">
        <ele>79.6</ele>
        <time>2019-10-16T18:55:39Z</time>
      </trkpt>
      <trkpt lat="59.189439045639" lon="17.888938395351">
        <ele>79.6</ele>
        <time>2019-10-16T18:55:40Z</time>
      </trkpt>
      <trkpt lat="59.189461341493" lon="17.888996398099">
        <ele>79.6</ele>
        <time>2019-10-16T18:55:41Z</time>
      </trkpt>
      <trkpt lat="59.189471902687" lon="17.889046857137">
        <ele>79.6</ele>
        <time>2019-10-16T18:55:42Z</time>
      </trkpt>
      <trkpt lat="59.189478021474" lon="17.889093711958">
        <ele>79.6</ele>
        <time>2019-10-16T18:55:43Z</time>
      </trkpt>
      <trkpt lat="59.189482966795" lon="17.889142410797">
        <ele>79.6</ele>
        <time>2019-10-16T18:55:44Z</time>
      </trkpt>
      <trkpt lat="59.189489672315" lon="17.889195300586">
        <ele>79.6</ele>
        <time>2019-10-16T18:55:45Z</time>
      </trkpt>
      <trkpt lat="59.189495204369" lon="17.889241568674">
        <ele>79.6</ele>
        <time>2019-10-16T18:55:46Z</time>
      </trkpt>
      <trkpt lat="59.189501658432" lon="17.889296051024">
        <ele>79.6</ele>
        <time>2019-10-16T18:55:47Z</time>
      </trkpt>
      <trkpt lat="59.189509202142" lon="17.88934164856">
        <ele>79.6</ele>
        <time>2019-10-16T18:55:48Z</time>
      </trkpt>
      <trkpt lat="59.189516829671" lon="17.889390934132">
        <ele>79.6</ele>
        <time>2019-10-16T18:55:49Z</time>
      </trkpt>
      <trkpt lat="59.189521439716" lon="17.889435274383">
        <ele>79.6</ele>
        <time>2019-10-16T18:55:50Z</time>
      </trkpt>
      <trkpt lat="59.189523870467" lon="17.889482799756">
        <ele>79.6</ele>
        <time>2019-10-16T18:55:51Z</time>
      </trkpt>
      <trkpt lat="59.189529737797" lon="17.889529486939">
        <ele>79.6</ele>
        <time>2019-10-16T18:55:52Z</time>
      </trkpt>
      <trkpt lat="59.189538538792" lon="17.889569971516">
        <ele>79.6</ele>
        <time>2019-10-16T18:55:53Z</time>
      </trkpt>
      <trkpt lat="59.189542310647" lon="17.889611126645">
        <ele>79.6</ele>
        <time>2019-10-16T18:55:54Z</time>
      </trkpt>
      <trkpt lat="59.189546166321" lon="17.889649515747">
        <ele>80</ele>
        <time>2019-10-16T18:55:55Z</time>
      </trkpt>
      <trkpt lat="59.189549770538" lon="17.889694610369">
        <ele>80.2</ele>
        <time>2019-10-16T18:55:56Z</time>
      </trkpt>
      <trkpt lat="59.189555051135" lon="17.889735514041">
        <ele>80.4</ele>
        <time>2019-10-16T18:55:57Z</time>
      </trkpt>
      <trkpt lat="59.189560415551" lon="17.88978337469">
        <ele>80.6</ele>
        <time>2019-10-16T18:55:58Z</time>
      </trkpt>
      <trkpt lat="59.189564187406" lon="17.889822518163">
        <ele>80.6</ele>
        <time>2019-10-16T18:55:59Z</time>
      </trkpt>
      <trkpt lat="59.18956804308" lon="17.889869289165">
        <ele>80.8</ele>
        <time>2019-10-16T18:56:00Z</time>
      </trkpt>
      <trkpt lat="59.189574832419" lon="17.88991245595">
        <ele>81</ele>
        <time>2019-10-16T18:56:01Z</time>
      </trkpt>
      <trkpt lat="59.189587069993" lon="17.889966854481">
        <ele>81</ele>
        <time>2019-10-16T18:56:02Z</time>
      </trkpt>
      <trkpt lat="59.189599726662" lon="17.890009602171">
        <ele>81</ele>
        <time>2019-10-16T18:56:03Z</time>
      </trkpt>
      <trkpt lat="59.189609617304" lon="17.890062743417">
        <ele>81.2</ele>
        <time>2019-10-16T18:56:04Z</time>
      </trkpt>
      <trkpt lat="59.189617915385" lon="17.890124098925">
        <ele>81.2</ele>
        <time>2019-10-16T18:56:05Z</time>
      </trkpt>
      <trkpt lat="59.189622944525" lon="17.890185789709">
        <ele>81.4</ele>
        <time>2019-10-16T18:56:06Z</time>
      </trkpt>
      <trkpt lat="59.189627806027" lon="17.890245720294">
        <ele>81.6</ele>
        <time>2019-10-16T18:56:07Z</time>
      </trkpt>
      <trkpt lat="59.189638115764" lon="17.890300621739">
        <ele>81.6</ele>
        <time>2019-10-16T18:56:08Z</time>
      </trkpt>
      <trkpt lat="59.189649096053" lon="17.890363485989">
        <ele>81.8</ele>
        <time>2019-10-16T18:56:09Z</time>
      </trkpt>
      <trkpt lat="59.189659824885" lon="17.890431044103">
        <ele>81.8</ele>
        <time>2019-10-16T18:56:10Z</time>
      </trkpt>
      <trkpt lat="59.189669547889" lon="17.890494746543">
        <ele>81.8</ele>
        <time>2019-10-16T18:56:11Z</time>
      </trkpt>
      <trkpt lat="59.18967784597" lon="17.890554928585">
        <ele>82</ele>
        <time>2019-10-16T18:56:12Z</time>
      </trkpt>
      <trkpt lat="59.189686982241" lon="17.890620055948">
        <ele>82</ele>
        <time>2019-10-16T18:56:13Z</time>
      </trkpt>
      <trkpt lat="59.189694777408" lon="17.890683758388">
        <ele>82.2</ele>
        <time>2019-10-16T18:56:14Z</time>
      </trkpt>
      <trkpt lat="59.18970215348" lon="17.890738743652">
        <ele>82.4</ele>
        <time>2019-10-16T18:56:15Z</time>
      </trkpt>
      <trkpt lat="59.189708188448" lon="17.89079758459">
        <ele>82.6</ele>
        <time>2019-10-16T18:56:16Z</time>
      </trkpt>
      <trkpt lat="59.189711708846" lon="17.890858269546">
        <ele>82.6</ele>
        <time>2019-10-16T18:56:17Z</time>
      </trkpt>
      <trkpt lat="59.1897172409" lon="17.890917026665">
        <ele>82.8</ele>
        <time>2019-10-16T18:56:18Z</time>
      </trkpt>
      <trkpt lat="59.189723527325" lon="17.890977124888">
        <ele>82.8</ele>
        <time>2019-10-16T18:56:19Z</time>
      </trkpt>
      <trkpt lat="59.189727047723" lon="17.891044431545">
        <ele>82.8</ele>
        <time>2019-10-16T18:56:20Z</time>
      </trkpt>
      <trkpt lat="59.189730903397" lon="17.891107211976">
        <ele>82.8</ele>
        <time>2019-10-16T18:56:21Z</time>
      </trkpt>
      <trkpt lat="59.189734926709" lon="17.891166220552">
        <ele>82.8</ele>
        <time>2019-10-16T18:56:22Z</time>
      </trkpt>
      <trkpt lat="59.189738279469" lon="17.891223217472">
        <ele>82.8</ele>
        <time>2019-10-16T18:56:23Z</time>
      </trkpt>
      <trkpt lat="59.189743643885" lon="17.891281890772">
        <ele>82.8</ele>
        <time>2019-10-16T18:56:24Z</time>
      </trkpt>
      <trkpt lat="59.189748756844" lon="17.891340228796">
        <ele>82.8</ele>
        <time>2019-10-16T18:56:25Z</time>
      </trkpt>
      <trkpt lat="59.189753869803" lon="17.891397393354">
        <ele>82.8</ele>
        <time>2019-10-16T18:56:26Z</time>
      </trkpt>
      <trkpt lat="59.189760240047" lon="17.891454809369">
        <ele>82.6</ele>
        <time>2019-10-16T18:56:27Z</time>
      </trkpt>
      <trkpt lat="59.189770465965" lon="17.891518847085">
        <ele>82.6</ele>
        <time>2019-10-16T18:56:28Z</time>
      </trkpt>
      <trkpt lat="59.189781949168" lon="17.891592021072">
        <ele>82.6</ele>
        <time>2019-10-16T18:56:29Z</time>
      </trkpt>
      <trkpt lat="59.189791755991" lon="17.891667793448">
        <ele>82.6</ele>
        <time>2019-10-16T18:56:30Z</time>
      </trkpt>
      <trkpt lat="59.189799802615" lon="17.891736105933">
        <ele>82.4</ele>
        <time>2019-10-16T18:56:31Z</time>
      </trkpt>
      <trkpt lat="59.189810866723" lon="17.891792767577">
        <ele>82.2</ele>
        <time>2019-10-16T18:56:32Z</time>
      </trkpt>
      <trkpt lat="59.189821092641" lon="17.891840879683">
        <ele>82.2</ele>
        <time>2019-10-16T18:56:33Z</time>
      </trkpt>
      <trkpt lat="59.189827630523" lon="17.891888153599">
        <ele>82.2</ele>
        <time>2019-10-16T18:56:34Z</time>
      </trkpt>
      <trkpt lat="59.189839113726" lon="17.891952023677">
        <ele>82</ele>
        <time>2019-10-16T18:56:35Z</time>
      </trkpt>
      <trkpt lat="59.189851518938" lon="17.892014385013">
        <ele>82</ele>
        <time>2019-10-16T18:56:36Z</time>
      </trkpt>
      <trkpt lat="59.189861493399" lon="17.892069202639">
        <ele>82</ele>
        <time>2019-10-16T18:56:37Z</time>
      </trkpt>
      <trkpt lat="59.189869456204" lon="17.892129552319">
        <ele>82</ele>
        <time>2019-10-16T18:56:38Z</time>
      </trkpt>
      <trkpt lat="59.189877670466" lon="17.892189063809">
        <ele>82</ele>
        <time>2019-10-16T18:56:39Z</time>
      </trkpt>
      <trkpt lat="59.189887142013" lon="17.892253352982">
        <ele>82</ele>
        <time>2019-10-16T18:56:40Z</time>
      </trkpt>
      <trkpt lat="59.189897032655" lon="17.892314624671">
        <ele>82</ele>
        <time>2019-10-16T18:56:41Z</time>
      </trkpt>
      <trkpt lat="59.189907090935" lon="17.892374639075">
        <ele>82</ele>
        <time>2019-10-16T18:56:42Z</time>
      </trkpt>
      <trkpt lat="59.189915305197" lon="17.892432725642">
        <ele>82</ele>
        <time>2019-10-16T18:56:43Z</time>
      </trkpt>
      <trkpt lat="59.189924357649" lon="17.892487710906">
        <ele>82.2</ele>
        <time>2019-10-16T18:56:44Z</time>
      </trkpt>
      <trkpt lat="59.189935086481" lon="17.892544624007">
        <ele>82.4</ele>
        <time>2019-10-16T18:56:45Z</time>
      </trkpt>
      <trkpt lat="59.18994271401" lon="17.89259801671">
        <ele>82.4</ele>
        <time>2019-10-16T18:56:46Z</time>
      </trkpt>
      <trkpt lat="59.189949754806" lon="17.892652834336">
        <ele>82.4</ele>
        <time>2019-10-16T18:56:47Z</time>
      </trkpt>
      <trkpt lat="59.189955789774" lon="17.89271368693">
        <ele>82.6</ele>
        <time>2019-10-16T18:56:48Z</time>
      </trkpt>
      <trkpt lat="59.189960148362" lon="17.892772695506">
        <ele>82.6</ele>
        <time>2019-10-16T18:56:49Z</time>
      </trkpt>
      <trkpt lat="59.189964004036" lon="17.892831201168">
        <ele>82.6</ele>
        <time>2019-10-16T18:56:50Z</time>
      </trkpt>
      <trkpt lat="59.189966267149" lon="17.892888281907">
        <ele>82.8</ele>
        <time>2019-10-16T18:56:51Z</time>
      </trkpt>
      <trkpt lat="59.189968111167" lon="17.892948212492">
        <ele>82.8</ele>
        <time>2019-10-16T18:56:52Z</time>
      </trkpt>
      <trkpt lat="59.189971631565" lon="17.893003616851">
        <ele>83</ele>
        <time>2019-10-16T18:56:53Z</time>
      </trkpt>
      <trkpt lat="59.189974649049" lon="17.893062290151">
        <ele>83</ele>
        <time>2019-10-16T18:56:54Z</time>
      </trkpt>
      <trkpt lat="59.189975319601" lon="17.893121382546">
        <ele>83.2</ele>
        <time>2019-10-16T18:56:55Z</time>
      </trkpt>
      <trkpt lat="59.189980264922" lon="17.893180307303">
        <ele>83.2</ele>
        <time>2019-10-16T18:56:56Z</time>
      </trkpt>
      <trkpt lat="59.189984120596" lon="17.893236046938">
        <ele>83.2</ele>
        <time>2019-10-16T18:56:57Z</time>
      </trkpt>
      <trkpt lat="59.189987640994" lon="17.893292540944">
        <ele>83.2</ele>
        <time>2019-10-16T18:56:58Z</time>
      </trkpt>
      <trkpt lat="59.189991831944" lon="17.893346688018">
        <ele>83.2</ele>
        <time>2019-10-16T18:56:59Z</time>
      </trkpt>
      <trkpt lat="59.189997028722" lon="17.893403265843">
        <ele>83.2</ele>
        <time>2019-10-16T18:57:00Z</time>
      </trkpt>
      <trkpt lat="59.19000054912" lon="17.893459927487">
        <ele>83.2</ele>
        <time>2019-10-16T18:57:01Z</time>
      </trkpt>
      <trkpt lat="59.190004907708" lon="17.893516840588">
        <ele>83.2</ele>
        <time>2019-10-16T18:57:02Z</time>
      </trkpt>
      <trkpt lat="59.190008260468" lon="17.89357786082">
        <ele>83.2</ele>
        <time>2019-10-16T18:57:03Z</time>
      </trkpt>
      <trkpt lat="59.190011697047" lon="17.893641982355">
        <ele>83.2</ele>
        <time>2019-10-16T18:57:04Z</time>
      </trkpt>
      <trkpt lat="59.190013708703" lon="17.893705852433">
        <ele>83.4</ele>
        <time>2019-10-16T18:57:05Z</time>
      </trkpt>
      <trkpt lat="59.190015971816" lon="17.893765783018">
        <ele>83.4</ele>
        <time>2019-10-16T18:57:06Z</time>
      </trkpt>
      <trkpt lat="59.190018570205" lon="17.893822947576">
        <ele>83.4</ele>
        <time>2019-10-16T18:57:07Z</time>
      </trkpt>
      <trkpt lat="59.190021420051" lon="17.893884722179">
        <ele>83.4</ele>
        <time>2019-10-16T18:57:08Z</time>
      </trkpt>
      <trkpt lat="59.190024521354" lon="17.893948927533">
        <ele>83.4</ele>
        <time>2019-10-16T18:57:09Z</time>
      </trkpt>
      <trkpt lat="59.190025359544" lon="17.894016820923">
        <ele>83.4</ele>
        <time>2019-10-16T18:57:10Z</time>
      </trkpt>
      <trkpt lat="59.190026197734" lon="17.894087228883">
        <ele>83.4</ele>
        <time>2019-10-16T18:57:11Z</time>
      </trkpt>
      <trkpt lat="59.190028125571" lon="17.894160067594">
        <ele>83.4</ele>
        <time>2019-10-16T18:57:12Z</time>
      </trkpt>
      <trkpt lat="59.190030807779" lon="17.894237348712">
        <ele>83.4</ele>
        <time>2019-10-16T18:57:13Z</time>
      </trkpt>
      <trkpt lat="59.190033909082" lon="17.894316641486">
        <ele>83.2</ele>
        <time>2019-10-16T18:57:14Z</time>
      </trkpt>
      <trkpt lat="59.190036758928" lon="17.894392916776">
        <ele>83.2</ele>
        <time>2019-10-16T18:57:15Z</time>
      </trkpt>
      <trkpt lat="59.19003910586" lon="17.894465001116">
        <ele>83.2</ele>
        <time>2019-10-16T18:57:16Z</time>
      </trkpt>
      <trkpt lat="59.190041704249" lon="17.894533732696">
        <ele>83.2</ele>
        <time>2019-10-16T18:57:17Z</time>
      </trkpt>
      <trkpt lat="59.190042542439" lon="17.894600620258">
        <ele>83</ele>
        <time>2019-10-16T18:57:18Z</time>
      </trkpt>
      <trkpt lat="59.190042877715" lon="17.894667424001">
        <ele>82.4</ele>
        <time>2019-10-16T18:57:19Z</time>
      </trkpt>
      <trkpt lat="59.190049918511" lon="17.89472701931">
        <ele>82.2</ele>
        <time>2019-10-16T18:57:20Z</time>
      </trkpt>
      <trkpt lat="59.190062491361" lon="17.894775801968">
        <ele>82</ele>
        <time>2019-10-16T18:57:21Z</time>
      </trkpt>
      <trkpt lat="59.190076153858" lon="17.894815532174">
        <ele>81.8</ele>
        <time>2019-10-16T18:57:22Z</time>
      </trkpt>
      <trkpt lat="59.190091241278" lon="17.894856519665">
        <ele>81.8</ele>
        <time>2019-10-16T18:57:23Z</time>
      </trkpt>
      <trkpt lat="59.190104568499" lon="17.894894154396">
        <ele>81.8</ele>
        <time>2019-10-16T18:57:24Z</time>
      </trkpt>
      <trkpt lat="59.190120913204" lon="17.894927011444">
        <ele>81.8</ele>
        <time>2019-10-16T18:57:25Z</time>
      </trkpt>
      <trkpt lat="59.190134324244" lon="17.894955593723">
        <ele>81.8</ele>
        <time>2019-10-16T18:57:26Z</time>
      </trkpt>
      <trkpt lat="59.190146645637" lon="17.894985349468">
        <ele>81.8</ele>
        <time>2019-10-16T18:57:27Z</time>
      </trkpt>
      <trkpt lat="59.190158631754" lon="17.895016446317">
        <ele>81.8</ele>
        <time>2019-10-16T18:57:28Z</time>
      </trkpt>
      <trkpt lat="59.190168019482" lon="17.895046956433">
        <ele>81.8</ele>
        <time>2019-10-16T18:57:29Z</time>
      </trkpt>
      <trkpt lat="59.190178748314" lon="17.895081825137">
        <ele>81.8</ele>
        <time>2019-10-16T18:57:30Z</time>
      </trkpt>
      <trkpt lat="59.190191404983" lon="17.895116526203">
        <ele>81.8</ele>
        <time>2019-10-16T18:57:31Z</time>
      </trkpt>
      <trkpt lat="59.190207162955" lon="17.895153993296">
        <ele>81.8</ele>
        <time>2019-10-16T18:57:32Z</time>
      </trkpt>
      <trkpt lat="59.190224513488" lon="17.895189867828">
        <ele>81.8</ele>
        <time>2019-10-16T18:57:33Z</time>
      </trkpt>
      <trkpt lat="59.190233314483" lon="17.895231442052">
        <ele>81.8</ele>
        <time>2019-10-16T18:57:34Z</time>
      </trkpt>
      <trkpt lat="59.190233314483" lon="17.895276788131">
        <ele>81.8</ele>
        <time>2019-10-16T18:57:35Z</time>
      </trkpt>
      <trkpt lat="59.190229123533" lon="17.895319954916">
        <ele>81.8</ele>
        <time>2019-10-16T18:57:36Z</time>
      </trkpt>
      <trkpt lat="59.190228955895" lon="17.895367312651">
        <ele>81.8</ele>
        <time>2019-10-16T18:57:37Z</time>
      </trkpt>
      <trkpt lat="59.19023272775" lon="17.895414083653">
        <ele>81.8</ele>
        <time>2019-10-16T18:57:38Z</time>
      </trkpt>
      <trkpt lat="59.190238846537" lon="17.895457753352">
        <ele>81.8</ele>
        <time>2019-10-16T18:57:39Z</time>
      </trkpt>
      <trkpt lat="59.19024446241" lon="17.89549983049">
        <ele>81.8</ele>
        <time>2019-10-16T18:57:40Z</time>
      </trkpt>
      <trkpt lat="59.190248904817" lon="17.895536962307">
        <ele>81.8</ele>
        <time>2019-10-16T18:57:41Z</time>
      </trkpt>
      <trkpt lat="59.190247731351" lon="17.895568059156">
        <ele>81.8</ele>
        <time>2019-10-16T18:57:42Z</time>
      </trkpt>
      <trkpt lat="59.190242869849" lon="17.89560544243">
        <ele>81.8</ele>
        <time>2019-10-16T18:57:43Z</time>
      </trkpt>
      <trkpt lat="59.190235996691" lon="17.895637126012">
        <ele>81.8</ele>
        <time>2019-10-16T18:57:44Z</time>
      </trkpt>
      <trkpt lat="59.19022686042" lon="17.895661684979">
        <ele>81.8</ele>
        <time>2019-10-16T18:57:45Z</time>
      </trkpt>
      <trkpt lat="59.190219232891" lon="17.895692781828">
        <ele>81.8</ele>
        <time>2019-10-16T18:57:46Z</time>
      </trkpt>
      <trkpt lat="59.190212695009" lon="17.8957253036">
        <ele>81.8</ele>
        <time>2019-10-16T18:57:47Z</time>
      </trkpt>
      <trkpt lat="59.190210431896" lon="17.895757573915">
        <ele>81.8</ele>
        <time>2019-10-16T18:57:48Z</time>
      </trkpt>
      <trkpt lat="59.19020925843" lon="17.895792191162">
        <ele>81.6</ele>
        <time>2019-10-16T18:57:49Z</time>
      </trkpt>
      <trkpt lat="59.190213281742" lon="17.895823036554">
        <ele>81.6</ele>
        <time>2019-10-16T18:57:50Z</time>
      </trkpt>
      <trkpt lat="59.190219232891" lon="17.895857569982">
        <ele>81.6</ele>
        <time>2019-10-16T18:57:51Z</time>
      </trkpt>
      <trkpt lat="59.19022518404" lon="17.895896210541">
        <ele>81.6</ele>
        <time>2019-10-16T18:57:52Z</time>
      </trkpt>
      <trkpt lat="59.190233901216" lon="17.895936862756">
        <ele>81.6</ele>
        <time>2019-10-16T18:57:53Z</time>
      </trkpt>
      <trkpt lat="59.190248401903" lon="17.895978185523">
        <ele>81.6</ele>
        <time>2019-10-16T18:57:54Z</time>
      </trkpt>
      <trkpt lat="59.190257957269" lon="17.896002157757">
        <ele>81.6</ele>
        <time>2019-10-16T18:57:55Z</time>
      </trkpt>
      <trkpt lat="59.190268099368" lon="17.896034763348">
        <ele>81.6</ele>
        <time>2019-10-16T18:57:56Z</time>
      </trkpt>
      <trkpt lat="59.19028050458" lon="17.896070721699">
        <ele>81.6</ele>
        <time>2019-10-16T18:57:57Z</time>
      </trkpt>
      <trkpt lat="59.190296765466" lon="17.896114391398">
        <ele>81.6</ele>
        <time>2019-10-16T18:57:58Z</time>
      </trkpt>
      <trkpt lat="59.190314618913" lon="17.896153199595">
        <ele>81.6</ele>
        <time>2019-10-16T18:57:59Z</time>
      </trkpt>
      <trkpt lat="59.190333981102" lon="17.896190163774">
        <ele>81.6</ele>
        <time>2019-10-16T18:58:00Z</time>
      </trkpt>
      <trkpt lat="59.19035091254" lon="17.896226122125">
        <ele>81.6</ele>
        <time>2019-10-16T18:58:01Z</time>
      </trkpt>
      <trkpt lat="59.190371364376" lon="17.896269037453">
        <ele>81.6</ele>
        <time>2019-10-16T18:58:02Z</time>
      </trkpt>
      <trkpt lat="59.190390391289" lon="17.896312455695">
        <ele>81.6</ele>
        <time>2019-10-16T18:58:03Z</time>
      </trkpt>
      <trkpt lat="59.190403550872" lon="17.896359394335">
        <ele>81.4</ele>
        <time>2019-10-16T18:58:04Z</time>
      </trkpt>
      <trkpt lat="59.190420230853" lon="17.896410523925">
        <ele>81.4</ele>
        <time>2019-10-16T18:58:05Z</time>
      </trkpt>
      <trkpt lat="59.190438838671" lon="17.896465676827">
        <ele>81.2</ele>
        <time>2019-10-16T18:58:06Z</time>
      </trkpt>
      <trkpt lat="59.190453590815" lon="17.896522589928">
        <ele>81.2</ele>
        <time>2019-10-16T18:58:07Z</time>
      </trkpt>
      <trkpt lat="59.190468594416" lon="17.896571288767">
        <ele>81.2</ele>
        <time>2019-10-16T18:58:08Z</time>
      </trkpt>
      <trkpt lat="59.190482759827" lon="17.896613952638">
        <ele>81.2</ele>
        <time>2019-10-16T18:58:09Z</time>
      </trkpt>
      <trkpt lat="59.190499439808" lon="17.896663489667">
        <ele>81.2</ele>
        <time>2019-10-16T18:58:10Z</time>
      </trkpt>
      <trkpt lat="59.190516957979" lon="17.896713864886">
        <ele>81</ele>
        <time>2019-10-16T18:58:11Z</time>
      </trkpt>
      <trkpt lat="59.19053279977" lon="17.896769185426">
        <ele>81</ele>
        <time>2019-10-16T18:58:12Z</time>
      </trkpt>
      <trkpt lat="59.190547300457" lon="17.896820063559">
        <ele>81</ele>
        <time>2019-10-16T18:58:13Z</time>
      </trkpt>
      <trkpt lat="59.190562723153" lon="17.896862056878">
        <ele>81</ele>
        <time>2019-10-16T18:58:14Z</time>
      </trkpt>
      <trkpt lat="59.190577726754" lon="17.896907235319">
        <ele>81</ele>
        <time>2019-10-16T18:58:15Z</time>
      </trkpt>
      <trkpt lat="59.190592562717" lon="17.896946294973">
        <ele>81</ele>
        <time>2019-10-16T18:58:16Z</time>
      </trkpt>
      <trkpt lat="59.190602788635" lon="17.89697923584">
        <ele>81</ele>
        <time>2019-10-16T18:58:17Z</time>
      </trkpt>
      <trkpt lat="59.19060739868" lon="17.897012260526">
        <ele>81</ele>
        <time>2019-10-16T18:58:18Z</time>
      </trkpt>
      <trkpt lat="59.190614355657" lon="17.897058780071">
        <ele>80.8</ele>
        <time>2019-10-16T18:58:19Z</time>
      </trkpt>
      <trkpt lat="59.190625335946" lon="17.897118040104">
        <ele>80.8</ele>
        <time>2019-10-16T18:58:20Z</time>
      </trkpt>
      <trkpt lat="59.190633298751" lon="17.897177132499">
        <ele>80.6</ele>
        <time>2019-10-16T18:58:21Z</time>
      </trkpt>
      <trkpt lat="59.190642183565" lon="17.897232788315">
        <ele>80.4</ele>
        <time>2019-10-16T18:58:22Z</time>
      </trkpt>
      <trkpt lat="59.190647212705" lon="17.897278134394">
        <ele>80.4</ele>
        <time>2019-10-16T18:58:23Z</time>
      </trkpt>
      <trkpt lat="59.190655426967" lon="17.897330688907">
        <ele>80.4</ele>
        <time>2019-10-16T18:58:24Z</time>
      </trkpt>
      <trkpt lat="59.190660707564" lon="17.897372514588">
        <ele>80.4</ele>
        <time>2019-10-16T18:58:25Z</time>
      </trkpt>
      <trkpt lat="59.190663054496" lon="17.8974268293">
        <ele>80.2</ele>
        <time>2019-10-16T18:58:26Z</time>
      </trkpt>
      <trkpt lat="59.190667161627" lon="17.897480305822">
        <ele>80.2</ele>
        <time>2019-10-16T18:58:27Z</time>
      </trkpt>
      <trkpt lat="59.190669340921" lon="17.897525484263">
        <ele>80.2</ele>
        <time>2019-10-16T18:58:28Z</time>
      </trkpt>
      <trkpt lat="59.190668921826" lon="17.897557670759">
        <ele>80.2</ele>
        <time>2019-10-16T18:58:29Z</time>
      </trkpt>
      <trkpt lat="59.19067529207" lon="17.897596814232">
        <ele>80.2</ele>
        <time>2019-10-16T18:58:30Z</time>
      </trkpt>
      <trkpt lat="59.190678728649" lon="17.897637047352">
        <ele>80</ele>
        <time>2019-10-16T18:58:31Z</time>
      </trkpt>
      <trkpt lat="59.190677639002" lon="17.897672670427">
        <ele>80</ele>
        <time>2019-10-16T18:58:32Z</time>
      </trkpt>
      <trkpt lat="59.190676549355" lon="17.897714747565">
        <ele>80</ele>
        <time>2019-10-16T18:58:33Z</time>
      </trkpt>
      <trkpt lat="59.190680237391" lon="17.897782808593">
        <ele>80</ele>
        <time>2019-10-16T18:58:34Z</time>
      </trkpt>
      <trkpt lat="59.190682500504" lon="17.89784927706">
        <ele>80</ele>
        <time>2019-10-16T18:58:35Z</time>
      </trkpt>
      <trkpt lat="59.190684093065" lon="17.897912728043">
        <ele>80</ele>
        <time>2019-10-16T18:58:36Z</time>
      </trkpt>
      <trkpt lat="59.190698007019" lon="17.897967294212">
        <ele>80</ele>
        <time>2019-10-16T18:58:37Z</time>
      </trkpt>
      <trkpt lat="59.190707813842" lon="17.898057902551">
        <ele>79.8</ele>
        <time>2019-10-16T18:58:38Z</time>
      </trkpt>
      <trkpt lat="59.190714938457" lon="17.898083886441">
        <ele>79.8</ele>
        <time>2019-10-16T18:58:39Z</time>
      </trkpt>
      <trkpt lat="59.190719632321" lon="17.898111462892">
        <ele>79.8</ele>
        <time>2019-10-16T18:58:40Z</time>
      </trkpt>
      <trkpt lat="59.190730780248" lon="17.898141218637">
        <ele>79.6</ele>
        <time>2019-10-16T18:58:41Z</time>
      </trkpt>
      <trkpt lat="59.190737569587" lon="17.898157814799">
        <ele>79.6</ele>
        <time>2019-10-16T18:58:42Z</time>
      </trkpt>
      <trkpt lat="59.190745532392" lon="17.898176338798">
        <ele>79.6</ele>
        <time>2019-10-16T18:58:43Z</time>
      </trkpt>
      <trkpt lat="59.190835637817" lon="17.898399381157">
        <ele>79.4</ele>
        <time>2019-10-16T18:59:30Z</time>
      </trkpt>
      <trkpt lat="59.19084544464" lon="17.898420755002">
        <ele>79.4</ele>
        <time>2019-10-16T18:59:31Z</time>
      </trkpt>
      <trkpt lat="59.190860699698" lon="17.898438440811">
        <ele>79.4</ele>
        <time>2019-10-16T18:59:32Z</time>
      </trkpt>
      <trkpt lat="59.190870757978" lon="17.89845193567">
        <ele>79.6</ele>
        <time>2019-10-16T18:59:33Z</time>
      </trkpt>
      <trkpt lat="59.190875284204" lon="17.898456629534">
        <ele>79.6</ele>
        <time>2019-10-16T18:59:34Z</time>
      </trkpt>
      <trkpt lat="59.190883833742" lon="17.898459563199">
        <ele>79.6</ele>
        <time>2019-10-16T18:59:35Z</time>
      </trkpt>
      <trkpt lat="59.190894143479" lon="17.898458808828">
        <ele>79.6</ele>
        <time>2019-10-16T18:59:36Z</time>
      </trkpt>
      <trkpt lat="59.190908141252" lon="17.898459311742">
        <ele>79.6</ele>
        <time>2019-10-16T18:59:37Z</time>
      </trkpt>
      <trkpt lat="59.190917109885" lon="17.898465933443">
        <ele>79.6</ele>
        <time>2019-10-16T18:59:38Z</time>
      </trkpt>
      <trkpt lat="59.190920965559" lon="17.898472722782">
        <ele>79.6</ele>
        <time>2019-10-16T18:59:39Z</time>
      </trkpt>
      <trkpt lat="59.190927754898" lon="17.898482194329">
        <ele>79.6</ele>
        <time>2019-10-16T18:59:40Z</time>
      </trkpt>
      <trkpt lat="59.190996067383" lon="17.898478254836">
        <ele>80</ele>
        <time>2019-10-16T18:59:45Z</time>
      </trkpt>
      <trkpt lat="59.19101392083" lon="17.898479009207">
        <ele>80</ele>
        <time>2019-10-16T18:59:46Z</time>
      </trkpt>
      <trkpt lat="59.19103068463" lon="17.898477332827">
        <ele>80</ele>
        <time>2019-10-16T18:59:47Z</time>
      </trkpt>
      <trkpt lat="59.191046107326" lon="17.898476075542">
        <ele>80</ele>
        <time>2019-10-16T18:59:48Z</time>
      </trkpt>
      <trkpt lat="59.191064296049" lon="17.898467526004">
        <ele>80</ele>
        <time>2019-10-16T18:59:49Z</time>
      </trkpt>
      <trkpt lat="59.191085586075" lon="17.898460233751">
        <ele>80</ele>
        <time>2019-10-16T18:59:50Z</time>
      </trkpt>
      <trkpt lat="59.191105115902" lon="17.898453444412">
        <ele>80</ele>
        <time>2019-10-16T18:59:51Z</time>
      </trkpt>
      <trkpt lat="59.191121544426" lon="17.898449253462">
        <ele>80</ele>
        <time>2019-10-16T18:59:52Z</time>
      </trkpt>
      <trkpt lat="59.19113294381" lon="17.898445397788">
        <ele>80</ele>
        <time>2019-10-16T18:59:53Z</time>
      </trkpt>
      <trkpt lat="59.191149791429" lon="17.898435590965">
        <ele>80</ele>
        <time>2019-10-16T18:59:54Z</time>
      </trkpt>
      <trkpt lat="59.191160017347" lon="17.898425784142">
        <ele>80</ele>
        <time>2019-10-16T18:59:55Z</time>
      </trkpt>
      <trkpt lat="59.191178457527" lon="17.898412708378">
        <ele>80</ele>
        <time>2019-10-16T18:59:56Z</time>
      </trkpt>
      <trkpt lat="59.191200921019" lon="17.898407176324">
        <ele>80</ele>
        <time>2019-10-16T18:59:57Z</time>
      </trkpt>
      <trkpt lat="59.191224977072" lon="17.898396698949">
        <ele>80</ele>
        <time>2019-10-16T18:59:58Z</time>
      </trkpt>
      <trkpt lat="59.191242830519" lon="17.898394687293">
        <ele>80</ele>
        <time>2019-10-16T18:59:59Z</time>
      </trkpt>
      <trkpt lat="59.191257415025" lon="17.898390161067">
        <ele>80.2</ele>
        <time>2019-10-16T19:00:00Z</time>
      </trkpt>
      <trkpt lat="59.191278537413" lon="17.898383790823">
        <ele>80.2</ele>
        <time>2019-10-16T19:00:01Z</time>
      </trkpt>
      <trkpt lat="59.191298737792" lon="17.898383120271">
        <ele>80.2</ele>
        <time>2019-10-16T19:00:02Z</time>
      </trkpt>
      <trkpt lat="59.191313825212" lon="17.898378510226">
        <ele>80.2</ele>
        <time>2019-10-16T19:00:03Z</time>
      </trkpt>
      <trkpt lat="59.191325643691" lon="17.898379935149">
        <ele>80.2</ele>
        <time>2019-10-16T19:00:04Z</time>
      </trkpt>
      <trkpt lat="59.191341904577" lon="17.898371385611">
        <ele>80.2</ele>
        <time>2019-10-16T19:00:05Z</time>
      </trkpt>
      <trkpt lat="59.191351962857" lon="17.898372056163">
        <ele>80.4</ele>
        <time>2019-10-16T19:00:06Z</time>
      </trkpt>
      <trkpt lat="59.191365709173" lon="17.89836224934">
        <ele>80.4</ele>
        <time>2019-10-16T19:00:07Z</time>
      </trkpt>
      <trkpt lat="59.19138272443" lon="17.898355879096">
        <ele>80.6</ele>
        <time>2019-10-16T19:00:08Z</time>
      </trkpt>
      <trkpt lat="59.191393201805" lon="17.898350347042">
        <ele>80.6</ele>
        <time>2019-10-16T19:00:09Z</time>
      </trkpt>
      <trkpt lat="59.191407115759" lon="17.898344814988">
        <ele>80.8</ele>
        <time>2019-10-16T19:00:10Z</time>
      </trkpt>
      <trkpt lat="59.191419018057" lon="17.898340204943">
        <ele>80.8</ele>
        <time>2019-10-16T19:00:11Z</time>
      </trkpt>
      <trkpt lat="59.191428489604" lon="17.898329476111">
        <ele>80.8</ele>
        <time>2019-10-16T19:00:12Z</time>
      </trkpt>
      <trkpt lat="59.191441146273" lon="17.898326710084">
        <ele>81</ele>
        <time>2019-10-16T19:00:13Z</time>
      </trkpt>
      <trkpt lat="59.191453216209" lon="17.898326793903">
        <ele>81</ele>
        <time>2019-10-16T19:00:14Z</time>
      </trkpt>
      <trkpt lat="59.191467884534" lon="17.898326626265">
        <ele>81.2</ele>
        <time>2019-10-16T19:00:15Z</time>
      </trkpt>
      <trkpt lat="59.191480625022" lon="17.898323357324">
        <ele>81.2</ele>
        <time>2019-10-16T19:00:16Z</time>
      </trkpt>
      <trkpt lat="59.191488001094" lon="17.898320004564">
        <ele>81.2</ele>
        <time>2019-10-16T19:00:17Z</time>
      </trkpt>
      <trkpt lat="59.191502669419" lon="17.898319417831">
        <ele>81.4</ele>
        <time>2019-10-16T19:00:18Z</time>
      </trkpt>
      <trkpt lat="59.191715988774" lon="17.89826753387">
        <ele>82.6</ele>
        <time>2019-10-16T19:00:50Z</time>
      </trkpt>
      <trkpt lat="59.191732920212" lon="17.898274407028">
        <ele>82.6</ele>
        <time>2019-10-16T19:00:51Z</time>
      </trkpt>
      <trkpt lat="59.191752114763" lon="17.89828681224">
        <ele>82.6</ele>
        <time>2019-10-16T19:00:52Z</time>
      </trkpt>
      <trkpt lat="59.191767872735" lon="17.898310197741">
        <ele>82.6</ele>
        <time>2019-10-16T19:00:53Z</time>
      </trkpt>
      <trkpt lat="59.191783211612" lon="17.89833626545">
        <ele>82.6</ele>
        <time>2019-10-16T19:00:54Z</time>
      </trkpt>
      <trkpt lat="59.191797293204" lon="17.898357723114">
        <ele>82.6</ele>
        <time>2019-10-16T19:00:55Z</time>
      </trkpt>
      <trkpt lat="59.191810620425" lon="17.898379432235">
        <ele>82.4</ele>
        <time>2019-10-16T19:00:56Z</time>
      </trkpt>
      <trkpt lat="59.191820008153" lon="17.898402650098">
        <ele>82.6</ele>
        <time>2019-10-16T19:00:57Z</time>
      </trkpt>
      <trkpt lat="59.191825540207" lon="17.898431316196">
        <ele>82.6</ele>
        <time>2019-10-16T19:00:58Z</time>
      </trkpt>
      <trkpt lat="59.191833000098" lon="17.898455456068">
        <ele>82.6</ele>
        <time>2019-10-16T19:00:59Z</time>
      </trkpt>
      <trkpt lat="59.191842471645" lon="17.898476913732">
        <ele>82.6</ele>
        <time>2019-10-16T19:01:00Z</time>
      </trkpt>
      <trkpt lat="59.191848841889" lon="17.89850306526">
        <ele>82.6</ele>
        <time>2019-10-16T19:01:01Z</time>
      </trkpt>
      <trkpt lat="59.191854457762" lon="17.898530390254">
        <ele>82.6</ele>
        <time>2019-10-16T19:01:02Z</time>
      </trkpt>
      <trkpt lat="59.191859570721" lon="17.898548662796">
        <ele>82.6</ele>
        <time>2019-10-16T19:01:03Z</time>
      </trkpt>
      <trkpt lat="59.191864767499" lon="17.898570707193">
        <ele>82.6</ele>
        <time>2019-10-16T19:01:04Z</time>
      </trkpt>
      <trkpt lat="59.191869796639" lon="17.898593841237">
        <ele>82.6</ele>
        <time>2019-10-16T19:01:05Z</time>
      </trkpt>
      <trkpt lat="59.191905168257" lon="17.898759635219">
        <ele>83.2</ele>
        <time>2019-10-16T19:01:43Z</time>
      </trkpt>
      <trkpt lat="59.191912125234" lon="17.89877966796">
        <ele>83.2</ele>
        <time>2019-10-16T19:01:44Z</time>
      </trkpt>
      <trkpt lat="59.191920171858" lon="17.898809926619">
        <ele>83.2</ele>
        <time>2019-10-16T19:01:45Z</time>
      </trkpt>
      <trkpt lat="59.191929727224" lon="17.898838927993">
        <ele>83.2</ele>
        <time>2019-10-16T19:01:46Z</time>
      </trkpt>
      <trkpt lat="59.19194347354" lon="17.898875892172">
        <ele>83</ele>
        <time>2019-10-16T19:01:47Z</time>
      </trkpt>
      <trkpt lat="59.191954034734" lon="17.898917801672">
        <ele>83</ele>
        <time>2019-10-16T19:01:48Z</time>
      </trkpt>
      <trkpt lat="59.191963254824" lon="17.898955520222">
        <ele>83</ele>
        <time>2019-10-16T19:01:49Z</time>
      </trkpt>
      <trkpt lat="59.191981275909" lon="17.899010002572">
        <ele>83</ele>
        <time>2019-10-16T19:01:50Z</time>
      </trkpt>
      <trkpt lat="59.191997788252" lon="17.899058617592">
        <ele>83</ele>
        <time>2019-10-16T19:01:51Z</time>
      </trkpt>
      <trkpt lat="59.192012456577" lon="17.899106478241">
        <ele>82.6</ele>
        <time>2019-10-16T19:01:52Z</time>
      </trkpt>
      <trkpt lat="59.192032405499" lon="17.899167582292">
        <ele>82.2</ele>
        <time>2019-10-16T19:01:53Z</time>
      </trkpt>
      <trkpt lat="59.192053695525" lon="17.899253161491">
        <ele>81.2</ele>
        <time>2019-10-16T19:01:54Z</time>
      </trkpt>
      <trkpt lat="59.192070794601" lon="17.899326922211">
        <ele>80.4</ele>
        <time>2019-10-16T19:01:55Z</time>
      </trkpt>
      <trkpt lat="59.192086049659" lon="17.899386936615">
        <ele>80.2</ele>
        <time>2019-10-16T19:01:56Z</time>
      </trkpt>
      <trkpt lat="59.192100634165" lon="17.899442257155">
        <ele>80</ele>
        <time>2019-10-16T19:01:57Z</time>
      </trkpt>
      <trkpt lat="59.192117062689" lon="17.899500008446">
        <ele>80</ele>
        <time>2019-10-16T19:01:58Z</time>
      </trkpt>
      <trkpt lat="59.192131647195" lon="17.899564465257">
        <ele>79.6</ele>
        <time>2019-10-16T19:01:59Z</time>
      </trkpt>
      <trkpt lat="59.192147488986" lon="17.899633113018">
        <ele>79.4</ele>
        <time>2019-10-16T19:02:00Z</time>
      </trkpt>
      <trkpt lat="59.192161570578" lon="17.899693965612">
        <ele>79.2</ele>
        <time>2019-10-16T19:02:01Z</time>
      </trkpt>
      <trkpt lat="59.192173556695" lon="17.899752471274">
        <ele>79</ele>
        <time>2019-10-16T19:02:02Z</time>
      </trkpt>
      <trkpt lat="59.192188057382" lon="17.899809719651">
        <ele>78.8</ele>
        <time>2019-10-16T19:02:03Z</time>
      </trkpt>
      <trkpt lat="59.192207251933" lon="17.8998575803">
        <ele>78.8</ele>
        <time>2019-10-16T19:02:04Z</time>
      </trkpt>
      <trkpt lat="59.192225021561" lon="17.899896639954">
        <ele>78.6</ele>
        <time>2019-10-16T19:02:05Z</time>
      </trkpt>
      <trkpt lat="59.192245389578" lon="17.899950116476">
        <ele>78.4</ele>
        <time>2019-10-16T19:02:06Z</time>
      </trkpt>
      <trkpt lat="59.192266428147" lon="17.900008035405">
        <ele>78.2</ele>
        <time>2019-10-16T19:02:07Z</time>
      </trkpt>
      <trkpt lat="59.192291154752" lon="17.900063104488">
        <ele>78</ele>
        <time>2019-10-16T19:02:08Z</time>
      </trkpt>
      <trkpt lat="59.192314959348" lon="17.90011909558">
        <ele>78</ele>
        <time>2019-10-16T19:02:09Z</time>
      </trkpt>
      <trkpt lat="59.192342284342" lon="17.90016854879">
        <ele>78</ele>
        <time>2019-10-16T19:02:10Z</time>
      </trkpt>
      <trkpt lat="59.192369609336" lon="17.900210961204">
        <ele>78</ele>
        <time>2019-10-16T19:02:11Z</time>
      </trkpt>
      <trkpt lat="59.192395090312" lon="17.900244069709">
        <ele>77.8</ele>
        <time>2019-10-16T19:02:12Z</time>
      </trkpt>
      <trkpt lat="59.192427276808" lon="17.90028002806">
        <ele>77.8</ele>
        <time>2019-10-16T19:02:13Z</time>
      </trkpt>
      <trkpt lat="59.192461642598" lon="17.900325457958">
        <ele>77.8</ele>
        <time>2019-10-16T19:02:14Z</time>
      </trkpt>
      <trkpt lat="59.192494667284" lon="17.900365774897">
        <ele>77.6</ele>
        <time>2019-10-16T19:02:15Z</time>
      </trkpt>
      <trkpt lat="59.19252433921" lon="17.90040827113">
        <ele>77.4</ele>
        <time>2019-10-16T19:02:16Z</time>
      </trkpt>
      <trkpt lat="59.192554094955" lon="17.900445738223">
        <ele>77</ele>
        <time>2019-10-16T19:02:17Z</time>
      </trkpt>
      <trkpt lat="59.19259055622" lon="17.900486725714">
        <ele>77</ele>
        <time>2019-10-16T19:02:18Z</time>
      </trkpt>
      <trkpt lat="59.192622575078" lon="17.900519079848">
        <ele>77</ele>
        <time>2019-10-16T19:02:19Z</time>
      </trkpt>
      <trkpt lat="59.192658281972" lon="17.900574903302">
        <ele>76.8</ele>
        <time>2019-10-16T19:02:20Z</time>
      </trkpt>
      <trkpt lat="59.192701448757" lon="17.900623602141">
        <ele>76.8</ele>
        <time>2019-10-16T19:02:21Z</time>
      </trkpt>
      <trkpt lat="59.192748555035" lon="17.900666601288">
        <ele>76.8</ele>
        <time>2019-10-16T19:02:22Z</time>
      </trkpt>
      <trkpt lat="59.192789961621" lon="17.900700967078">
        <ele>76.8</ele>
        <time>2019-10-16T19:02:23Z</time>
      </trkpt>
      <trkpt lat="59.192877301019" lon="17.90077791292">
        <ele>76.8</ele>
        <time>2019-10-16T19:02:25Z</time>
      </trkpt>
      <trkpt lat="59.192924239659" lon="17.900822923723">
        <ele>76.8</ele>
        <time>2019-10-16T19:02:26Z</time>
      </trkpt>
      <trkpt lat="59.192968496091" lon="17.900869946182">
        <ele>76.6</ele>
        <time>2019-10-16T19:02:27Z</time>
      </trkpt>
      <trkpt lat="59.193012836342" lon="17.900940270323">
        <ele>76.6</ele>
        <time>2019-10-16T19:02:28Z</time>
      </trkpt>
      <trkpt lat="59.193031025065" lon="17.901012019387">
        <ele>76.6</ele>
        <time>2019-10-16T19:02:29Z</time>
      </trkpt>
      <trkpt lat="59.193040580431" lon="17.90107966132">
        <ele>76.6</ele>
        <time>2019-10-16T19:02:30Z</time>
      </trkpt>
      <trkpt lat="59.19304988434" lon="17.901150656013">
        <ele>76.6</ele>
        <time>2019-10-16T19:02:31Z</time>
      </trkpt>
      <trkpt lat="59.193055332575" lon="17.901222824172">
        <ele>76.6</ele>
        <time>2019-10-16T19:02:32Z</time>
      </trkpt>
      <trkpt lat="59.193060696991" lon="17.901293483589">
        <ele>76.6</ele>
        <time>2019-10-16T19:02:33Z</time>
      </trkpt>
      <trkpt lat="59.193064217389" lon="17.901355928744">
        <ele>76.4</ele>
        <time>2019-10-16T19:02:34Z</time>
      </trkpt>
      <trkpt lat="59.193067151054" lon="17.901414182949">
        <ele>76.4</ele>
        <time>2019-10-16T19:02:35Z</time>
      </trkpt>
      <trkpt lat="59.193067989244" lon="17.901452823508">
        <ele>76.4</ele>
        <time>2019-10-16T19:02:36Z</time>
      </trkpt>
      <trkpt lat="59.193074862402" lon="17.901488362764">
        <ele>76.4</ele>
        <time>2019-10-16T19:02:37Z</time>
      </trkpt>
      <trkpt lat="59.1930867647" lon="17.901515436301">
        <ele>76.2</ele>
        <time>2019-10-16T19:02:38Z</time>
      </trkpt>
      <trkpt lat="59.193093721677" lon="17.90154737134">
        <ele>76.2</ele>
        <time>2019-10-16T19:02:39Z</time>
      </trkpt>
      <trkpt lat="59.193096739161" lon="17.901576624171">
        <ele>76.2</ele>
        <time>2019-10-16T19:02:40Z</time>
      </trkpt>
      <trkpt lat="59.193101349206" lon="17.901602775699">
        <ele>76.2</ele>
        <time>2019-10-16T19:02:41Z</time>
      </trkpt>
      <trkpt lat="59.193104031414" lon="17.901625406829">
        <ele>76.2</ele>
        <time>2019-10-16T19:02:42Z</time>
      </trkpt>
      <trkpt lat="59.193137223738" lon="17.901971327842">
        <ele>76.6</ele>
        <time>2019-10-16T19:05:29Z</time>
      </trkpt>
      <trkpt lat="59.193149461312" lon="17.901999574845">
        <ele>76.6</ele>
        <time>2019-10-16T19:05:30Z</time>
      </trkpt>
      <trkpt lat="59.19316974551" lon="17.902035617015">
        <ele>76.6</ele>
        <time>2019-10-16T19:05:31Z</time>
      </trkpt>
      <trkpt lat="59.193193298649" lon="17.902068641701">
        <ele>76.6</ele>
        <time>2019-10-16T19:05:32Z</time>
      </trkpt>
      <trkpt lat="59.193212912295" lon="17.902091272831">
        <ele>76.6</ele>
        <time>2019-10-16T19:05:33Z</time>
      </trkpt>
      <trkpt lat="59.193228670267" lon="17.902122118223">
        <ele>76.6</ele>
        <time>2019-10-16T19:05:34Z</time>
      </trkpt>
      <trkpt lat="59.193241997488" lon="17.902158998583">
        <ele>76.6</ele>
        <time>2019-10-16T19:05:35Z</time>
      </trkpt>
      <trkpt lat="59.193251469035" lon="17.902200908083">
        <ele>76.6</ele>
        <time>2019-10-16T19:05:36Z</time>
      </trkpt>
      <trkpt lat="59.193256581994" lon="17.902252372949">
        <ele>76.6</ele>
        <time>2019-10-16T19:05:37Z</time>
      </trkpt>
      <trkpt lat="59.193259767116" lon="17.902301407064">
        <ele>76.2</ele>
        <time>2019-10-16T19:05:38Z</time>
      </trkpt>
      <trkpt lat="59.193258845107" lon="17.902352369016">
        <ele>76</ele>
        <time>2019-10-16T19:05:39Z</time>
      </trkpt>
      <trkpt lat="59.193257168727" lon="17.90240819247">
        <ele>75.8</ele>
        <time>2019-10-16T19:05:40Z</time>
      </trkpt>
      <trkpt lat="59.193255911442" lon="17.902463093915">
        <ele>75.6</ele>
        <time>2019-10-16T19:05:41Z</time>
      </trkpt>
      <trkpt lat="59.193255911442" lon="17.902515145514">
        <ele>75.6</ele>
        <time>2019-10-16T19:05:42Z</time>
      </trkpt>
      <trkpt lat="59.193254235062" lon="17.902567532389">
        <ele>75.6</ele>
        <time>2019-10-16T19:05:43Z</time>
      </trkpt>
      <trkpt lat="59.19325356451" lon="17.902607933147">
        <ele>75.4</ele>
        <time>2019-10-16T19:05:44Z</time>
      </trkpt>
      <trkpt lat="59.193252223406" lon="17.902644394412">
        <ele>75.4</ele>
        <time>2019-10-16T19:05:45Z</time>
      </trkpt>
      <trkpt lat="59.193254235062" lon="17.902674653071">
        <ele>75.2</ele>
        <time>2019-10-16T19:05:46Z</time>
      </trkpt>
      <trkpt lat="59.193257420184" lon="17.90269485345">
        <ele>75.2</ele>
        <time>2019-10-16T19:05:47Z</time>
      </trkpt>
      <trkpt lat="59.193262197867" lon="17.902717987494">
        <ele>75.2</ele>
        <time>2019-10-16T19:05:48Z</time>
      </trkpt>
      <trkpt lat="59.19326446098" lon="17.902731230896">
        <ele>75</ele>
        <time>2019-10-16T19:05:49Z</time>
      </trkpt>
      <trkpt lat="59.193264125704" lon="17.902736427674">
        <ele>75</ele>
        <time>2019-10-16T19:05:50Z</time>
      </trkpt>
      <trkpt lat="59.193160357782" lon="17.902713712725">
        <ele>74.6</ele>
        <time>2019-10-16T19:06:17Z</time>
      </trkpt>
      <trkpt lat="59.193154909547" lon="17.90266719318">
        <ele>74.6</ele>
        <time>2019-10-16T19:06:18Z</time>
      </trkpt>
      <trkpt lat="59.193154406633" lon="17.902624696947">
        <ele>74.6</ele>
        <time>2019-10-16T19:06:19Z</time>
      </trkpt>
      <trkpt lat="59.193153316986" lon="17.902582619809">
        <ele>74.6</ele>
        <time>2019-10-16T19:06:20Z</time>
      </trkpt>
      <trkpt lat="59.193150802416" lon="17.902535429712">
        <ele>74.6</ele>
        <time>2019-10-16T19:06:21Z</time>
      </trkpt>
      <trkpt lat="59.193143174887" lon="17.902491760013">
        <ele>74.6</ele>
        <time>2019-10-16T19:06:22Z</time>
      </trkpt>
      <trkpt lat="59.193141833783" lon="17.902454795834">
        <ele>74.6</ele>
        <time>2019-10-16T19:06:23Z</time>
      </trkpt>
      <trkpt lat="59.193138061928" lon="17.902436271835">
        <ele>74.6</ele>
        <time>2019-10-16T19:06:24Z</time>
      </trkpt>
      <trkpt lat="59.193138397204" lon="17.902432164704">
        <ele>74.6</ele>
        <time>2019-10-16T19:06:25Z</time>
      </trkpt>
      <trkpt lat="59.193137139919" lon="17.902432248523">
        <ele>74.6</ele>
        <time>2019-10-16T19:06:26Z</time>
      </trkpt>
    </trkseg>
  </trk>
</gpx>